[[{"header":{"parameterUnit":"m.s-1","parameterCategory":1,"la1":30.6,"la2":29.2853,"lo1":-89.7004,"lo2":-87.6739,"dy":0.0162,"dx":0.0183,"nx":112,"ny":82,"refTime":"2023-02-28T06:00:00:Z","depth":0,"parameterNumber":2,"parameterNumberName":"U-component_of_WINDS"},"data":[0.0,0.0,0.0,0.0,0.0,0.0,0.0,0.0,0.0,0.0,0.0,0.0,0.0,0.0,0.0,0.0,0.0,0.0,0.0,0.0,0.0,0.0,0.0,0.0,0.0,0.0,0.0,0.0,0.0,0.0,0.0,0.0,0.0,0.0,0.0,0.0,0.0,0.0,0.0,0.0,0.0,0.0,0.0,0.0,0.0,0.0,0.0,0.0,0.0,0.0,0.0,0.0,0.0,0.0,0.0,0.0,0.0,0.0,0.0,0.0,0.0,0.0,0.0,0.0,0.0,0.0,0.0,0.0,0.0,0.0,0.0,0.0,0.0,0.0,0.0,0.0,0.0,0.0,0.0,0.0,0.0,0.0,0.0,0.0,0.0,0.0,0.0,0.0,0.0,0.0,-2.4925,-2.5183,-2.7253,-2.8706,-2.8982,-3.0076,-2.9787,-2.7538,0.0,0.0,0.0,0.0,0.0,0.0,0.0,0.0,0.0,0.0,0.0,0.0,0.0,0.0,0.0,0.0,0.0,0.0,0.0,0.0,0.0,0.0,0.0,0.0,0.0,0.0,0.0,0.0,0.0,0.0,0.0,0.0,0.0,0.0,0.0,0.0,0.0,0.0,0.0,0.0,0.0,0.0,0.0,0.0,0.0,0.0,0.0,0.0,0.0,0.0,0.0,0.0,0.0,0.0,0.0,0.0,0.0,0.0,0.0,0.0,0.0,0.0,0.0,0.0,0.0,0.0,0.0,0.0,0.0,0.0,0.0,0.0,0.0,0.0,0.0,0.0,0.0,0.0,0.0,0.0,0.0,0.0,0.0,0.0,0.0,0.0,0.0,0.0,0.0,0.0,0.0,0.0,0.0,0.0,0.0,0.0,0.0,0.0,0.0,0.0,0.0,0.0,0.0,0.0,-2.7705,-2.7971,-2.8359,-2.8706,-2.8982,-2.8583,-2.8304,-2.8211,0.0,0.0,0.0,0.0,0.0,0.0,0.0,0.0,0.0,0.0,0.0,0.0,0.0,0.0,0.0,0.0,0.0,0.0,0.0,0.0,0.0,0.0,0.0,0.0,0.0,0.0,0.0,0.0,0.0,0.0,0.0,0.0,0.0,0.0,0.0,0.0,0.0,0.0,0.0,0.0,0.0,0.0,0.0,0.0,0.0,0.0,0.0,0.0,0.0,0.0,0.0,0.0,0.0,0.0,0.0,0.0,0.0,0.0,0.0,0.0,0.0,0.0,0.0,0.0,0.0,0.0,0.0,0.0,0.0,0.0,0.0,0.0,0.0,0.0,0.0,0.0,0.0,0.0,0.0,0.0,0.0,0.0,0.0,0.0,0.0,0.0,0.0,0.0,0.0,0.0,0.0,0.0,0.0,0.0,0.0,0.0,0.0,0.0,0.0,0.0,0.0,0.0,0.0,-2.6631,-2.7315,-2.844,-2.8644,-2.8761,-2.887,-2.8511,-2.8257,-2.8188,-2.8584,0.0,0.0,0.0,0.0,0.0,0.0,0.0,0.0,0.0,0.0,0.0,0.0,0.0,0.0,0.0,0.0,0.0,0.0,0.0,0.0,0.0,0.0,0.0,0.0,0.0,0.0,0.0,0.0,0.0,0.0,0.0,0.0,0.0,0.0,0.0,0.0,0.0,0.0,0.0,0.0,0.0,0.0,0.0,0.0,0.0,0.0,0.0,0.0,0.0,0.0,0.0,0.0,0.0,0.0,0.0,0.0,0.0,0.0,0.0,0.0,0.0,0.0,0.0,0.0,0.0,0.0,0.0,0.0,0.0,0.0,0.0,0.0,0.0,0.0,0.0,0.0,0.0,0.0,0.0,0.0,0.0,0.0,0.0,0.0,0.0,0.0,0.0,0.0,0.0,0.0,0.0,0.0,0.0,0.0,0.0,0.0,0.0,0.0,0.0,0.0,0.0,0.0,-2.6258,-2.6977,-2.8417,-2.8712,-2.8798,-2.8822,-2.8785,-2.8551,-2.8051,-2.7858,0.0,0.0,0.0,0.0,0.0,0.0,0.0,0.0,0.0,0.0,0.0,0.0,0.0,0.0,0.0,0.0,0.0,0.0,0.0,0.0,0.0,0.0,0.0,0.0,0.0,0.0,0.0,0.0,0.0,0.0,0.0,0.0,0.0,0.0,0.0,0.0,0.0,0.0,0.0,0.0,0.0,0.0,0.0,0.0,0.0,0.0,0.0,0.0,0.0,0.0,0.0,0.0,0.0,0.0,0.0,0.0,0.0,0.0,0.0,0.0,0.0,0.0,0.0,0.0,0.0,0.0,0.0,0.0,0.0,0.0,0.0,0.0,0.0,0.0,0.0,0.0,0.0,0.0,0.0,0.0,0.0,0.0,0.0,0.0,0.0,0.0,0.0,0.0,0.0,0.0,0.0,0.0,0.0,0.0,0.0,0.0,0.0,0.0,0.0,0.0,0.0,0.0,-2.8098,-2.8366,-2.8731,-2.8785,-2.8822,-2.8893,-2.8893,-2.8663,-2.8129,-2.795,0.0,0.0,0.0,0.0,0.0,0.0,0.0,0.0,0.0,0.0,0.0,0.0,0.0,0.0,0.0,0.0,0.0,0.0,0.0,0.0,0.0,0.0,0.0,0.0,0.0,0.0,0.0,0.0,0.0,0.0,0.0,0.0,0.0,0.0,0.0,0.0,0.0,0.0,0.0,0.0,0.0,0.0,0.0,0.0,0.0,0.0,0.0,0.0,0.0,0.0,0.0,0.0,0.0,0.0,0.0,0.0,0.0,0.0,0.0,0.0,0.0,0.0,0.0,0.0,0.0,0.0,0.0,0.0,0.0,0.0,0.0,0.0,0.0,0.0,0.0,0.0,0.0,0.0,0.0,0.0,0.0,0.0,0.0,0.0,0.0,0.0,0.0,0.0,0.0,0.0,0.0,0.0,0.0,0.0,0.0,0.0,0.0,0.0,0.0,0.0,0.0,0.0,-2.8147,-2.8352,0.0,-2.9148,-2.9457,-2.952,-2.9532,-2.928,-2.871,0.0,0.0,0.0,0.0,0.0,0.0,0.0,0.0,0.0,0.0,0.0,0.0,0.0,0.0,0.0,0.0,0.0,0.0,0.0,0.0,0.0,0.0,0.0,0.0,0.0,0.0,0.0,0.0,0.0,0.0,0.0,0.0,0.0,0.0,0.0,0.0,0.0,0.0,0.0,0.0,0.0,0.0,0.0,0.0,0.0,0.0,0.0,0.0,0.0,0.0,0.0,0.0,0.0,0.0,0.0,0.0,0.0,0.0,0.0,0.0,0.0,0.0,0.0,0.0,0.0,0.0,0.0,0.0,0.0,0.0,0.0,0.0,0.0,0.0,0.0,0.0,0.0,0.0,0.0,0.0,0.0,0.0,0.0,0.0,0.0,0.0,0.0,0.0,0.0,0.0,0.0,0.0,0.0,0.0,0.0,0.0,0.0,0.0,0.0,0.0,0.0,0.0,-2.7911,-2.8047,-2.8345,0.0,-2.945,-2.9867,-3.027,-2.9987,-2.9566,-2.9048,0.0,0.0,0.0,0.0,0.0,0.0,0.0,0.0,0.0,0.0,0.0,0.0,0.0,0.0,0.0,0.0,0.0,0.0,0.0,0.0,0.0,0.0,0.0,0.0,0.0,0.0,0.0,0.0,0.0,0.0,0.0,0.0,0.0,0.0,0.0,0.0,0.0,0.0,0.0,0.0,0.0,0.0,0.0,0.0,0.0,0.0,0.0,0.0,0.0,0.0,0.0,0.0,0.0,0.0,0.0,0.0,0.0,0.0,0.0,0.0,0.0,0.0,0.0,0.0,0.0,0.0,0.0,0.0,0.0,0.0,0.0,0.0,0.0,0.0,0.0,0.0,0.0,0.0,0.0,0.0,0.0,0.0,0.0,0.0,0.0,0.0,0.0,0.0,0.0,0.0,0.0,0.0,0.0,0.0,0.0,0.0,0.0,0.0,0.0,0.0,0.0,0.0,-2.7883,-2.802,-2.8546,-2.9673,-2.9629,-2.9967,-3.1123,-3.0184,-2.941,0.0,0.0,0.0,0.0,0.0,0.0,0.0,0.0,0.0,0.0,0.0,0.0,0.0,0.0,0.0,0.0,0.0,0.0,0.0,0.0,0.0,0.0,0.0,0.0,0.0,0.0,0.0,0.0,0.0,0.0,0.0,0.0,0.0,0.0,0.0,0.0,0.0,0.0,0.0,0.0,0.0,0.0,0.0,0.0,0.0,0.0,0.0,0.0,0.0,0.0,0.0,0.0,0.0,0.0,0.0,0.0,0.0,0.0,0.0,0.0,0.0,0.0,0.0,0.0,0.0,0.0,0.0,0.0,0.0,0.0,0.0,0.0,0.0,0.0,0.0,0.0,0.0,0.0,0.0,0.0,0.0,0.0,0.0,0.0,0.0,0.0,0.0,0.0,0.0,0.0,0.0,0.0,0.0,0.0,0.0,0.0,0.0,0.0,0.0,0.0,0.0,0.0,0.0,-2.7883,-2.8097,-2.8569,-2.9426,-2.9865,-3.0416,-3.1333,-3.1319,-3.0796,-2.9667,0.0,0.0,0.0,0.0,0.0,0.0,0.0,0.0,0.0,0.0,0.0,0.0,0.0,0.0,0.0,0.0,0.0,0.0,0.0,0.0,0.0,0.0,0.0,0.0,0.0,0.0,0.0,0.0,0.0,0.0,0.0,0.0,0.0,0.0,0.0,0.0,0.0,0.0,0.0,0.0,0.0,0.0,0.0,0.0,0.0,0.0,0.0,0.0,0.0,0.0,0.0,0.0,0.0,0.0,0.0,0.0,0.0,0.0,0.0,0.0,0.0,0.0,0.0,0.0,0.0,0.0,0.0,0.0,0.0,0.0,0.0,0.0,0.0,0.0,0.0,0.0,0.0,0.0,0.0,0.0,0.0,0.0,0.0,0.0,0.0,0.0,0.0,0.0,0.0,0.0,0.0,0.0,0.0,0.0,0.0,0.0,0.0,0.0,0.0,0.0,0.0,0.0,-2.8293,-2.8332,-2.8832,-3.0212,-3.0462,-3.0919,-3.1888,-3.1751,-3.1219,-3.0326,0.0,0.0,0.0,0.0,0.0,0.0,0.0,0.0,0.0,0.0,0.0,0.0,0.0,0.0,0.0,0.0,0.0,0.0,0.0,0.0,0.0,0.0,0.0,0.0,0.0,0.0,0.0,0.0,0.0,0.0,0.0,0.0,0.0,0.0,0.0,0.0,0.0,0.0,0.0,0.0,0.0,0.0,0.0,0.0,0.0,0.0,0.0,0.0,0.0,0.0,0.0,0.0,0.0,0.0,0.0,0.0,0.0,0.0,0.0,0.0,0.0,0.0,0.0,0.0,0.0,0.0,0.0,0.0,0.0,0.0,0.0,0.0,0.0,0.0,0.0,0.0,0.0,0.0,0.0,0.0,0.0,0.0,0.0,0.0,0.0,0.0,0.0,0.0,0.0,0.0,0.0,0.0,0.0,0.0,0.0,0.0,0.0,0.0,0.0,0.0,0.0,0.0,-2.8888,-2.8638,-2.9215,-3.1482,-3.1209,-3.134,-3.2516,-3.17,-3.1077,-3.0957,0.0,0.0,0.0,0.0,0.0,0.0,0.0,0.0,0.0,0.0,0.0,0.0,0.0,0.0,0.0,0.0,0.0,0.0,0.0,0.0,0.0,0.0,0.0,0.0,0.0,0.0,0.0,0.0,0.0,0.0,0.0,0.0,0.0,0.0,0.0,0.0,0.0,0.0,0.0,0.0,0.0,0.0,0.0,0.0,0.0,0.0,0.0,0.0,0.0,0.0,0.0,0.0,0.0,0.0,0.0,0.0,0.0,0.0,0.0,0.0,-3.0173,0.0,0.0,0.0,0.0,0.0,0.0,0.0,0.0,0.0,0.0,0.0,0.0,0.0,0.0,0.0,0.0,0.0,0.0,0.0,0.0,0.0,0.0,0.0,0.0,0.0,0.0,0.0,0.0,0.0,0.0,0.0,0.0,0.0,0.0,0.0,0.0,0.0,0.0,0.0,0.0,0.0,-2.8521,-2.8625,-2.9282,-3.0986,-3.0907,-3.1079,-3.1932,-3.2004,-3.162,-3.068,-3.0456,0.0,0.0,0.0,0.0,0.0,0.0,0.0,0.0,0.0,0.0,0.0,0.0,0.0,0.0,0.0,0.0,0.0,0.0,0.0,0.0,0.0,0.0,0.0,0.0,0.0,0.0,0.0,0.0,0.0,0.0,0.0,0.0,0.0,0.0,0.0,0.0,0.0,0.0,0.0,0.0,0.0,0.0,0.0,0.0,0.0,0.0,0.0,0.0,0.0,0.0,0.0,0.0,0.0,0.0,0.0,0.0,0.0,0.0,0.0,0.0,-2.961,0.0,0.0,0.0,0.0,0.0,0.0,0.0,0.0,0.0,0.0,0.0,0.0,0.0,0.0,0.0,0.0,0.0,0.0,0.0,0.0,0.0,0.0,0.0,0.0,0.0,0.0,0.0,0.0,0.0,0.0,0.0,0.0,0.0,0.0,0.0,0.0,0.0,0.0,0.0,0.0,-2.8913,-2.9117,-2.9756,-3.1394,-3.1481,-3.1514,-3.1784,-3.1965,-3.1792,-3.1159,-3.1063,0.0,0.0,0.0,0.0,0.0,0.0,0.0,0.0,0.0,0.0,0.0,0.0,0.0,0.0,0.0,0.0,0.0,0.0,0.0,0.0,0.0,0.0,0.0,0.0,0.0,0.0,0.0,0.0,0.0,0.0,0.0,0.0,0.0,0.0,0.0,0.0,0.0,0.0,0.0,0.0,0.0,0.0,0.0,0.0,0.0,0.0,0.0,0.0,0.0,0.0,0.0,0.0,0.0,0.0,-2.8569,-2.8756,-2.8778,-2.914,-2.972,-2.9606,-2.9336,-2.8932,0.0,0.0,0.0,0.0,0.0,0.0,0.0,0.0,0.0,0.0,0.0,0.0,0.0,0.0,0.0,0.0,0.0,0.0,0.0,0.0,0.0,0.0,0.0,0.0,0.0,-3.2554,-3.3229,0.0,0.0,0.0,0.0,0.0,0.0,0.0,0.0,0.0,0.0,0.0,0.0,-2.9592,-2.9798,-3.0404,-3.1951,-3.2126,-3.1985,-3.1628,-3.1731,-3.1748,-3.161,-3.1377,-3.1181,0.0,0.0,0.0,0.0,0.0,0.0,0.0,0.0,0.0,0.0,0.0,0.0,0.0,0.0,0.0,0.0,0.0,0.0,0.0,0.0,0.0,0.0,0.0,0.0,0.0,0.0,0.0,0.0,0.0,0.0,0.0,0.0,-3.3081,-3.284,0.0,0.0,0.0,0.0,0.0,0.0,0.0,0.0,0.0,0.0,0.0,0.0,0.0,0.0,-3.021,-3.0797,-3.1085,-3.1103,-3.1212,-3.1292,-3.1325,-3.1499,-3.1534,-3.1474,-3.1636,0.0,-2.8932,-2.8136,0.0,0.0,0.0,0.0,0.0,0.0,0.0,0.0,0.0,0.0,0.0,0.0,0.0,0.0,0.0,0.0,0.0,0.0,0.0,0.0,0.0,0.0,-3.2445,-3.2764,-3.3235,-3.3465,0.0,-3.2282,-3.1788,-3.2057,0.0,0.0,0.0,0.0,0.0,0.0,0.0,0.0,-3.0189,-3.0453,-3.0887,-3.1751,-3.1838,-3.1579,-3.0904,-3.142,-3.1524,-3.0904,-3.1638,-3.1895,-3.1357,-3.1377,0.0,0.0,0.0,0.0,0.0,0.0,0.0,0.0,0.0,0.0,0.0,0.0,0.0,0.0,0.0,0.0,0.0,0.0,0.0,0.0,0.0,0.0,0.0,0.0,0.0,0.0,0.0,0.0,0.0,-3.2782,-3.1661,-3.0684,-3.0514,-3.0389,0.0,0.0,0.0,0.0,0.0,0.0,0.0,0.0,0.0,-2.8957,-2.9392,-2.9605,-2.9519,-2.9879,-3.0092,-3.016,-3.0283,-3.0456,-3.0677,-3.0772,-3.0941,-3.1171,-3.0807,-3.0277,-2.9634,-2.8975,-2.8141,-2.7288,0.0,0.0,0.0,0.0,0.0,-2.8084,-2.8613,0.0,0.0,0.0,0.0,0.0,0.0,0.0,0.0,0.0,0.0,0.0,0.0,0.0,0.0,-3.3777,-3.384,-3.3729,-3.4007,-3.3228,-3.2295,0.0,-3.1029,-3.0472,-3.0041,0.0,0.0,0.0,0.0,0.0,-3.0541,-3.0786,-3.1168,-3.1986,-3.2073,-3.1706,-3.0783,-3.1369,-3.1563,-3.1028,-3.198,-3.2558,-3.2471,-3.2157,-3.1639,0.0,0.0,0.0,0.0,0.0,0.0,0.0,0.0,0.0,0.0,0.0,0.0,0.0,0.0,0.0,0.0,0.0,0.0,0.0,0.0,0.0,0.0,0.0,0.0,0.0,0.0,0.0,0.0,-3.1718,-3.0803,-2.8849,-2.9513,-2.9746,0.0,0.0,0.0,0.0,0.0,0.0,-2.9053,-2.9073,-2.8957,-2.8632,-2.9163,-2.951,-2.961,-2.9676,-2.975,-2.9846,-2.9935,-3.0252,-3.0751,-3.0596,-3.0846,-3.138,-3.0631,-3.0305,-3.0259,-2.9357,-2.8756,-2.837,-2.7972,-2.8064,-2.8498,-2.9172,-2.9406,-2.9553,-3.0508,-3.0956,-3.1168,-3.1323,0.0,-3.1504,-3.1186,0.0,0.0,0.0,0.0,-3.1626,-3.2619,0.0,-3.3332,-3.455,-3.4434,-3.4133,-3.4475,-3.3695,-3.2721,0.0,-3.1462,-3.0976,-3.0578,0.0,0.0,0.0,0.0,-3.0087,-3.1098,-3.122,-3.1498,-3.2213,-3.2214,-3.176,-3.0783,-3.1369,-3.1599,-3.1096,-3.216,-3.2905,-3.3154,-3.2859,-3.2543,-3.2228,0.0,0.0,0.0,0.0,0.0,0.0,0.0,0.0,0.0,0.0,0.0,0.0,0.0,0.0,0.0,0.0,0.0,0.0,0.0,0.0,0.0,0.0,0.0,0.0,0.0,0.0,0.0,0.0,0.0,-2.8145,-2.94,0.0,0.0,0.0,0.0,-3.107,-3.0337,-3.0156,-3.0828,-2.9089,-2.8748,-3.0235,-3.0206,-3.0515,-3.1268,-3.1481,-3.1564,-3.1575,-3.1894,-3.2496,-3.3298,-3.2716,-3.2793,-3.3326,-3.2716,-3.1778,-3.0541,-2.8639,-2.8764,-2.9984,-2.9016,-2.9566,-3.0935,-3.1044,-3.1072,-3.116,-3.1795,-3.2004,-3.2144,-3.2697,-3.2481,-3.21,-3.2766,-3.182,0.0,0.0,-3.2729,-3.3148,-3.5033,-3.5507,-3.5439,-3.5066,-3.4954,-3.4734,-3.4014,-3.3099,-3.2866,0.0,-3.3454,-3.2714,-3.3368,0.0,-3.1663,-3.1435,-3.1378,-3.1567,-3.2074,-3.1914,-3.1895,-3.2266,-3.2019,-3.1508,-3.0766,-3.1369,-3.149,-3.0766,-3.2029,-3.2811,-3.2811,-3.3397,-3.3371,-3.2593,-3.286,0.0,0.0,0.0,0.0,0.0,0.0,0.0,0.0,0.0,0.0,0.0,0.0,0.0,0.0,0.0,0.0,0.0,0.0,0.0,0.0,0.0,0.0,0.0,0.0,0.0,0.0,0.0,0.0,-3.1366,-3.2259,0.0,0.0,-3.1146,-3.1328,-2.9835,-3.0456,-3.0514,-2.9633,-2.9935,-2.9841,-2.9195,-3.0689,-3.1307,-3.0946,-3.1019,-3.1384,-3.2031,-3.1618,-3.1921,-3.2788,-3.2576,-3.2257,-3.1911,-3.2213,-3.1723,-3.0603,-2.9296,-2.9078,-2.9514,-2.9074,-2.9552,-3.0562,-3.0894,-3.1345,-3.1849,-3.2367,-3.265,-3.2876,-3.3265,-3.3245,-3.3348,-3.4641,-3.4492,-3.4119,-3.5457,-3.5639,-3.5544,-3.5976,-3.6083,-3.6171,-3.6527,-3.6211,-3.5899,-3.6119,-3.5504,-3.5076,-3.5648,-3.363,-3.2026,-3.2685,-3.2194,-3.1673,-3.1578,-3.1559,-3.171,-3.2144,-3.1983,-3.1929,-3.2266,-3.2179,-3.1742,-3.0783,-3.1567,-3.1899,-3.1376,-3.2273,-3.2908,-3.3108,-3.3346,-3.3234,-3.2739,-3.3605,-3.3292,0.0,0.0,0.0,0.0,0.0,0.0,0.0,0.0,0.0,0.0,0.0,0.0,0.0,0.0,0.0,0.0,0.0,0.0,0.0,0.0,0.0,0.0,0.0,0.0,0.0,0.0,-3.3616,-3.2829,-3.398,-3.3786,-3.1134,-3.2364,-3.246,-3.0359,-3.1503,-3.1619,-3.0137,-3.1029,-3.1153,-3.017,-3.1449,-3.1943,-3.1549,-3.132,-3.1531,-3.2193,-3.1713,-3.1957,-3.2842,-3.253,-3.222,-3.1921,-3.2147,-3.1864,-3.1143,-3.0456,-3.0115,-3.0009,-2.957,-3.0051,-3.1108,-3.1833,-3.2282,-3.2593,-3.3158,-3.3767,-3.4222,-3.4112,-3.4105,-3.4293,-3.508,-3.5203,-3.5347,-3.6718,-3.6906,-3.6765,-3.7033,-3.711,-3.7184,-3.7437,-3.7088,-3.6795,-3.7052,-3.667,-3.6256,-3.612,-3.4243,-3.271,-3.2857,-3.2385,-3.1859,-3.1436,-3.1499,-3.168,-3.1898,-3.1845,-3.1966,-3.242,-3.2369,-3.2073,-3.1463,-3.1807,-3.2075,-3.2079,-3.2368,-3.279,-3.3273,-3.3383,-3.3291,-3.3063,-3.4265,-3.4374,-3.3325,0.0,0.0,0.0,0.0,0.0,0.0,0.0,0.0,0.0,0.0,0.0,0.0,0.0,0.0,0.0,0.0,0.0,0.0,0.0,0.0,0.0,0.0,0.0,-3.1888,-3.4062,-3.486,-3.2349,-3.4413,-3.499,-3.2259,-3.3426,-3.3923,-3.2903,-3.3454,-3.3458,-3.2552,-3.2345,-3.2589,-3.3351,-3.2543,-3.2441,-3.3205,-3.2575,-3.226,-3.2297,-3.2391,-3.2899,-3.3714,-3.2861,-3.2937,-3.3657,-3.2842,-3.2392,-3.223,-3.201,-3.1857,-3.1644,-3.063,-3.1201,-3.2708,-3.3974,-3.3946,-3.3436,-3.425,-3.5256,-3.6083,-3.5261,-3.5004,-3.4857,-3.4119,-3.3899,-3.4266,-3.5936,-3.6413,-3.6762,-3.834,-3.8744,-3.8524,-3.7731,-3.7547,-3.7327,-3.6527,-3.6362,-3.6241,-3.5833,-3.5494,-3.499,-3.4152,-3.3368,-3.2416,-3.1185,-3.137,0.0,-3.1449,-3.1673,-3.2073,-3.2679,-3.2485,-3.2418,-3.2727,-3.2065,-3.1958,-3.2757,-3.2421,-3.2509,-3.327,-3.3538,-3.3664,-3.3686,-3.4824,-3.5765,-3.6486,0.0,0.0,0.0,0.0,0.0,0.0,0.0,0.0,0.0,0.0,0.0,0.0,0.0,0.0,0.0,0.0,0.0,0.0,0.0,0.0,0.0,0.0,-3.3682,-3.4588,-3.6454,-3.7691,-3.7617,-3.8786,-3.8751,-3.6585,-3.7307,-3.668,-3.3751,-3.4272,-3.4068,-3.25,-3.2967,-3.31,-3.2703,-3.3601,-3.3922,-3.3572,-3.3375,-3.3582,-3.415,-3.3601,-3.3771,-3.4567,-3.432,-3.4036,-3.3714,-3.4055,-3.3781,-3.3067,-3.2911,-3.2735,-3.2464,-3.147,-3.1329,-3.183,-3.2783,-3.336,-3.378,-3.457,-3.4696,-3.4541,-3.4894,-3.5004,-3.5078,-3.5495,-3.6009,-3.6831,-3.8465,-3.8909,-3.9001,-3.946,-3.957,-3.9368,-3.856,-3.8377,-3.8242,-3.7717,-3.7598,-3.7482,-3.7075,-3.67,-3.5979,-3.455,-3.3984,-3.3589,-3.3141,0.0,0.0,-3.2523,-3.2511,-3.2291,-3.1627,-3.1925,-3.2094,-3.1941,-3.1942,-3.2306,-3.31,-3.3602,-3.3683,-3.3306,-3.4467,-3.5281,-3.5618,-3.5542,-3.573,0.0,0.0,0.0,0.0,0.0,0.0,0.0,0.0,0.0,0.0,0.0,0.0,0.0,0.0,0.0,0.0,0.0,0.0,0.0,0.0,0.0,0.0,-3.3931,-3.6002,-3.7353,-3.8415,-3.9223,-3.97,-4.0119,-3.9761,-3.8206,-3.8392,-3.7586,-3.5044,-3.5599,-3.5467,-3.4074,-3.4794,-3.5022,-3.451,-3.5438,-3.5723,-3.5249,-3.5315,-3.5543,-3.5931,-3.5524,-3.5543,-3.595,-3.595,-3.5685,0.0,-3.5382,-3.5007,-3.4288,-3.3881,-3.3527,0.0,0.0,0.0,0.0,0.0,-3.3109,-3.3862,-3.4325,-3.4192,-3.399,-3.5151,-3.5298,-3.5169,-3.6046,-3.6615,-3.7272,-3.8539,-3.9145,-3.9405,-3.9405,-3.99,-4.012,-3.8982,-3.8964,-3.9137,-3.8893,-3.8472,-3.8163,-3.8418,0.0,0.0,-3.6048,-3.5179,-3.4355,-3.3699,-3.3799,-3.3773,0.0,-3.3298,-3.31,-3.2572,-3.2559,-3.2586,-3.2527,-3.2377,0.0,0.0,0.0,-3.4262,-3.4421,-3.5327,0.0,0.0,0.0,-3.6532,0.0,0.0,0.0,0.0,-3.8366,-3.8078,0.0,0.0,0.0,0.0,0.0,0.0,0.0,0.0,0.0,0.0,0.0,0.0,0.0,0.0,0.0,0.0,-3.6341,-3.8802,-3.9686,-3.9872,-3.992,-3.9832,-3.9708,-3.9262,-3.8366,-3.809,-3.7583,-3.6644,-3.7185,-3.7192,-3.6377,0.0,0.0,0.0,0.0,-3.7421,-3.7421,-3.7538,-3.7538,-3.7421,-3.7528,-3.7519,-3.7401,-3.7401,-3.7401,-3.7363,-3.6661,-3.6071,-3.5584,-3.4862,-3.4327,-3.3962,-3.3839,-3.3421,-3.2876,-3.2876,-3.3371,0.0,0.0,0.0,0.0,-3.5917,-3.5917,-3.5426,-3.6193,-3.6486,-3.6743,-3.7547,-3.834,-3.8982,-3.8982,-4.0086,-4.0838,-3.9316,-3.9515,-4.0029,-3.9981,-3.9082,-3.858,-3.9558,-3.8355,-3.7391,-3.8111,-3.6652,-3.5013,-3.3869,-3.4408,0.0,-3.418,-3.4204,-3.4305,-3.4356,0.0,0.0,-3.3762,-3.3146,-3.3426,-3.5041,-3.4486,-3.4761,-3.624,-3.6225,-3.6587,-3.7481,-3.7515,-3.7932,-3.88,-4.0302,-4.0932,-4.065,-3.8239,-3.8077,0.0,0.0,0.0,0.0,0.0,0.0,0.0,0.0,0.0,0.0,0.0,0.0,0.0,0.0,0.0,-3.4086,-3.6688,-3.8798,-3.9672,-4.0415,-4.0805,-4.0688,-4.0498,-4.0269,-3.9965,-3.9755,-3.924,-3.8314,-3.8378,-3.8064,-3.7211,-3.7325,0.0,-3.7401,-3.7509,-3.7557,-3.7557,-3.7595,-3.7595,-3.7547,0.0,0.0,-3.7401,-3.7401,-3.7401,-3.7401,-3.7249,-3.6663,-3.584,-3.5671,-3.5369,-3.4934,-3.4131,-3.41,-3.4546,-3.4546,-3.5078,-3.5899,-3.6556,-3.6372,-3.5973,-3.696,-3.7162,-3.7052,-3.7217,-3.7716,0.0,-3.9203,-4.0029,-4.0636,-4.0636,-4.135,-4.1827,-4.0857,-4.0747,-4.0773,-4.0449,-3.9896,-3.9468,-3.9408,-3.9089,-3.8886,-3.9044,-3.7682,-3.6603,-3.6663,-3.6557,-3.6318,-3.5953,-3.5878,-3.525,-3.3698,-3.3628,-3.3721,-3.3788,-3.366,-3.4284,-3.5936,-3.5899,-3.6527,-3.8111,-3.7558,-3.7888,-3.9355,-3.9392,-3.9777,-4.0602,-4.1525,-4.1551,-4.0792,-4.0816,-4.0999,0.0,0.0,0.0,0.0,0.0,0.0,0.0,0.0,0.0,0.0,0.0,-3.1701,0.0,0.0,-3.5063,-3.6335,-3.838,-3.9961,-4.039,-4.0776,-4.0968,-4.0859,-4.0707,-4.0524,-4.033,-4.0177,-3.9875,-3.9334,-3.9304,-3.9115,-3.8679,-3.866,-3.866,-3.866,-3.8792,-3.8841,-3.8841,-3.888,-3.888,-3.8841,-3.8792,-3.8712,-3.866,-3.866,-3.866,-3.8641,-3.8235,-3.7705,-3.7118,-3.6614,-3.6223,-3.5938,-3.5845,-3.574,-3.5646,-3.5646,-3.5936,-3.6413,-3.7217,-3.6978,-3.6486,-3.7698,-3.7841,-3.7584,-3.7988,-3.8377,-3.8781,-3.9184,-4.0175,-4.1003,-4.0598,-4.168,-4.269,-4.1901,-4.1699,-4.1759,-4.1954,-4.1035,-4.0342,-4.0974,-4.0295,-3.9769,-4.0358,-3.9487,-3.8702,-3.8702,-3.8347,-3.8033,-3.7879,-3.7296,-3.6516,-3.5513,-3.519,-3.5055,-3.5055,-3.5789,-3.6615,-3.7441,-3.8267,-3.9074,-3.9866,-3.9129,-3.909,-3.9879,-3.9496,-3.9698,-4.0506,-4.083,-4.0929,-4.079,-4.074,-4.0926,0.0,0.0,0.0,0.0,0.0,0.0,0.0,0.0,-3.1642,-3.2038,-3.3075,-3.4023,-3.4464,-3.6411,-3.8357,-3.9553,-4.0786,-4.1578,-4.1568,-4.1175,-4.0854,-4.0759,-4.0629,-4.0453,-4.0215,-4.0118,-4.0015,-3.9911,-3.99,-3.99,-3.99,-3.9922,-3.9922,-3.99,-4.0027,-4.0108,-4.0106,-4.0148,-4.0148,-4.0106,-4.0067,-4.0005,-3.99,-3.99,-3.9911,-3.9895,-3.9081,-3.8639,-3.8403,-3.738,-3.687,-3.6786,-3.7564,-3.7368,-3.6652,-3.675,-3.6791,-3.6908,-3.7526,-3.7338,-3.7036,-3.83,-3.8267,-3.786,-3.8505,-3.8707,-3.8707,-3.8707,-3.9974,-4.1168,-4.0524,-4.2158,-4.3791,-4.3149,-4.3002,-4.3185,-4.3828,-4.2503,-4.1578,-4.2883,-4.1697,-4.0773,-4.1685,-4.1434,-4.0872,-4.0219,-3.9859,-3.958,-3.9452,-3.8569,-3.7841,-3.7529,-3.707,-3.6835,-3.6982,-3.8193,-3.9001,-3.9166,-4.038,-4.1095,-4.1095,-4.0322,-3.9955,-4.012,-3.9334,-3.93,-4.0123,-4.0026,-4.0165,-4.0536,-3.9994,-4.0077,-3.0001,-3.0952,-3.2513,-3.3619,-3.3898,-3.4867,0.0,0.0,-3.6489,-3.7351,-3.7105,-3.7201,-3.8704,-3.9902,-4.1435,-4.3805,-4.3697,-4.3302,-4.3238,-4.1883,-4.082,-4.0556,-4.0473,-4.0347,-4.0138,-4.0005,-3.9911,-3.99,-3.99,-3.99,-3.99,-4.0015,-4.0026,-3.99,-4.009,-4.0167,-4.0106,-4.0117,-4.0117,-4.0106,-3.9984,-3.9911,-3.99,-3.99,-3.9954,-4.0029,-3.9155,-3.8794,-3.8659,-3.7613,-3.716,-3.7201,-3.7817,-3.799,-3.7944,-3.8287,-3.8531,-3.8691,-3.86,-3.8619,-3.8709,-3.871,-3.8634,-3.8579,-3.867,-3.8707,-3.8707,-3.8707,-4.0377,-4.2158,-4.2047,-4.3828,-4.5608,-4.5516,-4.5498,-4.5516,-4.5608,-4.4618,-4.3733,-4.3914,-4.3207,-4.2609,-4.2737,-4.2977,-4.2658,-4.1197,-4.0921,-4.0643,-3.9926,-3.9719,-3.909,-3.7658,-3.8065,-3.8726,-3.9439,-3.9662,-4.0065,-4.0783,-4.1003,-4.1095,-4.1095,-4.0322,-4.023,-4.0948,-4.0132,-4.0081,-4.0868,-4.0748,-4.0335,-3.9667,-4.0287,-4.02,-3.3116,-3.3186,-3.3666,0.0,-3.6543,-3.7633,-3.8988,-3.8913,-3.855,-3.8471,-3.9763,-4.0973,-4.1181,-4.2784,-4.4414,0.0,-4.5355,-4.4741,-4.3642,-4.2772,-4.1592,-3.9884,-4.0006,-4.0196,-4.0117,-4.007,-4.0029,-3.9911,-4.0008,-4.008,-4.0062,-4.0099,-4.0118,-4.0196,-4.027,-4.0271,-4.0158,-4.0158,-4.0147,-4.0106,-3.9954,-3.9933,-4.0015,-4.0015,-4.0046,-4.0087,-3.9717,-3.9505,-3.9406,-3.8967,-3.8705,-3.862,-3.8876,-3.8908,-3.8818,-3.8985,-3.9115,-3.9165,-3.9073,-3.9031,-3.8989,-3.8906,-3.881,-3.8707,-3.8707,-3.8707,-3.8707,-3.8707,-4.0451,-4.2304,-4.2304,-4.4085,-4.6012,-4.6489,-4.625,-4.603,-4.6507,-4.5828,-4.5149,-4.5149,-4.4875,-4.4492,-4.4035,-4.4089,-4.3809,-4.2671,-4.2103,-4.168,-4.1332,-4.0891,-4.0341,-3.9662,-3.99,-4.0215,-4.0579,-4.102,-4.1442,-4.1791,-4.2249,-4.2506,-4.2506,-4.1277,-4.0763,-4.1095,-3.9749,-3.9461,-4.0302,-3.9659,-3.9393,-3.9505,-3.9799,-3.9765,-3.4068,0.0,0.0,-3.7406,-3.927,-4.0488,-4.0165,-4.0629,-4.0976,-4.0394,-4.2226,-4.3911,-4.3751,-4.5096,-4.6436,-4.7163,-4.6865,-4.6176,-4.5051,-4.4131,-4.2731,-4.0397,-4.0156,-4.0177,-4.0118,-4.0177,-4.0139,-4.006,-4.0405,-4.0609,-4.0616,-4.0806,-4.0977,-4.1097,-4.0846,-4.0642,-4.0492,-4.0501,-4.0347,-4.0106,-4.0233,-4.0235,-4.0128,-4.0128,-4.0128,-4.0128,-4.0098,-4.0046,-3.9943,-3.9911,-3.9804,-3.967,-3.967,-3.9587,-3.9464,-3.9464,-3.9427,-3.9363,-3.9259,-3.9151,-3.9055,-3.8946,-3.8822,-3.8707,-3.8707,-3.8854,-3.8982,-3.8762,-4.0763,-4.291,-4.269,-4.4599,-4.6709,-4.7278,-4.7003,-4.6728,-4.7296,-4.6801,-4.6232,-4.6232,-4.6049,-4.5718,-4.5131,-4.4856,-4.4507,-4.392,-4.3149,-4.2543,-4.2323,-4.159,-4.1187,-4.1407,-4.1224,-4.1279,-4.1735,-4.2084,-4.2396,-4.2616,-4.3167,-4.3497,-4.3463,-4.2125,-4.1266,-4.1029,-3.9538,-3.8978,-3.938,-3.8631,-3.8564,-3.9144,-3.9565,-3.9765,0.0,0.0,-3.6372,-3.9737,-4.1931,-4.35,-4.4402,-4.4676,-4.4738,-4.4714,-4.4785,-4.5362,-4.7036,-4.6723,-4.7023,-4.957,-4.8561,-4.768,-4.8258,-4.6158,-4.4084,-4.2843,-4.1328,-4.033,0.0,-4.0205,-4.0239,-4.0388,-4.1162,-4.1655,-4.1655,-4.2522,-4.2945,-4.2832,-4.1933,-4.1399,-4.1269,-4.1209,-4.08,-4.0106,-4.0876,-4.09,-4.0196,-4.0196,-4.0196,-4.0196,-4.0138,-4.0106,-4.0077,-3.9943,-3.99,-3.9889,-3.9889,-3.9889,-3.9878,-3.9878,-3.9758,-3.9539,-3.9137,-3.9124,-3.9219,-3.8837,-3.8707,-3.8707,-3.8707,-3.9239,-3.9698,-3.8927,-4.157,-4.4452,-4.3663,-4.5828,-4.8233,-4.8269,-4.8251,-4.8233,-4.8269,-4.7626,-4.7058,-4.7058,-4.6434,-4.5883,-4.5865,-4.5223,-4.4691,-4.4654,-4.3975,-4.3167,-4.2396,-4.159,-4.1389,-4.2176,-4.1572,-4.1735,-4.3277,-4.2727,-4.2635,-4.3423,-4.3496,-4.3463,-4.3412,-4.2608,-4.1733,-4.0826,-3.9939,-3.9107,-3.8343,-3.8242,-3.8227,-3.8281,-3.989,-4.0651,0.0,0.0,-4.0325,-4.2646,-4.415,-4.5146,-4.5505,-4.568,-4.5599,-4.5026,-4.3982,-4.3183,-4.3193,-4.3882,-4.4941,-4.6406,-4.8093,-4.9086,-4.8682,-4.7795,-4.6191,-4.3452,-4.3557,0.0,0.0,0.0,0.0,-4.0362,-4.133,-4.1886,-4.1844,-4.2629,-4.3096,-4.31,-4.2742,-4.2218,-4.1504,-4.2049,-4.159,-4.0177,-4.0539,-4.0529,-4.0205,-4.0279,-4.0262,-4.0138,-4.0108,-4.0389,-4.077,-4.0157,-4.0563,-4.151,-4.0961,-4.1094,-4.1491,-4.0961,-4.065,-4.0371,-3.9806,-3.9551,-3.9477,-3.9337,-3.9486,-3.9689,-3.9689,-4.0154,-4.0653,-4.0361,-4.2416,-4.4654,-4.4378,-4.6287,-4.8306,-4.8306,-4.8306,-4.8306,-4.8306,-4.8104,-4.7901,-4.7901,-4.7682,-4.7333,-4.6782,-4.647,-4.592,-4.4856,-4.4011,-4.3387,-4.313,-4.2855,-4.28,-4.3057,-4.2837,-4.291,-4.346,-4.324,-4.3221,-4.3478,-4.3464,-4.3411,-4.3394,-4.2538,-4.1664,-4.0809,-3.994,-3.909,-3.8307,-3.8224,-3.8207,-3.831,-3.9942,-4.0705,0.0,-3.9129,-4.168,-4.4698,-4.5673,-4.6088,-4.6828,-4.6833,-4.6421,-4.5584,-4.3742,-4.2147,-4.1601,-4.164,-4.2069,-4.2939,-4.523,-4.7077,-4.7645,-4.7396,-4.6639,-4.5287,-4.5491,-4.5031,0.0,0.0,0.0,-4.0649,-4.1776,-4.2489,-4.2434,-4.3448,-4.4056,-4.4093,-4.3704,-4.319,-4.2552,-4.3034,-4.2728,-4.1619,-4.1405,-4.1243,-4.1179,-4.117,-4.095,-4.0525,-4.0503,-4.0772,-4.115,-4.0601,-4.1169,-4.2344,-4.1832,-4.1927,-4.2287,-4.1503,-4.1066,-4.0791,-4.0049,-3.9866,-3.9952,-3.9952,-4.0247,-4.0637,-4.0637,-4.1046,-4.1462,-4.1168,-4.304,-4.5057,-4.4782,-4.6489,-4.8306,-4.8306,-4.8306,-4.8306,-4.8306,-4.8306,-4.8306,-4.8306,-4.8306,-4.8141,-4.7608,-4.7278,-4.6691,-4.5473,-4.476,-4.4157,-4.357,-4.3736,-4.3809,-4.3533,-4.3515,-4.3515,-4.3515,-4.348,-4.3463,-4.3463,-4.3394,-4.3305,-4.3305,-4.2704,-4.185,-4.0722,-4.0144,-3.9328,-3.8257,-3.8531,-3.8693,-3.8761,-4.0447,-4.1246,-3.7304,-3.9097,-4.1008,-4.5964,-4.6607,-4.6503,-4.8359,-4.8074,-4.7196,-4.6396,-4.3947,-4.1965,0.0,0.0,-3.8683,-3.9643,-4.074,-4.2607,-4.5835,-4.5557,-4.593,0.0,0.0,0.0,0.0,0.0,0.0,-4.1558,0.0,-4.356,-4.3477,-4.4872,-4.5703,-4.5696,-4.4778,-4.4259,-4.422,-4.4039,-4.4048,-4.4192,-4.332,-4.2889,-4.2871,-4.2694,-4.2151,-4.1341,-4.1301,-4.1283,-4.1321,-4.1283,-4.1757,-4.2515,-4.2477,-4.2477,-4.242,-4.1616,-4.1198,-4.091,-4.0044,-4.0128,-4.0622,-4.0678,-4.1036,-4.1482,-4.1482,-4.1889,-4.2194,-4.1425,-4.3479,-4.5736,-4.5021,-4.6599,-4.8379,-4.8416,-4.8398,-4.8379,-4.8379,-4.8343,-4.8306,-4.8306,-4.8306,-4.8306,-4.8306,-4.7663,-4.6985,-4.6502,-4.6207,-4.5461,-4.3844,-4.4304,-4.4452,-4.3662,-4.3552,-4.3551,-4.3515,-4.3446,-4.3394,-4.3394,-4.3269,-4.316,-4.3104,-4.3086,-4.2286,-4.0583,-4.0564,-3.9822,-3.8336,-3.9162,-3.9577,-3.9613,-4.1369,-4.2222,-4.0732,-4.3936,-4.6996,-4.7038,-4.7411,-4.7886,-4.8393,-4.7359,-4.6099,-4.5348,-4.1059,-3.7088,0.0,0.0,0.0,-3.9443,-4.376,0.0,-4.9713,-4.9828,0.0,-5.0553,0.0,-5.056,-4.946,-5.0332,0.0,0.0,-4.6406,-4.5719,-4.4369,-4.5193,-4.5685,-4.5627,-4.5383,-4.4925,-4.429,-4.3649,-4.3624,-4.4192,-4.332,-4.2814,-4.2664,-4.262,-4.2422,-4.2124,-4.2102,-4.2469,-4.3019,-4.2363,-4.2962,-4.4194,-4.3606,-4.3739,-4.4175,-4.336,-4.2949,-4.2662,-4.1935,-4.1316,-4.0954,-4.1693,-4.2243,-4.2592,-4.2592,-4.2865,-4.3149,-4.2947,-4.4342,-4.5993,-4.6379,-4.7865,-4.9407,-5.0013,-4.9701,-4.928,-4.928,-4.8765,-4.8306,-4.8306,-4.8306,-4.8306,-4.8306,-4.8141,-4.7738,-4.704,-4.7353,-4.7206,-4.5843,-4.5621,-4.5296,-4.4488,-4.4397,-4.4158,-4.3551,-4.3446,-4.3394,-4.3394,-4.3233,-4.3123,-4.3104,-4.2994,-4.2448,-4.1415,-4.1397,-4.0944,-4.0071,-4.0288,-4.0465,-4.0637,-4.1589,-4.2427,-4.3427,-4.5504,-4.748,-4.8006,-4.8247,-4.8173,-4.7503,-4.6316,-4.472,-4.2419,-3.8062,0.0,-3.3437,0.0,0.0,0.0,0.0,0.0,-4.8668,-4.9357,-5.0188,0.0,-5.2733,0.0,-5.2969,-5.3808,-5.3676,0.0,-4.9715,-4.7551,-4.5759,-4.6352,-4.6403,-4.5614,-4.597,-4.574,-4.4874,-4.4797,-4.4744,-4.471,-4.4202,-4.3864,-4.3702,-4.3627,-4.338,-4.2981,0.0,-4.3246,-4.3663,-4.317,-4.3739,-4.4857,-4.4402,-4.4497,-4.48,-4.4004,-4.3573,-4.3372,-4.3073,-4.254,-4.2096,-4.2752,-4.3207,-4.3538,-4.3538,-4.3505,-4.3662,-4.4342,-4.5461,-4.6709,-4.7884,-4.915,-5.0233,-5.0692,-5.0178,-4.961,-4.961,-4.9225,-4.8875,-4.8875,-4.8875,-4.8746,-4.8379,-4.8306,-4.8198,-4.7887,-4.8126,-4.8089,-4.752,-4.6853,-4.6122,-4.5314,-4.4911,-4.4525,-4.4066,-4.363,-4.3394,-4.3394,-4.3215,-4.3268,-4.3651,-4.3576,-4.3139,-4.2359,-4.2359,-4.1832,-4.0739,-4.1155,-4.1607,-4.2076,-4.2827,-4.365,-4.5817,-4.5984,-4.6225,-4.9086,-4.9306,-4.8334,-4.6408,-4.5195,-4.3248,-3.8842,0.0,-3.2977,-3.2862,-3.3565,-3.4637,-3.6119,0.0,-4.2513,-4.6171,-4.7438,-4.9196,-5.2481,-5.3737,-5.4986,-5.6606,-5.6977,-5.6965,-5.6631,-5.306,-4.9903,-4.7629,-4.7997,-4.7548,-4.5979,-4.6663,-4.6701,-4.5941,-4.6682,-4.655,-4.5553,-4.5482,-4.5309,-4.508,-4.4943,-4.4516,-4.3853,0.0,0.0,-4.3853,-4.3853,-4.427,-4.4895,-4.4895,-4.4895,-4.4819,-4.4118,-4.3756,-4.3624,-4.3805,-4.3756,-4.3636,-4.3805,-4.4037,-4.4254,-4.4206,-4.3889,-4.388,-4.5461,-4.6489,-4.7498,-4.9297,-5.0362,-5.0986,-5.1096,-5.049,-4.9922,-4.9922,-4.9831,-4.9757,-4.9757,-4.9757,-4.95,-4.8618,-4.8471,-4.853,-4.8713,-4.8477,-4.8402,-4.8712,-4.7868,-4.6947,-4.6159,-4.5443,-4.4929,-4.4709,-4.4088,-4.3686,-4.3559,-4.3488,-4.376,-4.4527,-4.4489,-4.4125,-4.336,-4.3342,-4.2612,-4.1117,-4.195,-4.2771,-4.3577,-4.4344,-4.515,-4.8856,-5.0061,-5.0926,-5.0854,-5.1223,-5.0597,-4.6713,-4.4559,0.0,0.0,-3.3837,-3.1762,-3.1081,-3.2307,-3.4816,-3.9194,0.0,0.0,0.0,0.0,-5.2145,0.0,0.0,0.0,0.0,0.0,0.0,0.0,0.0,0.0,-5.0381,-4.9526,-4.8702,-4.7702,-4.7817,-4.7817,-4.7663,-4.7817,-4.7367,-4.6313,-4.6292,-4.5829,-4.4931,-4.4907,-4.4819,-4.4687,0.0,0.0,-4.4687,-4.4687,-4.4762,-4.4895,-4.4895,-4.4895,-4.4876,-4.4743,-4.4662,-4.465,-4.4674,-4.4662,-4.465,-4.4674,-4.4618,-4.4491,-4.4269,-4.4033,-4.4116,-4.5515,-4.6489,-4.7645,-4.9976,-5.1187,-5.1958,-5.2637,-5.2179,-5.1593,-5.1593,-5.1059,-5.0582,-5.0582,-5.0582,-5.0325,-4.9537,-4.9372,-4.9152,-4.8493,-4.8344,-4.8325,-4.8383,-4.8216,-4.7792,-4.6966,-4.6764,-4.614,-4.4801,-4.5114,-4.5096,-4.4437,-4.4875,-4.5219,-4.5384,-4.5365,-4.4963,-4.4123,-4.4162,-4.3743,-4.2777,-4.3066,-4.363,-4.4471,-4.4583,-4.5425,-5.1536,-5.2435,-5.2984,-5.2963,-5.2607,-5.0757,-4.502,0.0,0.0,0.0,-3.1869,-3.0929,-3.0568,-3.2248,0.0,0.0,0.0,0.0,0.0,0.0,0.0,0.0,0.0,0.0,0.0,0.0,0.0,0.0,0.0,0.0,-5.2318,-4.9932,-4.874,-4.8779,-4.8779,-4.8567,-4.8105,-4.8548,-4.827,-4.7284,-4.7201,-4.687,-4.6295,-4.5804,-4.5577,-4.5539,0.0,0.0,-4.4895,-4.4895,-4.4895,-4.4895,-4.4895,-4.4895,-4.4895,-4.4895,-4.4895,-4.4895,-4.4895,-4.5198,-4.5501,-4.5047,-4.4757,-4.4551,-4.4283,-4.4064,-4.435,-4.6544,-4.7443,-4.8378,-5.1316,-5.2344,-5.2729,-5.3115,-5.2582,-5.1995,-5.1995,-5.1701,-5.1426,-5.1426,-5.1426,-5.1041,-4.9812,-4.961,-4.9317,-4.8434,-4.8306,-4.8306,-4.8306,-4.8306,-4.8159,-4.7755,-4.7351,-4.6782,-4.6012,-4.5902,-4.5682,-4.5297,-4.5553,-4.5899,-4.6358,-4.6281,-4.6078,-4.5771,-4.5696,-4.5294,-4.4547,-4.462,-4.5096,-4.5901,-4.5901,-4.6524,-5.3736,-5.4375,-5.4524,-5.4946,-5.3761,-5.063,-4.3474,-4.0519,0.0,0.0,-3.0558,-3.0691,-3.0742,0.0,-3.4249,0.0,-3.813,0.0,0.0,0.0,0.0,0.0,0.0,0.0,0.0,0.0,0.0,0.0,0.0,0.0,-5.3674,-5.0414,-4.8971,-4.9663,-4.9683,-4.9355,-4.8671,-4.9336,-4.9212,-4.8298,-4.8124,-4.7896,-4.7569,-4.6809,-4.6354,-4.6165,0.0,0.0,0.0,-4.4895,-4.4895,-4.4895,-4.4895,-4.4895,-4.4895,-4.4895,-4.5028,-4.5141,-4.4952,-4.5464,-4.6089,-4.5407,-4.5067,-4.4845,-4.4354,-4.4094,-4.458,-4.7482,-4.8306,-4.9058,-5.2341,-5.3185,-5.3185,-5.3185,-5.2729,-5.2252,-5.2252,-5.2252,-5.2252,-5.2252,-5.2252,-5.1738,-5.0143,-4.9867,-4.9499,-4.8471,-4.8306,-4.8306,-4.8306,-4.8306,-4.8306,-4.8306,-4.7718,-4.7278,-4.7113,-4.6691,-4.6342,-4.6177,-4.6268,-4.6653,-4.7333,-4.7179,-4.7087,-4.7056,-4.6885,-4.6462,-4.5772,-4.5791,-4.623,-4.7017,-4.7075,-4.7497,-5.5196,-5.6611,-5.6906,-5.6305,-5.4805,-5.1443,-4.375,0.0,0.0,-3.1635,-3.1019,-3.1583,-3.1589,-3.2372,-3.3788,0.0,0.0,-3.9998,0.0,0.0,0.0,0.0,0.0,0.0,0.0,0.0,0.0,0.0,0.0,0.0,0.0,-5.1895,-5.05,-5.0577,-5.0577,-5.0557,-5.0554,-5.0566,-5.0134,-4.9267,-4.9011,-4.843,-4.7589,-4.7378,-4.6885,-4.6203,0.0,0.0,0.0,-4.4895,-4.4895,-4.4895,-4.4895,-4.4895,-4.4895,-4.4895,-4.5407,-4.5975,-4.516,-4.5464,-4.6184,-4.6108,-4.6057,-4.583,-4.458,-4.4196,-4.4746,-4.7519,-4.8306,-4.9058,-5.2341,-5.3185,-5.3185,-5.3185,-5.313,-5.3096,-5.3096,-5.3096,-5.3096,-5.3096,-5.3096,-5.2582,-5.0967,-5.0692,-5.016,-4.8545,-4.8306,-4.8306,-4.8306,-4.8306,-4.8306,-4.8306,-4.8233,-4.7902,-4.7168,-4.77,-4.7774,-4.7039,-4.7663,-4.8103,-4.8196,-4.8098,-4.7671,-4.6844,-4.6807,-4.6405,-4.5622,-4.5735,-4.6231,-4.7094,-4.7094,-4.7535,-5.4478,-5.6363,-5.7079,-5.6257,-5.3611,-4.9827,-4.458,0.0,-3.6622,-3.2718,-3.2179,-3.2275,-3.1795,-3.2352,-3.3064,0.0,0.0,0.0,0.0,0.0,0.0,0.0,0.0,0.0,0.0,0.0,0.0,0.0,0.0,0.0,0.0,-5.2347,-5.0712,-5.0712,-5.0739,-5.0771,-5.0803,-5.0771,-5.06,-5.025,-5.0017,-4.9704,-4.9315,-4.8147,-4.771,-4.7751,0.0,0.0,0.0,-4.5122,-4.4895,-4.4895,-4.4895,-4.4895,-4.4895,-4.4895,-4.5445,-4.607,-4.5198,-4.5786,-4.6828,-4.6354,-4.6203,-4.6063,-4.5232,-4.4972,-4.5444,-4.7666,-4.8306,-4.9058,-5.2341,-5.3185,-5.3185,-5.3185,-5.3185,-5.3185,-5.3185,-5.3185,-5.3185,-5.3185,-5.3185,-5.2858,-5.172,-5.1518,-5.0967,-4.9315,-4.9077,-4.8893,-4.8379,-4.8306,-4.8306,-4.8306,-4.8306,-4.8177,-4.7846,-4.8122,-4.8159,-4.7828,-4.8122,-4.8267,-4.8228,-4.813,-4.7886,-4.7536,-4.7474,-4.731,-4.7025,-4.7179,-4.742,-4.7751,-4.7809,-4.7975,-5.2746,-5.506,-5.6377,-5.602,-5.2562,-4.8302,0.0,0.0,-3.5981,-3.343,-3.3103,-3.3103,-3.2545,-3.3103,-3.341,0.0,0.0,-3.5372,0.0,0.0,0.0,0.0,0.0,0.0,0.0,0.0,0.0,0.0,0.0,0.0,0.0,-5.2598,-5.074,-5.074,-5.0771,-5.0819,-5.0859,-5.0819,-5.0687,-5.0455,-5.048,-5.0366,-5.0078,-4.9021,-4.8666,0.0,0.0,0.0,0.0,-4.5539,-4.5122,-4.4933,-4.5179,-4.5122,-4.4933,-4.5198,-4.5824,-4.643,-4.5577,-4.6203,-4.7302,-4.6733,-4.6392,-4.6164,-4.5925,-4.5832,-4.623,-4.8163,-4.9205,-5.0288,-5.2598,-5.3185,-5.3185,-5.3185,-5.3185,-5.3185,-5.3185,-5.3185,-5.3185,-5.3185,-5.3185,-5.2949,-5.2142,-5.1995,-5.1444,-4.9849,-4.961,-4.9298,-4.8416,-4.8526,-4.8673,-4.8673,-4.8912,-4.8838,-4.8343,-4.8306,-4.8306,-4.8306,-4.8306,-4.8267,-4.8228,-4.813,-4.807,-4.807,-4.7968,-4.7968,-4.807,-4.8168,-4.8207,-4.8246,-4.8286,-4.8306,-5.0159,-5.2783,-5.4934,-5.5786,-5.2171,-4.7485,0.0,0.0,0.0,-3.343,-3.3583,-3.4186,-3.4186,-3.4891,-3.5192,-3.4321,0.0,0.0,0.0,0.0,0.0,0.0,0.0,0.0,0.0,0.0,0.0,0.0,0.0,0.0,0.0,0.0,-5.0803,-5.0803,-5.0803,-5.0859,-5.0997,-5.0867,-5.0397,-4.9625,-5.023,-5.0059,-4.9243,-4.9958,0.0,0.0,0.0,0.0,0.0,-4.6184,-4.5672,-4.499,-4.5843,-4.5653,-4.5009,-4.5862,-4.6695,-4.7264,-4.6468,-4.6714,-4.7397,-4.7378,-4.6847,-4.6259,-4.6589,-4.6642,-4.7018,-4.9029,-5.1298,-5.317,-5.3185,-5.3185,-5.3185,-5.3185,-5.3185,-5.3185,-5.3185,-5.3185,-5.3185,-5.3185,-5.3185,-5.2949,-5.2142,-5.1995,-5.1444,-4.9849,-4.961,-4.9298,-4.8416,-4.904,-4.9592,-4.9592,-5.0288,-5.0105,-4.8453,-4.8306,-4.8306,-4.8306,-4.8306,-4.8306,-4.8306,-4.8228,-4.8187,-4.8187,-4.807,-4.8052,-4.8187,-4.8187,-4.8228,-4.8306,-4.8306,-4.8306,-4.654,-4.7874,-4.8549,-4.8819,-4.5915,-4.2707,-4.1589,0.0,0.0,-3.4846,-3.4904,-3.4911,-3.4321,-3.5353,-3.5853,-3.4436,-3.5391,0.0,0.0,0.0,0.0,0.0,0.0,0.0,0.0,0.0,0.0,0.0,0.0,0.0,0.0,0.0,-5.0803,-5.0803,-5.099,-5.1043,-5.0997,-5.0961,-5.0755,-5.0417,-5.0577,-5.048,-5.0211,-4.9844,0.0,0.0,0.0,0.0,0.0,-4.5786,-4.5501,-4.5767,-4.5445,-4.5202,-4.5052,-4.5235,-4.5885,-4.6516,-4.5633,-4.5862,-4.6582,-4.6582,-4.5905,-4.5305,-4.6375,-4.7071,-4.7909,-4.9857,-5.1756,-5.3185,-5.3185,-5.3185,-5.3185,-5.3185,-5.3185,-5.3185,-5.3185,-5.3185,-5.3185,-5.3185,-5.3185,-5.3112,-5.2858,-5.2821,-5.2454,-5.1389,-5.1224,-5.093,-5.0105,-5.0251,-5.0417,-5.0417,-5.0655,-5.0362,-4.9279,-4.9206,-4.893,-4.8343,-4.8306,-4.8267,-4.8228,-4.8207,-4.8168,-4.807,-4.811,-4.8168,-4.8187,-4.8247,-4.8267,-4.8306,-4.8306,-4.8306,0.0,-4.4883,-4.519,-4.5518,-4.2805,0.0,0.0,0.0,0.0,0.0,0.0,-3.5692,-3.4853,-3.5795,-3.625,-3.4911,-3.6103,0.0,0.0,0.0,0.0,0.0,0.0,0.0,0.0,0.0,0.0,0.0,0.0,0.0,0.0,0.0,-5.0898,-5.0942,-5.1113,-5.1144,-5.0997,-5.0997,-5.0751,-5.0263,-5.023,-5.0029,-4.9702,0.0,0.0,0.0,0.0,0.0,0.0,-4.5962,-4.552,-4.571,-4.5805,-4.5513,-4.5079,-4.564,-4.6215,-4.6636,-4.6038,-4.6203,-4.6639,-4.6639,-4.5857,-4.5246,-4.7065,-4.8025,-4.8935,-5.1104,-5.2656,-5.3665,-5.3665,-5.3885,-5.4106,-5.4106,-5.4106,-5.4106,-5.4106,-5.4106,-5.4014,-5.372,-5.3665,-5.3573,-5.324,-5.3185,-5.2931,-5.2105,-5.1995,-5.1701,-5.0894,-5.1059,-5.1242,-5.1242,-5.1518,-5.1371,-5.0583,-4.9959,-4.9224,-4.8361,-4.8306,-4.8267,-4.8228,-4.8246,-4.8208,-4.8111,-4.8208,-4.8246,-4.8246,-4.8617,-4.8948,-4.9242,-4.893,-4.8783,0.0,0.0,0.0,0.0,0.0,0.0,0.0,0.0,0.0,0.0,0.0,0.0,-3.5827,-3.6346,-3.6615,-3.5808,-3.7046,0.0,0.0,0.0,0.0,0.0,0.0,0.0,0.0,0.0,0.0,0.0,0.0,0.0,0.0,0.0,0.0,-5.12,-5.1194,-5.1105,-5.0907,-5.0893,-5.0357,-4.9317,-4.9317,-4.8875,-4.8105,0.0,0.0,0.0,0.0,0.0,0.0,-4.6505,-4.5665,-4.5129,-4.6695,-4.6354,-4.5167,-4.679,-4.7409,-4.739,-4.7353,-4.7302,-4.7302,-4.72,-4.6375,-4.5864,-4.8298,-4.9307,-5.0105,-5.2601,-5.3867,-5.4491,-5.4491,-5.5042,-5.5614,-5.5614,-5.5614,-5.5614,-5.5614,-5.5614,-5.5372,-5.4638,-5.4491,-5.4234,-5.3427,-5.3277,-5.3023,-5.2197,-5.2087,-5.1811,-5.1077,-5.161,-5.2087,-5.2087,-5.2747,-5.2876,-5.2068,-5.0583,-4.9335,-4.8453,-4.8343,-4.8306,-4.8306,-4.8306,-4.8306,-4.8306,-4.8361,-4.8416,-4.8489,-4.9279,-5.0068,-5.0784,-4.9958,-4.9629,0.0,0.0,0.0,0.0,0.0,0.0,0.0,0.0,0.0,0.0,0.0,0.0,0.0,-3.8104,-3.8411,-3.7546,0.0,0.0,0.0,0.0,0.0,0.0,0.0,0.0,0.0,0.0,0.0,0.0,0.0,0.0,0.0,0.0,0.0,-5.1276,-5.1225,-5.082,-5.0002,-4.995,-4.9418,-4.8413,-4.8413,-4.8298,-4.8105,0.0,0.0,0.0,0.0,0.0,-4.6686,-4.5742,-4.5506,-4.5786,-4.6285,-4.6177,-4.588,-4.6986,-4.746,-4.744,-4.6733,-4.6468,-4.6303,-4.5284,-4.5159,-4.5783,-4.7866,-4.9431,-5.1004,-5.3427,-5.4693,-5.5317,-5.5317,-5.5467,-5.5614,-5.5614,-5.5614,-5.5614,-5.5614,-5.5614,-5.5559,-5.5335,-5.5317,-5.506,-5.4252,-5.4124,-5.3849,-5.3041,-5.2931,-5.2858,-5.2653,-5.2803,-5.2931,-5.2931,-5.3096,-5.2876,-5.2068,-5.1077,-5.016,-4.9353,-4.8673,-4.8306,-4.8306,-4.8306,-4.8306,-4.8306,-4.8948,-4.9591,-5.0215,-5.0417,-5.0618,-5.0784,-4.9958,-4.9941,0.0,0.0,0.0,0.0,0.0,0.0,0.0,0.0,0.0,0.0,0.0,0.0,0.0,0.0,0.0,0.0,0.0,0.0,0.0,0.0,0.0,0.0,0.0,0.0,0.0,0.0,0.0,0.0,0.0,0.0,0.0,0.0,0.0,0.0,-5.0536,-5.0222,-4.9718,-4.9637,-4.9095,-4.8105,-4.774,-4.7548,-4.7548,-4.7144,0.0,0.0,0.0,0.0,-4.7099,-4.6077,-4.5765,-4.6063,-4.6973,-4.677,-4.6083,-4.749,-4.7478,-4.6752,-4.6649,-4.6291,-4.5754,-4.4994,-4.4978,-4.5823,-4.879,-5.0484,-5.1838,-5.3915,-5.5349,-5.625,-5.625,-5.6526,-5.6783,-5.6716,-5.6693,-5.6693,-5.6693,-5.6693,-5.6583,-5.6216,-5.6143,-5.5776,-5.4601,-5.4711,-5.4675,-5.3867,-5.4069,-5.4179,-5.3812,-5.3757,-5.361,-5.3243,-5.3185,-5.3023,-5.2582,-5.1811,-5.0839,-4.9665,-4.8783,-4.8306,-4.8306,-4.8306,-4.8489,-4.8893,-4.9719,-5.0545,-5.1353,-5.1353,-5.1536,-5.1885,-5.1077,-5.0912,0.0,0.0,0.0,0.0,0.0,0.0,0.0,0.0,0.0,0.0,0.0,0.0,0.0,-3.8027,0.0,0.0,0.0,0.0,0.0,0.0,0.0,0.0,0.0,0.0,0.0,0.0,0.0,0.0,0.0,0.0,0.0,0.0,0.0,0.0,-4.978,-4.9564,-4.9497,-4.9297,-4.8692,-4.7721,-4.7028,-4.6701,-4.6682,-4.6067,0.0,0.0,0.0,0.0,-4.771,-4.6576,-4.593,-4.5846,-4.7623,-4.727,-4.6008,-4.7975,-4.7589,-4.6134,-4.6723,-4.6346,-4.557,-4.5458,-4.5642,-4.6576,-5.0192,-5.1933,-5.3009,-5.4578,-5.6068,-5.7206,-5.7206,-5.7704,-5.8174,-5.8042,-5.802,-5.7997,-5.7997,-5.7997,-5.7795,-5.7134,-5.6987,-5.651,-5.5023,-5.5335,-5.55,-5.4693,-5.5152,-5.5335,-5.4675,-5.4583,-5.4271,-5.3482,-5.339,-5.3335,-5.3203,-5.2454,-5.1428,-5.0051,-4.915,-4.8691,-4.8691,-4.8802,-4.926,-5.0143,-5.082,-5.1555,-5.2362,-5.2234,-5.2527,-5.3167,-5.2362,-5.2068,-4.0496,-4.1497,-4.2162,-4.0689,0.0,0.0,0.0,0.0,0.0,0.0,0.0,0.0,0.0,0.0,0.0,0.0,0.0,0.0,0.0,0.0,0.0,0.0,0.0,0.0,0.0,0.0,0.0,0.0,0.0,0.0,0.0,0.0,0.0,0.0,0.0,-4.9254,-4.8516,-4.773,-4.6873,-4.5979,-4.5864,-4.5806,-4.5825,-4.6432,-4.6836,0.0,0.0,-4.6646,-4.6818,-4.5737,-4.5034,-4.4766,-4.6076,-4.617,-4.5817,-4.8041,-4.8112,-4.6968,-4.6385,-4.6062,-4.588,-4.5644,-4.7383,-4.9789,-5.0879,-5.3155,-5.5551,-5.6578,-5.7516,-5.8186,-5.8186,-5.8172,-5.8197,-5.8174,-5.8065,-5.7997,-5.7997,-5.7997,-5.796,-5.7831,-5.7813,-5.7519,-5.6602,-5.6547,-5.6345,-5.5537,-5.5522,-5.5556,-5.5449,-5.5409,-5.5097,-5.4308,-5.4216,-5.394,-5.3259,-5.2454,-5.1885,-5.1646,-5.0875,-5.0417,-5.0417,-5.1059,-5.1811,-5.2637,-5.2763,-5.3243,-5.4032,-5.3353,-5.3096,-5.3167,-5.2362,-5.2362,-4.0496,-4.1073,-4.1623,-4.1277,0.0,0.0,0.0,0.0,0.0,0.0,0.0,0.0,0.0,0.0,0.0,0.0,0.0,0.0,0.0,0.0,0.0,0.0,0.0,0.0,0.0,0.0,0.0,0.0,0.0,0.0,0.0,0.0,0.0,0.0,0.0,-4.7722,-4.6844,-4.641,-4.599,-4.5594,-4.5594,-4.5594,-4.5614,-4.6009,-4.6451,-4.6865,0.0,-4.6368,-4.6762,-4.6077,-4.5653,-4.5502,-4.6397,-4.6302,-4.5726,-4.6264,-4.7005,-4.7531,-4.606,-4.5885,-4.6319,-4.6626,-4.8284,-5.0486,-5.2122,-5.4196,-5.6284,-5.7666,-5.8254,-5.8462,-5.8415,-5.8349,-5.8264,-5.8129,-5.8042,-5.7997,-5.7997,-5.7997,-5.7997,-5.7997,-5.7997,-5.774,-5.695,-5.7171,-5.7171,-5.6363,-5.662,-5.673,-5.6308,-5.6253,-5.5941,-5.5133,-5.4656,-5.4252,-5.3885,-5.3115,-5.2289,-5.1408,-5.1408,-5.1444,-5.1444,-5.2637,-5.3463,-5.3849,-5.4289,-5.4454,-5.4399,-5.4032,-5.3628,-5.3185,-5.3261,-5.3482,-4.0496,-4.065,-4.095,-4.1643,0.0,0.0,0.0,0.0,0.0,0.0,0.0,0.0,0.0,0.0,0.0,0.0,0.0,0.0,0.0,0.0,0.0,0.0,0.0,0.0,0.0,0.0,0.0,0.0,0.0,0.0,0.0,0.0,0.0,0.0,0.0,0.0,-4.5913,-4.571,-4.5594,-4.5594,-4.5594,-4.5594,-4.5614,-4.5806,-4.6278,-4.6865,-4.6155,-4.6242,-4.6819,-4.6279,-4.599,-4.5957,-4.6441,-4.6423,-4.6051,-4.5087,-4.6194,-4.7958,-4.6218,-4.6177,-4.7069,-4.8042,-4.9537,-5.1398,-5.372,-5.5482,-5.698,-5.8324,-5.8635,-5.8529,-5.844,-5.8393,-5.8305,-5.8106,-5.802,-5.7997,-5.7997,-5.7997,-5.7997,-5.7997,-5.7997,-5.7795,-5.7189,-5.7593,-5.7795,-5.7171,-5.7611,-5.7776,-5.7171,-5.7079,-5.6767,-5.5959,-5.5335,-5.4895,-5.4693,-5.4124,-5.3243,-5.1995,-5.2491,-5.2821,-5.2821,-5.4197,-5.4968,-5.4968,-5.5574,-5.5574,-5.4968,-5.4583,-5.4179,-5.3775,-5.4197,-5.4491,-4.0496,-4.1085,-4.1712,-4.1769,-4.0719,0.0,-4.3508,-4.3008,0.0,-4.372,0.0,0.0,0.0,0.0,0.0,0.0,0.0,0.0,0.0,0.0,0.0,0.0,0.0,0.0,0.0,0.0,0.0,0.0,0.0,0.0,0.0,0.0,0.0,0.0,0.0,0.0,-4.6817,-4.599,-4.5594,-4.5594,-4.5594,-4.5594,-4.5633,-4.6432,-4.6827,-4.6885,-4.6695,-4.6656,-4.6636,-4.5548,-4.4952,-4.4738,-4.4844,-4.5866,-4.7168,-4.6086,-4.6891,-4.8314,-4.7243,-4.7395,-4.8318,-4.9814,-5.1884,-5.4093,-5.5714,-5.7291,-5.8528,-5.8661,-5.8677,-5.8656,-5.8511,-5.8356,-5.8197,-5.8197,-5.8088,-5.7997,-5.7997,-5.7997,-5.7997,-5.7997,-5.7997,-5.7978,-5.7923,-5.796,-5.7978,-5.7923,-5.796,-5.7978,-5.7923,-5.7905,-5.7611,-5.6804,-5.6675,-5.6326,-5.5574,-5.5467,-5.5394,-5.5244,-5.5299,-5.5335,-5.5335,-5.618,-5.6638,-5.6638,-5.6693,-5.6693,-5.662,-5.5133,-5.4748,-5.5409,-5.4711,-5.4803,-4.0496,-4.1527,-4.2354,-4.1258,-4.0912,0.0,0.0,-4.5009,-4.4335,-4.4979,-4.6624,0.0,0.0,0.0,0.0,0.0,0.0,0.0,0.0,0.0,0.0,0.0,0.0,0.0,0.0,0.0,0.0,0.0,0.0,0.0,0.0,0.0,0.0,0.0,0.0,0.0,0.0,-4.5768,-4.5594,-4.5594,-4.5594,-4.5594,-4.5614,-4.5932,-4.6086,-4.6086,-4.605,-4.5937,-4.5801,-4.5273,-4.5003,-4.495,-4.5357,-4.6178,-4.7095,-4.669,-4.7644,-4.8991,-4.8074,-4.8307,-4.9268,-5.0804,-5.2555,-5.4391,-5.5938,-5.7418,-5.8574,-5.8696,-5.8612,-5.8505,-5.844,-5.8375,-5.8264,-5.8129,-5.8042,-5.7997,-5.7997,-5.7997,-5.7997,-5.7997,-5.7997,-5.7997,-5.7997,-5.7997,-5.7997,-5.7997,-5.7997,-5.7997,-5.7997,-5.7997,-5.7886,-5.7574,-5.7097,-5.6473,-5.5666,-5.6051,-5.6345,-5.6345,-5.6345,-5.6345,-5.6345,-5.7116,-5.7556,-5.7556,-5.7556,-5.7299,-5.6804,-5.6198,-5.5794,-5.5614,-5.5794,-5.6069,-4.0912,-4.1585,-4.2124,-4.1477,0.0,0.0,-4.6374,-4.6413,-4.6056,-4.7663,-4.8971,0.0,0.0,0.0,0.0,0.0,0.0,0.0,0.0,0.0,0.0,0.0,0.0,0.0,0.0,0.0,0.0,0.0,0.0,0.0,0.0,0.0,0.0,0.0,0.0,0.0,0.0,-4.5594,-4.5594,-4.5594,-4.5594,-4.5594,-4.5594,-4.5594,-4.5594,-4.5614,-4.5522,-4.5429,-4.5292,-4.5095,-4.4955,-4.499,-4.5632,-4.6351,-4.703,-4.7293,-4.8288,-4.9415,-4.8814,-4.9002,-4.9831,-5.1875,-5.3248,-5.4466,-5.6455,-5.7744,-5.8511,-5.859,-5.8523,-5.8393,-5.8349,-5.8349,-5.8264,-5.8042,-5.7997,-5.7997,-5.7997,-5.7997,-5.7997,-5.7997,-5.7997,-5.7997,-5.7997,-5.7997,-5.7997,-5.7997,-5.7997,-5.7997,-5.7997,-5.7997,-5.7997,-5.7997,-5.7519,-5.695,-5.64,-5.6859,-5.7189,-5.7189,-5.7189,-5.7189,-5.7189,-5.7703,-5.7997,-5.7997,-5.7997,-5.7721,-5.7189,-5.6932,-5.6657,-5.6345,-5.6657,-5.695,-4.1788,-4.1181,-4.0958,0.0,0.0,0.0,-4.6951,-4.6817,-4.7076,-5.2164,0.0,-5.0712,-5.0731,0.0,0.0,0.0,0.0,0.0,0.0,0.0,0.0,0.0,0.0,0.0,0.0,0.0,0.0,0.0,0.0,0.0,0.0,0.0,0.0,0.0,0.0,0.0,0.0,-4.5594,-4.5594,-4.5594,-4.5594,-4.5594,-4.5594,-4.5594,-4.5594,-4.5586,-4.539,-4.5302,-4.5282,-4.4936,-4.4685,-4.4576,-4.5397,-4.6242,-4.7124,-4.7913,-4.8758,-4.9509,-4.9509,-4.9509,-5.0022,-5.3099,-5.4091,-5.4652,-5.7594,-5.8511,-5.8468,-5.8415,-5.8393,-5.8371,-5.8242,-5.8197,-5.8174,-5.802,-5.7997,-5.7997,-5.7997,-5.7997,-5.8015,-5.8015,-5.8015,-5.7997,-5.7997,-5.7997,-5.7997,-5.7997,-5.7997,-5.7997,-5.7997,-5.7997,-5.7997,-5.7997,-5.7997,-5.7997,-5.7997,-5.7997,-5.7997,-5.7997,-5.7997,-5.7997,-5.7997,-5.7997,-5.7997,-5.7997,-5.7997,-5.7997,-5.7997,-5.7207,-5.7226,-5.7978,-5.7189,-5.7244,-4.0893,0.0,0.0,-4.2354,0.0,0.0,0.0,-4.7721,0.0,0.0,0.0,0.0,0.0,0.0,0.0,0.0,0.0,0.0,0.0,0.0,0.0,0.0,0.0,0.0,0.0,0.0,0.0,0.0,0.0,0.0,0.0,0.0,0.0,0.0,0.0,0.0,0.0,0.0,-4.5594,-4.5594,-4.5594,-4.5594,-4.5594,-4.5594,-4.5594,-4.5586,-4.539,-4.526,-4.514,-4.4745,-4.4889,-4.5435,-4.6279,-4.7124,-4.795,-4.8795,-4.9283,-4.9509,-4.9509,-4.9509,-5.0022,-5.3099,-5.4037,-5.454,-5.7573,-5.8403,-5.829,-5.8371,-5.8327,-5.8242,-5.8219,-5.8197,-5.8174,-5.802,-5.7997,-5.8162,-5.8731,-5.8859,-5.9024,-5.9593,-5.9245,-5.8859,-5.8859,-5.8382,-5.7997,-5.7997,-5.8492,-5.8859,-5.8859,-5.8859,-5.8639,-5.8052,-5.7997,-5.7997,-5.7997,-5.7997,-5.7997,-5.7997,-5.7997,-5.7997,-5.7997,-5.7997,-5.7997,-5.7997,-5.7997,-5.7997,-5.7997,-5.7758,-5.7776,-5.7997,-5.7758,-5.7776,-4.1728,0.0,0.0,-4.3835,-4.5615,-4.7778,-4.9269,0.0,0.0,0.0,0.0,0.0,0.0,0.0,0.0,0.0,0.0,0.0,0.0,0.0,0.0,0.0,0.0,0.0,0.0,0.0,0.0,0.0,0.0,0.0,0.0,0.0,0.0,0.0,0.0,0.0,0.0,0.0,0.0,-4.5094,-4.5441,-4.5594,-4.5594,-4.5594,-4.5594,-4.5586,-4.5331,-4.5087,-4.4871,-4.4931,-4.5266,-4.581,-4.7012,-4.7763,-4.8307,-4.9171,-4.9509,-4.9509,-4.9509,-4.989,-5.0818,-5.3304,-5.4466,-5.5339,-5.7756,-5.8422,-5.8312,-5.8308,-5.8264,-5.8197,-5.8133,-5.8368,-5.8584,-5.8515,-5.8492,-5.8712,-5.952,-5.9661,-5.9808,-6.0309,-5.9758,-5.9294,-5.9606,-5.9024,-5.8584,-5.8914,-5.9373,-5.9661,-5.9661,-5.9386,-5.9001,-5.8529,-5.8198,-5.7997,-5.7997,-5.829,-5.8345,-5.8015,-5.8309,-5.8327,-5.8015,-5.7997,-5.7997,-5.7997,-5.7997,-5.7997,-5.7997,-5.7997,-5.7997,-5.7997,-5.7997,-5.7997,0.0,0.0,0.0,-4.6297,-4.7682,0.0,0.0,0.0,0.0,0.0,0.0,0.0,0.0,0.0,0.0,0.0,0.0,0.0,0.0,0.0,0.0,0.0,0.0,0.0,0.0,0.0,0.0,0.0,0.0,0.0,0.0,0.0,0.0,0.0,0.0,0.0,0.0,0.0,0.0,0.0,-4.519,-4.5594,-4.5594,-4.5594,-4.5586,-4.5559,-4.5237,-4.4883,-4.4612,-4.5298,-4.5693,-4.6008,-4.7496,-4.8176,-4.8401,-4.9208,-4.9509,-4.9527,-4.9662,-5.063,-5.2083,-5.3755,-5.5249,-5.666,-5.8053,-5.8489,-5.8446,-5.8246,-5.8252,-5.8285,-5.813,-5.8712,-5.9313,-5.9386,-5.9349,-5.9515,-6.0346,-6.0511,-6.0529,-6.0603,-5.9979,-5.9643,-6.0382,-5.985,-5.957,-6.0401,-6.0511,-6.0493,-6.0419,-5.9753,-5.9276,-5.9203,-5.8547,-5.8143,-5.8217,-5.8896,-5.9006,-5.8253,-5.8841,-5.8877,-5.8143,-5.8033,-5.7997,-5.7997,-5.7997,-5.7997,-5.7997,-5.7997,-5.7997,-5.7997,-5.807,-5.807,0.0,-4.3662,0.0,0.0,-4.9,0.0,0.0,0.0,0.0,0.0,0.0,0.0,0.0,0.0,0.0,0.0,0.0,0.0,0.0,0.0,0.0,0.0,0.0,0.0,0.0,0.0,0.0,0.0,0.0,0.0,0.0,0.0,0.0,0.0,0.0,0.0,-4.3104,-4.3893,-4.4297,0.0,-4.519,-4.5594,-4.5594,-4.5594,-4.5513,-4.5342,-4.5184,-4.5057,-4.4962,-4.4821,-4.5627,-4.6989,-4.7164,-4.8063,-4.9246,-4.9434,-4.9509,-4.9662,-5.0893,-5.1518,-5.2253,-5.5007,-5.6065,-5.6542,-5.8032,-5.8465,-5.8375,-5.8242,-5.8639,-5.9113,-5.8974,-5.9557,-6.0309,-6.0933,-6.0603,-6.0364,-6.1172,-6.1337,-6.152,-6.2163,-6.163,-6.1135,-6.13,-6.0676,-6.0419,-6.1208,-6.1337,-6.1117,-6.0493,-6.0254,-5.9905,-5.9258,-5.9038,-5.9208,-5.9832,-6.0052,-6.007,-5.9887,-5.9441,-5.9111,-5.8946,-5.8345,-5.7997,-5.7997,-5.7997,-5.7997,-5.7997,-5.7997,-5.7997,-5.8015,-5.8657,-5.8602,0.0,0.0,0.0,0.0,0.0,0.0,0.0,0.0,0.0,0.0,0.0,0.0,0.0,0.0,0.0,0.0,0.0,0.0,0.0,0.0,0.0,0.0,0.0,0.0,0.0,0.0,0.0,0.0,0.0,0.0,0.0,0.0,0.0,0.0,0.0,0.0,-4.1862,-4.2681,-4.3104,-4.3124,-4.4374,-4.521,-4.5594,-4.5594,-4.5495,-4.5302,-4.5229,-4.5098,-4.4969,-4.5153,-4.5983,-4.7189,-4.7469,-4.8363,-4.9509,-4.9509,-4.9509,-4.9718,-5.1272,-5.2272,-5.3304,-5.564,-5.6805,-5.7462,-5.8315,-5.8529,-5.844,-5.8308,-5.8876,-5.9439,-5.9255,-6.0089,-6.108,-6.1502,-6.1282,-6.119,-6.1998,-6.2181,-6.231,-6.2707,-6.2144,-6.1722,-6.2108,-6.1832,-6.1704,-6.2108,-6.2181,-6.2034,-6.1612,-6.1208,-6.0805,-6.0401,-6.0015,-5.9942,-6.0364,-6.075,-6.0805,-6.0419,-6.0382,-6.0181,-5.9771,-5.9373,-5.8786,-5.8015,-5.7997,-5.8198,-5.8584,-5.8584,-5.8767,-5.9171,-5.9593,-5.9557,0.0,0.0,0.0,0.0,0.0,0.0,0.0,0.0,0.0,0.0,0.0,0.0,0.0,0.0,0.0,0.0,0.0,0.0,0.0,0.0,0.0,0.0,0.0,0.0,0.0,0.0,0.0,0.0,0.0,0.0,0.0,0.0,0.0,0.0,0.0,-4.0612,-4.0496,-4.1354,-4.1788,-4.1808,-4.3355,-4.447,-4.5171,-4.5306,-4.5369,-4.5342,-4.5322,-4.5145,-4.4933,-4.554,-4.6296,-4.7112,-4.774,-4.8607,-4.9509,-4.9509,-4.9509,-4.9756,-5.1538,-5.2988,-5.4354,-5.6178,-5.7522,-5.8508,-5.8635,-5.8593,-5.8502,-5.8559,-5.9165,-5.9743,-5.964,-6.0713,-6.1814,-6.1814,-6.1814,-6.1998,-6.2677,-6.278,-6.278,-6.278,-6.2273,-6.2016,-6.2695,-6.278,-6.278,-6.278,-6.278,-6.2743,-6.2622,-6.2016,-6.1594,-6.1594,-6.1006,-6.0658,-6.0805,-6.1429,-6.152,-6.086,-6.13,-6.13,-6.0639,-6.0474,-5.9703,-5.8235,-5.8217,-5.8474,-5.8982,-5.8982,-5.9428,-6.0199,-6.0346,-6.0401,0.0,0.0,0.0,0.0,0.0,0.0,0.0,0.0,0.0,0.0,0.0,0.0,0.0,0.0,0.0,0.0,0.0,0.0,0.0,0.0,0.0,0.0,0.0,0.0,0.0,0.0,0.0,0.0,0.0,0.0,0.0,0.0,-4.0779,-4.07,-4.0591,0.0,-4.0496,-4.1354,-4.1788,-4.1808,-4.2797,-4.3316,-4.3451,-4.4162,-4.4865,-4.5559,-4.539,-4.5263,-4.522,-4.5026,-4.5866,-4.7248,-4.7197,-4.8119,-4.9509,-4.9509,-4.9509,-4.9875,-5.2673,-5.374,-5.441,-5.7279,-5.832,-5.8437,-5.8489,-5.8465,-5.8522,-5.9112,-5.984,-6.0585,-6.1147,-6.1961,-6.2658,-6.2658,-6.2658,-6.2652,-6.2762,-6.278,-6.278,-6.278,-6.2713,-6.2652,-6.2762,-6.278,-6.278,-6.278,-6.278,-6.2567,-6.1851,-6.1667,-6.1594,-6.1594,-6.1502,-6.1722,-6.2413,-6.2585,-6.2578,-6.2493,-6.1924,-6.1539,-6.1429,-6.0768,-5.9979,-5.9056,-5.9038,-5.8767,-5.8162,-5.8162,-5.8565,-5.9368,-6.0089,-6.0401,0.0,0.0,0.0,0.0,0.0,0.0,0.0,0.0,0.0,0.0,0.0,0.0,0.0,0.0,0.0,0.0,0.0,0.0,0.0,0.0,0.0,0.0,0.0,0.0,0.0,0.0,0.0,0.0,0.0,0.0,-4.0796,-4.075,-4.0701,-4.0591,-4.0519,0.0,-4.0496,-4.0873,-4.1316,-4.1788,-4.1681,-4.2143,-4.3104,-4.347,-4.4085,-4.4893,-4.5293,-4.541,-4.5292,-4.5145,-4.5675,-4.6617,-4.7,-4.7828,-4.8833,-4.9321,-4.9427,-4.9781,-5.2916,-5.3889,-5.4256,-5.7457,-5.84,-5.8327,-5.8418,-5.8688,-5.902,-5.9324,-6.0296,-6.1316,-6.1551,-6.1851,-6.2236,-6.267,-6.2475,-6.2126,-6.2126,-6.2493,-6.278,-6.278,-6.278,-6.278,-6.278,-6.278,-6.278,-6.278,-6.278,-6.2652,-6.2328,-6.2273,-6.2273,-6.2273,-6.2273,-6.242,-6.2762,-6.278,-6.278,-6.278,-6.2475,-6.2273,-6.2273,-6.1502,-6.0694,-5.9905,-5.9423,-5.9019,-5.8676,-5.9116,-5.9758,-6.0566,-6.1374,-6.1741,0.0,0.0,0.0,0.0,0.0,0.0,0.0,0.0,0.0,0.0,0.0,0.0,0.0,0.0,0.0,0.0,0.0,0.0,0.0,0.0,0.0,0.0,0.0,0.0,0.0,0.0,0.0,0.0,0.0,0.0,-4.07,-4.07,-4.0633,-4.0496,-4.0496,-4.0496,-4.0496,-4.0496,-4.0843,-4.147,-4.0804,-4.1189,-4.245,-4.2662,-4.322,-4.4047,-4.5133,-4.5467,-4.5241,-4.5241,-4.5506,-4.5968,-4.6802,-4.7521,-4.8181,-4.9027,-4.9508,-5.014,-5.2976,-5.4053,-5.4633,-5.75,-5.8312,-5.8174,-5.8305,-5.8813,-5.9348,-5.9348,-6.0359,-6.1476,-6.1563,-6.1594,-6.1796,-6.2622,-6.2346,-6.1906,-6.1906,-6.2218,-6.2511,-6.2511,-6.2677,-6.275,-6.2548,-6.2677,-6.278,-6.278,-6.278,-6.278,-6.278,-6.278,-6.278,-6.278,-6.278,-6.278,-6.278,-6.278,-6.278,-6.278,-6.278,-6.2713,-6.2511,-6.1924,-6.1208,-6.0419,-5.9813,-5.9386,-5.9184,-6.0015,-6.0805,-6.1612,-6.2218,-6.2511,0.0,0.0,0.0,0.0,0.0,0.0,0.0,0.0,0.0,0.0,0.0,0.0,0.0,0.0,0.0,0.0,0.0,0.0,0.0,0.0,0.0,0.0,0.0,0.0,0.0,0.0,0.0,0.0,0.0,0.0,-4.07,-4.07,-4.0633,-4.0496,-4.0496,-4.0496,-4.0496,-4.0496,-4.0516,-4.0573,-4.0516,-4.0554,-4.0669,-4.1489,-4.2335,-4.3258,-4.4902,-4.541,-4.5114,-4.5114,-4.5268,-4.5604,-4.6426,-4.7154,-4.7826,-4.8627,-4.9893,-5.1417,-5.3006,-5.4513,-5.6061,-5.7671,-5.8111,-5.8042,-5.8174,-5.8676,-5.9208,-5.9208,-5.9813,-6.0639,-6.1392,-6.1594,-6.1796,-6.2622,-6.2762,-6.275,-6.275,-6.2181,-6.1649,-6.1649,-6.2291,-6.2567,-6.1796,-6.2291,-6.278,-6.278,-6.278,-6.278,-6.278,-6.278,-6.278,-6.278,-6.278,-6.278,-6.278,-6.278,-6.278,-6.278,-6.278,-6.2475,-6.1686,-6.1612,-6.1208,-6.0419,-6.0364,-5.996,-5.9184,-6.0015,-6.0805,-6.1594,-6.163,-6.1649,0.0,0.0,0.0,0.0,0.0,0.0,0.0,0.0,0.0,0.0,0.0,0.0,0.0,0.0,0.0,0.0,0.0,0.0,0.0,0.0,0.0,0.0,0.0,0.0,0.0,0.0,0.0,0.0,0.0,0.0,-4.0576,-4.0576,-4.0561,-4.0496,-4.0496,-4.0496,-4.0496,-4.0496,-4.0496,-4.0496,-4.046,-4.046,-4.0535,-4.1316,-4.211,-4.2975,-4.4135,-4.4863,-4.5229,-4.5173,-4.5047,-4.5007,-4.6407,-4.6959,-4.7161,-4.8983,-5.0286,-5.1454,-5.3889,-5.532,-5.6366,-5.8039,-5.8476,-5.8459,-5.8741,-5.9011,-5.9404,-6.0456,-6.0951,-6.1355,-6.2163,-6.1998,-6.1539,-6.1318,-6.1263,-6.1263,-6.1263,-6.0639,-6.0382,-6.1392,-6.1429,-6.1172,-6.0878,-6.1502,-6.2034,-6.2034,-6.2475,-6.278,-6.278,-6.278,-6.278,-6.278,-6.278,-6.278,-6.278,-6.278,-6.278,-6.278,-6.278,-6.2652,-6.2383,-6.1869,-6.1447,-6.1172,-6.1172,-6.0768,-5.9979,-6.0786,-6.1318,-6.1612,-6.2126,-6.2383,-4.12,0.0,0.0,0.0,0.0,0.0,0.0,0.0,0.0,0.0,0.0,0.0,0.0,0.0,0.0,0.0,0.0,0.0,0.0,0.0,0.0,0.0,0.0,0.0,0.0,0.0,0.0,0.0,0.0,0.0,-4.0496,-4.0496,-4.0496,-4.0496,-4.0496,-4.0496,-4.0496,-4.0496,-4.0481,-4.0476,-4.0419,-4.0419,-4.0468,-4.0967,-4.1662,-4.2506,-4.3302,-4.4218,-4.5135,-4.5106,-4.5022,-4.5012,-4.6459,-4.7016,-4.7243,-4.9437,-5.1024,-5.2401,-5.4648,-5.6108,-5.7195,-5.8354,-5.8563,-5.8495,-5.9044,-5.9386,-5.9832,-6.0896,-6.1392,-6.1722,-6.2254,-6.2199,-6.1869,-6.1337,-6.0805,-6.0474,-6.075,-5.996,-5.9515,-6.0584,-6.0584,-6.0309,-6.0052,-6.0658,-6.1282,-6.1557,-6.2053,-6.2493,-6.2762,-6.278,-6.278,-6.278,-6.278,-6.278,-6.278,-6.278,-6.278,-6.278,-6.278,-6.2695,-6.242,-6.1887,-6.1594,-6.1594,-6.1594,-6.1465,-6.1208,-6.1741,-6.1998,-6.2016,-6.2567,-6.2677,0.0,0.0,0.0,0.0,0.0,0.0,0.0,0.0,0.0,0.0,0.0,0.0,0.0,0.0,0.0,0.0,0.0,0.0,0.0,0.0,0.0,0.0,0.0,0.0,0.0,0.0,0.0,0.0,0.0,-4.0573,-4.0535,-4.0516,-4.0496,-4.0496,-4.0496,-4.0496,-4.0496,-4.0496,-4.0476,-4.0405,-4.0405,-4.0405,-4.0405,-4.0405,-4.0927,-4.1876,-4.2516,-4.3566,-4.4808,-4.487,-4.5197,-4.5704,-4.6569,-4.7316,-4.8127,-4.9891,-5.2096,-5.4343,-5.5235,-5.6912,-5.8628,-5.8628,-5.8348,-5.8166,-5.8988,-5.9777,-6.0382,-6.0456,-6.1025,-6.1594,-6.163,-6.2218,-6.278,-6.2762,-6.1575,-6.0639,-6.1392,-6.0346,-5.9239,-5.9239,-5.9869,-6.0126,-5.9313,-5.9869,-6.0639,-6.1429,-6.1575,-6.1887,-6.2688,-6.278,-6.278,-6.278,-6.278,-6.278,-6.278,-6.278,-6.278,-6.278,-6.278,-6.2456,-6.1667,-6.163,-6.163,-6.163,-6.163,-6.2016,-6.278,-6.278,-6.278,-6.278,-6.278,-6.2383,-4.0669,0.0,0.0,0.0,0.0,0.0,0.0,0.0,0.0,0.0,0.0,0.0,0.0,0.0,0.0,0.0,0.0,0.0,0.0,0.0,0.0,0.0,0.0,0.0,0.0,0.0,0.0,0.0,0.0,-4.2104,-4.147,-4.0835,-4.0496,-4.0496,-4.0496,-4.0496,-4.0496,-4.0496,-4.0476,-4.0405,-4.0307,-4.0316,-4.0405,-4.0307,-4.1083,-4.2535,-4.2718,-4.364,-4.5014,-4.5091,-4.5454,-4.6036,-4.6814,-4.7504,-4.8318,-5.0558,-5.2583,-5.4453,-5.6215,-5.7796,-5.9084,-5.936,-5.9008,-5.8674,-6.0082,-6.0056,-5.9881,-6.1649,-6.1887,-6.1722,-6.2328,-6.264,-6.2658,-6.2071,-6.1594,-6.1172,-6.0805,-6.0382,-6.007,-6.007,-5.9795,-5.9459,-5.9239,-5.9368,-5.9813,-6.0621,-6.1227,-6.1887,-6.2688,-6.278,-6.278,-6.278,-6.278,-6.278,-6.278,-6.278,-6.278,-6.278,-6.278,-6.2688,-6.2493,-6.2475,-6.2475,-6.2475,-6.2475,-6.2585,-6.278,-6.278,-6.278,-6.278,-6.278,-6.2695,-4.065,-4.0496,0.0,0.0,0.0,0.0,0.0,-4.4489,0.0,0.0,0.0,0.0,0.0,0.0,0.0,0.0,0.0,0.0,0.0,0.0,0.0,0.0,0.0,0.0,0.0,0.0,0.0,0.0,-4.3605,-4.3374,-4.2874,-4.2047,-4.1412,-4.1046,-4.0689,-4.0496,-4.0496,-4.0496,-4.0476,-4.0405,-4.0325,-4.0325,-4.0405,-4.0325,-4.1052,-4.239,-4.2763,-4.3637,-4.4822,-4.5589,-4.6028,-4.6319,-4.7118,-4.8073,-4.9277,-5.1777,-5.3732,-5.5413,-5.7251,-5.8493,-5.9307,-5.9416,-5.9006,-5.8671,-5.9949,-5.9794,-5.9625,-6.1722,-6.2199,-6.2218,-6.2695,-6.278,-6.2695,-6.2218,-6.1832,-6.1465,-6.1006,-6.0896,-6.0694,-6.0034,-5.9515,-5.9093,-5.8767,-5.8712,-5.9098,-6.0236,-6.0805,-6.1502,-6.2658,-6.278,-6.278,-6.278,-6.278,-6.278,-6.278,-6.278,-6.278,-6.278,-6.278,-6.278,-6.278,-6.278,-6.278,-6.278,-6.278,-6.278,-6.278,-6.278,-6.278,-6.278,-6.278,-6.278,-4.0573,-4.0496,-4.0496,0.0,0.0,0.0,-4.3355,-4.3393,-4.3797,0.0,0.0,0.0,0.0,0.0,0.0,0.0,0.0,0.0,0.0,0.0,0.0,0.0,0.0,0.0,0.0,0.0,-4.649,-4.4855,-4.4643,-4.4547,-4.4451,-4.3662,-4.2874,-4.2096,-4.1335,-4.0823,-4.065,-4.0746,-4.0668,-4.0405,-4.0405,-4.0405,-4.0405,-4.0481,-4.1042,-4.1981,-4.2854,-4.3682,-4.4566,-4.622,-4.6781,-4.6678,-4.7608,-4.8942,-5.0638,-5.3066,-5.5039,-5.6709,-5.8098,-5.8935,-5.9363,-5.9121,-5.8661,-5.8367,-5.9181,-5.9403,-5.9661,-6.1282,-6.2254,-6.278,-6.278,-6.278,-6.278,-6.278,-6.2254,-6.1722,-6.1722,-6.1722,-6.1282,-5.9753,-5.9386,-5.9074,-5.8272,-5.8125,-5.8657,-6.0181,-6.0493,-6.108,-6.2597,-6.278,-6.278,-6.278,-6.278,-6.278,-6.278,-6.2872,-6.2915,-6.2798,-6.2872,-6.2915,-6.278,-6.278,-6.278,-6.278,-6.2915,-6.2952,-6.2952,-6.2952,-6.2872,-6.278,-6.278,-6.278,0.0,0.0,0.0,0.0,0.0,0.0,-4.1131,-4.1662,-4.2231,0.0,0.0,0.0,0.0,0.0,0.0,0.0,0.0,0.0,0.0,0.0,0.0,0.0,0.0,0.0,0.0,0.0,-4.8471,-4.7432,-4.6759,-4.6086,-4.5383,-4.4528,-4.3989,-4.3816,-4.3643,-4.2912,-4.1566,-4.2239,-4.1852,-4.0405,-4.0405,-4.0405,-4.0424,-4.1067,-4.1906,-4.2893,-4.3701,-4.4547,-4.5441,-4.6471,-4.7242,-4.7847,-4.8611,-4.9907,-5.1476,-5.2626,-5.4543,-5.6695,-5.7467,-5.8494,-5.9467,-5.9363,-5.8806,-5.8371,-5.9415,-5.9936,-6.0511,-6.2126,-6.2695,-6.278,-6.278,-6.278,-6.278,-6.278,-6.2695,-6.2585,-6.2585,-6.2585,-6.2291,-6.1318,-6.0621,-5.9924,-5.9093,-5.8964,-5.9276,-6.0272,-6.0951,-6.1704,-6.2695,-6.278,-6.278,-6.278,-6.278,-6.278,-6.278,-6.3447,-6.3558,-6.286,-6.3466,-6.3539,-6.2817,-6.278,-6.278,-6.278,-6.3484,-6.3851,-6.3851,-6.3851,-6.3484,-6.278,-6.278,-6.278,0.0,0.0,0.0,-4.0496,0.0,0.0,0.0,-4.1489,-4.1923,0.0,0.0,0.0,0.0,0.0,0.0,0.0,0.0,0.0,0.0,0.0,0.0,0.0,0.0,0.0,0.0,0.0,-4.8144,-4.8105,-4.8125,-4.7952,-4.7509,-4.6663,-4.6009,-4.5605,-4.5182,-4.4528,-4.3701,-4.3297,-4.2646,-4.1739,-4.0875,-4.0452,-4.0471,-4.1327,-4.2217,-4.3143,-4.3951,-4.4778,-4.5671,-4.6547,-4.7375,-4.8173,-4.899,-5.0274,-5.19,-5.3591,-5.554,-5.75,-5.8497,-5.93,-5.982,-5.9658,-5.9103,-5.8656,-5.9192,-5.9852,-6.0658,-6.1869,-6.2493,-6.278,-6.278,-6.278,-6.278,-6.278,-6.278,-6.278,-6.278,-6.2493,-6.2089,-6.1667,-6.0951,-6.0272,-5.9887,-5.9813,-6.007,-6.0878,-6.1337,-6.1887,-6.2688,-6.278,-6.278,-6.278,-6.278,-6.278,-6.278,-6.3594,-6.3906,-6.3484,-6.4237,-6.4512,-6.4071,-6.3668,-6.3352,-6.3158,-6.4161,-6.44,-6.3804,-6.402,-6.3649,-6.278,-6.278,-6.3044,0.0,0.0,0.0,0.0,0.0,-4.0689,0.0,0.0,0.0,0.0,0.0,0.0,0.0,0.0,0.0,0.0,0.0,0.0,0.0,0.0,0.0,0.0,0.0,0.0,0.0,0.0,-4.7471,-4.8298,-4.8702,-4.9125,-4.9625,-4.8663,-4.7875,-4.7413,-4.6701,-4.6191,-4.5845,-4.4662,-4.3739,-4.3085,-4.1662,-4.092,-4.0785,-4.1643,-4.2527,-4.3374,-4.4201,-4.496,-4.5671,-4.6547,-4.7269,-4.7952,-4.8817,-5.0346,-5.2312,-5.4356,-5.6395,-5.8291,-5.9521,-6.006,-6.0165,-5.9871,-5.936,-5.8908,-5.9205,-5.9822,-6.0603,-6.1557,-6.231,-6.278,-6.278,-6.278,-6.278,-6.278,-6.278,-6.278,-6.278,-6.2291,-6.1832,-6.1832,-6.1318,-6.0768,-6.0456,-6.0529,-6.086,-6.1502,-6.1722,-6.2071,-6.2707,-6.278,-6.278,-6.278,-6.278,-6.278,-6.278,-6.3741,-6.4255,-6.409,-6.5007,-6.5466,-6.5319,-6.453,-6.4015,-6.3854,-6.4788,-6.4899,-6.4077,-6.4408,-6.4035,-6.3062,-6.3062,-6.3521,0.0,0.0,0.0,0.0,-4.0496,0.0,0.0,0.0,0.0,0.0,0.0,0.0,0.0,0.0,0.0,0.0,0.0,0.0,0.0,0.0,0.0,0.0,0.0,0.0,0.0,0.0,0.0,-4.9183,-4.7971,-4.8163,-5.0442,-4.899,-4.8413,-4.9086,-4.9009,-4.824,-4.6778,-4.7278,-4.6047,-4.3104,-4.2893,-4.2393,-4.1681,-4.2547,-4.3393,-4.4201,-4.5075,-4.5518,-4.5671,-4.6547,-4.6942,-4.7115,-4.7932,-5.0182,-5.2993,-5.3281,-5.5412,-5.8275,-5.8847,-5.9593,-6.0223,-5.9769,-5.9214,-5.8974,-6.0338,-6.0576,-6.0731,-6.2254,-6.275,-6.278,-6.278,-6.278,-6.278,-6.278,-6.278,-6.278,-6.278,-6.275,-6.2677,-6.2677,-6.2578,-6.2065,-6.0658,-6.0988,-6.1484,-6.1575,-6.2218,-6.2688,-6.278,-6.278,-6.278,-6.278,-6.278,-6.278,-6.278,-6.4255,-6.4861,-6.4145,-6.5521,-6.6035,-6.5338,-6.453,-6.4409,-6.5066,-6.5235,-6.5584,-6.6176,-6.6208,-6.543,-6.3943,-6.3943,-6.4383,0.0,0.0,0.0,0.0,0.0,0.0,-4.2236,0.0,-4.206,0.0,0.0,0.0,0.0,0.0,0.0,0.0,0.0,0.0,0.0,0.0,0.0,0.0,0.0,0.0,0.0,0.0,0.0,0.0,0.0,-4.8817,-4.9894,-4.9721,-4.9779,-5.0144,-5.0144,-4.9817,-4.9106,-4.8432,-4.7394,-4.599,-4.4509,-4.3355,-4.2585,-4.3412,-4.372,-4.3682,-4.5017,-4.5594,-4.5633,-4.599,-4.6432,-4.6923,-4.7269,-4.976,-5.3276,-5.4237,-5.6459,-5.905,-5.9747,-6.0252,-6.0597,-6.0593,-6.0198,-6.0,-6.135,-6.1445,-6.1337,-6.2493,-6.278,-6.278,-6.278,-6.278,-6.278,-6.278,-6.278,-6.278,-6.278,-6.2438,-6.2236,-6.2713,-6.242,-6.2034,-6.1832,-6.2071,-6.231,-6.231,-6.2585,-6.278,-6.278,-6.2401,-6.2291,-6.2743,-6.2383,-6.2291,-6.2768,-6.4347,-6.5173,-6.4824,-6.6311,-6.6623,-6.5356,-6.587,-6.5805,-6.4955,-6.5639,-6.5823,-6.546,-6.5694,-6.5228,-6.409,-6.4585,-6.5228,-4.4065,0.0,0.0,0.0,0.0,0.0,0.0,0.0,0.0,0.0,0.0,0.0,0.0,0.0,0.0,0.0,0.0,0.0,0.0,0.0,0.0,0.0,0.0,0.0,0.0,0.0,0.0,0.0,-4.8327,0.0,-4.9259,-4.9731,-5.0212,-5.0693,-5.0481,-5.0462,-5.0712,-4.9433,-4.8567,-4.8086,-4.624,-4.4797,-4.3816,-4.4393,-4.4335,-4.3874,-4.5316,-4.5951,-4.5951,-4.5951,-4.6336,-4.6923,-4.7135,-4.9683,-5.3376,-5.4838,-5.7115,-5.9565,-6.02,-6.04,-6.0493,-6.1206,-6.1099,-6.0922,-6.2106,-6.2149,-6.1934,-6.261,-6.278,-6.278,-6.278,-6.278,-6.278,-6.278,-6.278,-6.278,-6.278,-6.2346,-6.2108,-6.2695,-6.2328,-6.2108,-6.2688,-6.278,-6.278,-6.278,-6.278,-6.2707,-6.2511,-6.2144,-6.2071,-6.2438,-6.2144,-6.2181,-6.2743,-6.4347,-6.5503,-6.5925,-6.7045,-6.6971,-6.5375,-6.6623,-6.6585,-6.489,-6.5948,-6.618,-6.552,-6.5591,-6.5338,-6.4769,-6.5356,-6.5944,0.0,0.0,0.0,-4.3718,0.0,0.0,0.0,0.0,-4.1916,0.0,0.0,0.0,0.0,0.0,-4.1788,-4.175,0.0,0.0,0.0,0.0,0.0,0.0,0.0,0.0,0.0,0.0,0.0,0.0,-4.6829,0.0,-4.8933,-4.848,-4.8952,-5.0654,-4.9875,-4.9856,-5.0693,-5.0635,-4.976,-4.8105,-4.8029,-4.7105,-4.5518,-4.5556,-4.5537,-4.5575,-4.6471,-4.6846,-4.6846,-4.6846,-4.6865,-4.6981,-4.7759,-5.0164,-5.3318,-5.4203,-5.6613,-5.9398,-5.9437,-5.94,-5.9619,-6.1256,-6.1511,-6.1394,-6.2523,-6.2608,-6.2357,-6.269,-6.278,-6.278,-6.278,-6.278,-6.278,-6.278,-6.278,-6.278,-6.278,-6.2762,-6.2762,-6.278,-6.2762,-6.2762,-6.278,-6.278,-6.278,-6.278,-6.278,-6.253,-6.1741,-6.231,-6.2475,-6.1722,-6.231,-6.2762,-6.278,-6.4347,-6.5962,-6.7504,-6.765,-6.6971,-6.5375,-6.6109,-6.6127,-6.5309,-6.6072,-6.6869,-6.7585,-6.6824,-6.6439,-6.6421,-6.6439,-6.6476,0.0,0.0,-4.9637,-4.7261,0.0,0.0,0.0,0.0,0.0,0.0,0.0,0.0,0.0,0.0,-4.247,-4.1885,-4.1066,0.0,0.0,0.0,0.0,0.0,0.0,0.0,0.0,0.0,0.0,-4.6781,-4.8414,-4.9365,0.0,-4.9615,-5.0087,-5.0673,-5.0423,-5.0404,-5.0712,-5.0712,-5.0404,-4.9798,-4.924,-4.8086,-4.6471,-4.6471,-4.6144,-4.5652,-4.6528,-4.6904,-4.6904,-4.6904,-4.6567,-4.6182,-4.7567,-5.0154,-5.3294,-5.4715,-5.7009,-5.9398,-5.935,-5.93,-5.96,-6.186,-6.2292,-6.2144,-6.3331,-6.3414,-6.3047,-6.2861,-6.278,-6.278,-6.278,-6.278,-6.278,-6.278,-6.278,-6.278,-6.278,-6.278,-6.278,-6.278,-6.278,-6.278,-6.278,-6.278,-6.278,-6.278,-6.278,-6.2688,-6.2438,-6.2181,-6.2108,-6.2383,-6.2163,-6.2218,-6.2743,-6.4347,-6.5999,-6.7595,-6.7687,-6.721,-6.6145,-6.6861,-6.6659,-6.5338,-6.6604,-6.6898,-6.6109,-6.6366,-6.5944,-6.4934,-6.5999,-6.6494,-5.1147,-5.1674,0.0,0.0,-5.0086,0.0,-4.7009,0.0,0.0,0.0,0.0,0.0,0.0,0.0,-4.2643,-4.2681,-4.145,-4.0496,0.0,0.0,0.0,0.0,0.0,0.0,0.0,0.0,-4.6443,-4.6733,-4.8625,-4.9615,0.0,0.0,-5.0385,-5.0693,-5.0404,-5.025,-5.025,-5.0558,-5.0539,-5.0231,-4.9971,-4.8971,-4.7336,-4.7644,-4.7163,-4.6105,-4.6971,-4.7336,-4.7288,-4.7019,-4.674,-4.6586,-4.7636,-5.0306,-5.3722,-5.5108,-5.6939,-5.8802,-5.9381,-5.9319,-5.9416,-6.2122,-6.2895,-6.2907,-6.382,-6.3825,-6.3344,-6.2585,-6.2585,-6.275,-6.2456,-6.2603,-6.278,-6.278,-6.278,-6.278,-6.278,-6.278,-6.278,-6.278,-6.278,-6.278,-6.278,-6.278,-6.278,-6.278,-6.278,-6.2688,-6.242,-6.2181,-6.2126,-6.2346,-6.2181,-6.2365,-6.3191,-6.4255,-6.5558,-6.7155,-6.699,-6.6733,-6.6512,-6.699,-6.6916,-6.6164,-6.7155,-6.732,-6.6586,-6.6237,-6.5687,-6.4971,-6.5723,-6.6237]},{"header":{"parameterUnit":"m.s-1","parameterCategory":1,"la1":30.6,"la2":29.2853,"lo1":-89.7004,"lo2":-87.6739,"dy":0.0162,"dx":0.0183,"nx":112,"ny":82,"refTime":"2023-02-28T06:00:00:Z","depth":0,"parameterNumber":3,"parameterNumberName":"V-component_of_WINDS"},"data":[0.0,0.0,0.0,0.0,0.0,0.0,0.0,0.0,0.0,0.0,0.0,0.0,0.0,0.0,0.0,0.0,0.0,0.0,0.0,0.0,0.0,0.0,0.0,0.0,0.0,0.0,0.0,0.0,0.0,0.0,0.0,0.0,0.0,0.0,0.0,0.0,0.0,0.0,0.0,0.0,0.0,0.0,0.0,0.0,0.0,0.0,0.0,0.0,0.0,0.0,0.0,0.0,0.0,0.0,0.0,0.0,0.0,0.0,0.0,0.0,0.0,0.0,0.0,0.0,0.0,0.0,0.0,0.0,0.0,0.0,0.0,0.0,0.0,0.0,0.0,0.0,0.0,0.0,0.0,0.0,0.0,0.0,0.0,0.0,0.0,0.0,0.0,0.0,0.0,0.0,-1.1756,-1.1146,-1.1323,-1.1272,-1.0656,-1.1133,-1.1509,-1.1654,0.0,0.0,0.0,0.0,0.0,0.0,0.0,0.0,0.0,0.0,0.0,0.0,0.0,0.0,0.0,0.0,0.0,0.0,0.0,0.0,0.0,0.0,0.0,0.0,0.0,0.0,0.0,0.0,0.0,0.0,0.0,0.0,0.0,0.0,0.0,0.0,0.0,0.0,0.0,0.0,0.0,0.0,0.0,0.0,0.0,0.0,0.0,0.0,0.0,0.0,0.0,0.0,0.0,0.0,0.0,0.0,0.0,0.0,0.0,0.0,0.0,0.0,0.0,0.0,0.0,0.0,0.0,0.0,0.0,0.0,0.0,0.0,0.0,0.0,0.0,0.0,0.0,0.0,0.0,0.0,0.0,0.0,0.0,0.0,0.0,0.0,0.0,0.0,0.0,0.0,0.0,0.0,0.0,0.0,0.0,0.0,0.0,0.0,0.0,0.0,0.0,0.0,0.0,0.0,-1.2154,-1.1479,-1.1458,-1.1272,-1.0656,-1.0439,-1.0794,-1.1866,0.0,0.0,0.0,0.0,0.0,0.0,0.0,0.0,0.0,0.0,0.0,0.0,0.0,0.0,0.0,0.0,0.0,0.0,0.0,0.0,0.0,0.0,0.0,0.0,0.0,0.0,0.0,0.0,0.0,0.0,0.0,0.0,0.0,0.0,0.0,0.0,0.0,0.0,0.0,0.0,0.0,0.0,0.0,0.0,0.0,0.0,0.0,0.0,0.0,0.0,0.0,0.0,0.0,0.0,0.0,0.0,0.0,0.0,0.0,0.0,0.0,0.0,0.0,0.0,0.0,0.0,0.0,0.0,0.0,0.0,0.0,0.0,0.0,0.0,0.0,0.0,0.0,0.0,0.0,0.0,0.0,0.0,0.0,0.0,0.0,0.0,0.0,0.0,0.0,0.0,0.0,0.0,0.0,0.0,0.0,0.0,0.0,0.0,0.0,0.0,0.0,0.0,0.0,-1.2489,-1.1877,-1.1671,-1.1428,-1.1185,-1.0902,-1.0802,-1.1238,-1.2366,-1.3291,0.0,0.0,0.0,0.0,0.0,0.0,0.0,0.0,0.0,0.0,0.0,0.0,0.0,0.0,0.0,0.0,0.0,0.0,0.0,0.0,0.0,0.0,0.0,0.0,0.0,0.0,0.0,0.0,0.0,0.0,0.0,0.0,0.0,0.0,0.0,0.0,0.0,0.0,0.0,0.0,0.0,0.0,0.0,0.0,0.0,0.0,0.0,0.0,0.0,0.0,0.0,0.0,0.0,0.0,0.0,0.0,0.0,0.0,0.0,0.0,0.0,0.0,0.0,0.0,0.0,0.0,0.0,0.0,0.0,0.0,0.0,0.0,0.0,0.0,0.0,0.0,0.0,0.0,0.0,0.0,0.0,0.0,0.0,0.0,0.0,0.0,0.0,0.0,0.0,0.0,0.0,0.0,0.0,0.0,0.0,0.0,0.0,0.0,0.0,0.0,0.0,0.0,-1.1898,-1.1625,-1.1626,-1.131,-1.109,-1.1028,-1.1122,-1.1608,-1.2673,-1.3139,0.0,0.0,0.0,0.0,0.0,0.0,0.0,0.0,0.0,0.0,0.0,0.0,0.0,0.0,0.0,0.0,0.0,0.0,0.0,0.0,0.0,0.0,0.0,0.0,0.0,0.0,0.0,0.0,0.0,0.0,0.0,0.0,0.0,0.0,0.0,0.0,0.0,0.0,0.0,0.0,0.0,0.0,0.0,0.0,0.0,0.0,0.0,0.0,0.0,0.0,0.0,0.0,0.0,0.0,0.0,0.0,0.0,0.0,0.0,0.0,0.0,0.0,0.0,0.0,0.0,0.0,0.0,0.0,0.0,0.0,0.0,0.0,0.0,0.0,0.0,0.0,0.0,0.0,0.0,0.0,0.0,0.0,0.0,0.0,0.0,0.0,0.0,0.0,0.0,0.0,0.0,0.0,0.0,0.0,0.0,0.0,0.0,0.0,0.0,0.0,0.0,0.0,-1.2181,-1.175,-1.1209,-1.1122,-1.1028,-1.0839,-1.0839,-1.1327,-1.2451,-1.2848,0.0,0.0,0.0,0.0,0.0,0.0,0.0,0.0,0.0,0.0,0.0,0.0,0.0,0.0,0.0,0.0,0.0,0.0,0.0,0.0,0.0,0.0,0.0,0.0,0.0,0.0,0.0,0.0,0.0,0.0,0.0,0.0,0.0,0.0,0.0,0.0,0.0,0.0,0.0,0.0,0.0,0.0,0.0,0.0,0.0,0.0,0.0,0.0,0.0,0.0,0.0,0.0,0.0,0.0,0.0,0.0,0.0,0.0,0.0,0.0,0.0,0.0,0.0,0.0,0.0,0.0,0.0,0.0,0.0,0.0,0.0,0.0,0.0,0.0,0.0,0.0,0.0,0.0,0.0,0.0,0.0,0.0,0.0,0.0,0.0,0.0,0.0,0.0,0.0,0.0,0.0,0.0,0.0,0.0,0.0,0.0,0.0,0.0,0.0,0.0,0.0,0.0,-1.2458,-1.2035,0.0,-1.1482,-1.1603,-1.1443,-1.141,-1.1941,-1.3159,0.0,0.0,0.0,0.0,0.0,0.0,0.0,0.0,0.0,0.0,0.0,0.0,0.0,0.0,0.0,0.0,0.0,0.0,0.0,0.0,0.0,0.0,0.0,0.0,0.0,0.0,0.0,0.0,0.0,0.0,0.0,0.0,0.0,0.0,0.0,0.0,0.0,0.0,0.0,0.0,0.0,0.0,0.0,0.0,0.0,0.0,0.0,0.0,0.0,0.0,0.0,0.0,0.0,0.0,0.0,0.0,0.0,0.0,0.0,0.0,0.0,0.0,0.0,0.0,0.0,0.0,0.0,0.0,0.0,0.0,0.0,0.0,0.0,0.0,0.0,0.0,0.0,0.0,0.0,0.0,0.0,0.0,0.0,0.0,0.0,0.0,0.0,0.0,0.0,0.0,0.0,0.0,0.0,0.0,0.0,0.0,0.0,0.0,0.0,0.0,0.0,0.0,-1.2978,-1.2634,-1.2251,0.0,-1.1936,-1.2105,-1.1885,-1.1963,-1.2474,-1.3545,0.0,0.0,0.0,0.0,0.0,0.0,0.0,0.0,0.0,0.0,0.0,0.0,0.0,0.0,0.0,0.0,0.0,0.0,0.0,0.0,0.0,0.0,0.0,0.0,0.0,0.0,0.0,0.0,0.0,0.0,0.0,0.0,0.0,0.0,0.0,0.0,0.0,0.0,0.0,0.0,0.0,0.0,0.0,0.0,0.0,0.0,0.0,0.0,0.0,0.0,0.0,0.0,0.0,0.0,0.0,0.0,0.0,0.0,0.0,0.0,0.0,0.0,0.0,0.0,0.0,0.0,0.0,0.0,0.0,0.0,0.0,0.0,0.0,0.0,0.0,0.0,0.0,0.0,0.0,0.0,0.0,0.0,0.0,0.0,0.0,0.0,0.0,0.0,0.0,0.0,0.0,0.0,0.0,0.0,0.0,0.0,0.0,0.0,0.0,0.0,0.0,0.0,-1.3039,-1.2696,-1.2375,-1.2064,-1.2425,-1.2528,-1.2064,-1.231,-1.2788,0.0,0.0,0.0,0.0,0.0,0.0,0.0,0.0,0.0,0.0,0.0,0.0,0.0,0.0,0.0,0.0,0.0,0.0,0.0,0.0,0.0,0.0,0.0,0.0,0.0,0.0,0.0,0.0,0.0,0.0,0.0,0.0,0.0,0.0,0.0,0.0,0.0,0.0,0.0,0.0,0.0,0.0,0.0,0.0,0.0,0.0,0.0,0.0,0.0,0.0,0.0,0.0,0.0,0.0,0.0,0.0,0.0,0.0,0.0,0.0,0.0,0.0,0.0,0.0,0.0,0.0,0.0,0.0,0.0,0.0,0.0,0.0,0.0,0.0,0.0,0.0,0.0,0.0,0.0,0.0,0.0,0.0,0.0,0.0,0.0,0.0,0.0,0.0,0.0,0.0,0.0,0.0,0.0,0.0,0.0,0.0,0.0,0.0,0.0,0.0,0.0,0.0,0.0,-1.3039,-1.262,-1.2422,-1.2604,-1.3258,-1.3701,-1.3705,-1.3294,-1.347,-1.447,0.0,0.0,0.0,0.0,0.0,0.0,0.0,0.0,0.0,0.0,0.0,0.0,0.0,0.0,0.0,0.0,0.0,0.0,0.0,0.0,0.0,0.0,0.0,0.0,0.0,0.0,0.0,0.0,0.0,0.0,0.0,0.0,0.0,0.0,0.0,0.0,0.0,0.0,0.0,0.0,0.0,0.0,0.0,0.0,0.0,0.0,0.0,0.0,0.0,0.0,0.0,0.0,0.0,0.0,0.0,0.0,0.0,0.0,0.0,0.0,0.0,0.0,0.0,0.0,0.0,0.0,0.0,0.0,0.0,0.0,0.0,0.0,0.0,0.0,0.0,0.0,0.0,0.0,0.0,0.0,0.0,0.0,0.0,0.0,0.0,0.0,0.0,0.0,0.0,0.0,0.0,0.0,0.0,0.0,0.0,0.0,0.0,0.0,0.0,0.0,0.0,0.0,-1.3269,-1.3324,-1.3406,-1.3294,-1.4164,-1.4706,-1.4616,-1.4303,-1.4434,-1.512,0.0,0.0,0.0,0.0,0.0,0.0,0.0,0.0,0.0,0.0,0.0,0.0,0.0,0.0,0.0,0.0,0.0,0.0,0.0,0.0,0.0,0.0,0.0,0.0,0.0,0.0,0.0,0.0,0.0,0.0,0.0,0.0,0.0,0.0,0.0,0.0,0.0,0.0,0.0,0.0,0.0,0.0,0.0,0.0,0.0,0.0,0.0,0.0,0.0,0.0,0.0,0.0,0.0,0.0,0.0,0.0,0.0,0.0,0.0,0.0,0.0,0.0,0.0,0.0,0.0,0.0,0.0,0.0,0.0,0.0,0.0,0.0,0.0,0.0,0.0,0.0,0.0,0.0,0.0,0.0,0.0,0.0,0.0,0.0,0.0,0.0,0.0,0.0,0.0,0.0,0.0,0.0,0.0,0.0,0.0,0.0,0.0,0.0,0.0,0.0,0.0,0.0,-1.3702,-1.4435,-1.4766,-1.414,-1.5095,-1.5583,-1.5119,-1.529,-1.5452,-1.5519,0.0,0.0,0.0,0.0,0.0,0.0,0.0,0.0,0.0,0.0,0.0,0.0,0.0,0.0,0.0,0.0,0.0,0.0,0.0,0.0,0.0,0.0,0.0,0.0,0.0,0.0,0.0,0.0,0.0,0.0,0.0,0.0,0.0,0.0,0.0,0.0,0.0,0.0,0.0,0.0,0.0,0.0,0.0,0.0,0.0,0.0,0.0,0.0,0.0,0.0,0.0,0.0,0.0,0.0,0.0,0.0,0.0,0.0,0.0,0.0,-1.0982,0.0,0.0,0.0,0.0,0.0,0.0,0.0,0.0,0.0,0.0,0.0,0.0,0.0,0.0,0.0,0.0,0.0,0.0,0.0,0.0,0.0,0.0,0.0,0.0,0.0,0.0,0.0,0.0,0.0,0.0,0.0,0.0,0.0,0.0,0.0,0.0,0.0,0.0,0.0,0.0,0.0,-1.4493,-1.4546,-1.4719,-1.5197,-1.579,-1.6265,-1.6446,-1.6,-1.5851,-1.6227,-1.577,0.0,0.0,0.0,0.0,0.0,0.0,0.0,0.0,0.0,0.0,0.0,0.0,0.0,0.0,0.0,0.0,0.0,0.0,0.0,0.0,0.0,0.0,0.0,0.0,0.0,0.0,0.0,0.0,0.0,0.0,0.0,0.0,0.0,0.0,0.0,0.0,0.0,0.0,0.0,0.0,0.0,0.0,0.0,0.0,0.0,0.0,0.0,0.0,0.0,0.0,0.0,0.0,0.0,0.0,0.0,0.0,0.0,0.0,0.0,0.0,-1.0814,0.0,0.0,0.0,0.0,0.0,0.0,0.0,0.0,0.0,0.0,0.0,0.0,0.0,0.0,0.0,0.0,0.0,0.0,0.0,0.0,0.0,0.0,0.0,0.0,0.0,0.0,0.0,0.0,0.0,0.0,0.0,0.0,0.0,0.0,0.0,0.0,0.0,0.0,0.0,0.0,-1.5011,-1.4916,-1.508,-1.5781,-1.604,-1.6361,-1.6855,-1.6551,-1.6418,-1.6699,-1.587,0.0,0.0,0.0,0.0,0.0,0.0,0.0,0.0,0.0,0.0,0.0,0.0,0.0,0.0,0.0,0.0,0.0,0.0,0.0,0.0,0.0,0.0,0.0,0.0,0.0,0.0,0.0,0.0,0.0,0.0,0.0,0.0,0.0,0.0,0.0,0.0,0.0,0.0,0.0,0.0,0.0,0.0,0.0,0.0,0.0,0.0,0.0,0.0,0.0,0.0,0.0,0.0,0.0,0.0,-0.9837,-0.9274,-0.9143,-0.9293,-0.9657,-1.0122,-1.0424,-1.0566,0.0,0.0,0.0,0.0,0.0,0.0,0.0,0.0,0.0,0.0,0.0,0.0,0.0,0.0,0.0,0.0,0.0,0.0,0.0,0.0,0.0,0.0,0.0,0.0,0.0,-1.5223,-1.5716,0.0,0.0,0.0,0.0,0.0,0.0,0.0,0.0,0.0,0.0,0.0,0.0,-1.5569,-1.5512,-1.5659,-1.6192,-1.6193,-1.6341,-1.6773,-1.6872,-1.6881,-1.6807,-1.5944,-1.5419,0.0,0.0,0.0,0.0,0.0,0.0,0.0,0.0,0.0,0.0,0.0,0.0,0.0,0.0,0.0,0.0,0.0,0.0,0.0,0.0,0.0,0.0,0.0,0.0,0.0,0.0,0.0,0.0,0.0,0.0,0.0,0.0,-0.6881,-0.698,0.0,0.0,0.0,0.0,0.0,0.0,0.0,0.0,0.0,0.0,0.0,0.0,0.0,0.0,-1.0995,-1.1209,-1.1275,-1.1282,-1.0557,-1.013,-1.0027,-0.933,-0.9416,-1.0075,-0.9484,0.0,-1.0566,-1.0241,0.0,0.0,0.0,0.0,0.0,0.0,0.0,0.0,0.0,0.0,0.0,0.0,0.0,0.0,0.0,0.0,0.0,0.0,0.0,0.0,0.0,0.0,-1.5086,-1.4331,-1.3724,-1.3521,0.0,-1.5702,-1.668,-1.5983,0.0,0.0,0.0,0.0,0.0,0.0,0.0,0.0,-1.6562,-1.6363,-1.6337,-1.6749,-1.6795,-1.6658,-1.6389,-1.6707,-1.6762,-1.6389,-1.599,-1.547,-1.4831,-1.4465,0.0,0.0,0.0,0.0,0.0,0.0,0.0,0.0,0.0,0.0,0.0,0.0,0.0,0.0,0.0,0.0,0.0,0.0,0.0,0.0,0.0,0.0,0.0,0.0,0.0,0.0,0.0,0.0,0.0,-0.6781,-0.6513,-0.6417,-0.701,-0.7612,0.0,0.0,0.0,0.0,0.0,0.0,0.0,0.0,0.0,-1.0148,-1.0264,-1.0484,-1.078,-1.0875,-1.0804,-1.0495,-1.0133,-0.9603,-0.8941,-0.8606,-0.8872,-0.9604,-0.9052,-0.9583,-1.0749,-0.9977,-0.9758,-0.9999,0.0,0.0,0.0,0.0,0.0,-1.4659,-1.5779,0.0,0.0,0.0,0.0,0.0,0.0,0.0,0.0,0.0,0.0,0.0,0.0,0.0,0.0,-1.3689,-1.316,-1.2905,-1.3482,-1.4491,-1.5361,0.0,-1.6024,-1.6245,-1.6015,0.0,0.0,0.0,0.0,0.0,-1.6196,-1.5941,-1.5924,-1.6254,-1.6298,-1.6286,-1.6282,-1.6679,-1.6562,-1.5724,-1.5339,-1.4795,-1.4077,-1.3567,-1.3186,0.0,0.0,0.0,0.0,0.0,0.0,0.0,0.0,0.0,0.0,0.0,0.0,0.0,0.0,0.0,0.0,0.0,0.0,0.0,0.0,0.0,0.0,0.0,0.0,0.0,0.0,0.0,0.0,-0.6525,-0.6022,-0.5935,-0.6004,-0.6323,0.0,0.0,0.0,0.0,0.0,0.0,-0.8297,-0.8646,-0.9095,-0.965,-0.997,-1.0341,-1.0814,-1.0691,-1.0425,-1.0023,-0.969,-0.9069,-0.824,-0.7984,-0.8337,-0.9109,-0.8603,-0.9229,-1.0567,-0.9823,-0.9831,-1.0396,-1.0843,-1.109,-1.1478,-1.3603,-1.4382,-1.4614,-1.6093,-1.6373,-1.5967,-1.566,0.0,-1.4233,-1.3844,0.0,0.0,0.0,0.0,-1.5085,-1.393,0.0,-1.3382,-1.3219,-1.2917,-1.2719,-1.2975,-1.3315,-1.3889,0.0,-1.5644,-1.604,-1.5875,0.0,0.0,0.0,0.0,-1.6464,-1.5845,-1.5779,-1.579,-1.5799,-1.5974,-1.6139,-1.6282,-1.6679,-1.6493,-1.5546,-1.4911,-1.435,-1.3818,-1.2985,-1.2614,-1.2776,0.0,0.0,0.0,0.0,0.0,0.0,0.0,0.0,0.0,0.0,0.0,0.0,0.0,0.0,0.0,0.0,0.0,0.0,0.0,0.0,0.0,0.0,0.0,0.0,0.0,0.0,0.0,0.0,0.0,-0.5153,-0.4394,0.0,0.0,0.0,0.0,-0.7459,-0.774,-0.8045,-0.8477,-0.8998,-0.9549,-1.0153,-1.0659,-1.1069,-1.1342,-1.0917,-1.0676,-1.0642,-0.9372,-0.8821,-0.8922,-0.7968,-0.8062,-0.8969,-0.7968,-0.8329,-0.9593,-0.9931,-1.0398,-1.0987,-1.1175,-1.1646,-1.2381,-1.4394,-1.5155,-1.524,-1.5896,-1.6131,-1.5895,-1.4772,-1.3955,-1.3502,-1.3782,-1.3712,0.0,0.0,-1.47,-1.4672,-1.4332,-1.4256,-1.4004,-1.3067,-1.2808,-1.2728,-1.2422,-1.2416,-1.2699,0.0,-1.446,-1.5342,-1.5649,0.0,-1.6791,-1.7335,-1.7438,-1.7095,-1.6123,-1.6481,-1.6559,-1.5868,-1.6447,-1.6709,-1.6315,-1.6679,-1.67,-1.6273,-1.5191,-1.4565,-1.4565,-1.3113,-1.2187,-1.1984,-1.3402,0.0,0.0,0.0,0.0,0.0,0.0,0.0,0.0,0.0,0.0,0.0,0.0,0.0,0.0,0.0,0.0,0.0,0.0,0.0,0.0,0.0,0.0,0.0,0.0,0.0,0.0,0.0,0.0,-0.3851,-0.3782,0.0,0.0,-0.5107,-0.5665,-0.6648,-0.6822,-0.701,-0.7251,-0.7811,-0.8311,-0.8717,-0.9309,-0.9759,-1.0055,-0.9892,-0.9708,-0.9526,-0.8917,-0.8553,-0.8403,-0.8047,-0.8192,-0.8737,-0.8519,-0.876,-0.9393,-0.9696,-0.9977,-1.0271,-1.069,-1.1086,-1.1617,-1.2995,-1.3629,-1.389,-1.4836,-1.4922,-1.4466,-1.3651,-1.3179,-1.2968,-1.3471,-1.3848,-1.4089,-1.4012,-1.4399,-1.4632,-1.381,-1.3581,-1.3569,-1.334,-1.318,-1.3066,-1.3146,-1.301,-1.2984,-1.324,-1.4146,-1.5062,-1.5677,-1.6448,-1.7063,-1.7279,-1.7314,-1.6994,-1.6114,-1.6517,-1.6621,-1.5868,-1.6044,-1.6217,-1.6282,-1.6215,-1.5817,-1.4882,-1.4665,-1.4394,-1.3926,-1.3346,-1.3259,-1.3645,-1.5182,-1.5304,0.0,0.0,0.0,0.0,0.0,0.0,0.0,0.0,0.0,0.0,0.0,0.0,0.0,0.0,0.0,0.0,0.0,0.0,0.0,0.0,0.0,0.0,0.0,0.0,0.0,0.0,-0.3607,-0.3233,-0.3309,-0.3663,-0.441,-0.4909,-0.5541,-0.6349,-0.6696,-0.6901,-0.6992,-0.7629,-0.8093,-0.8367,-0.887,-0.9273,-0.957,-0.9315,-0.9079,-0.889,-0.8572,-0.8339,-0.8188,-0.8148,-0.8258,-0.8553,-0.8614,-0.8837,-0.9225,-0.9603,-0.9894,-1.015,-1.058,-1.0975,-1.1438,-1.266,-1.3166,-1.3334,-1.416,-1.4073,-1.3523,-1.3052,-1.2794,-1.2736,-1.3029,-1.3425,-1.3702,-1.35,-1.389,-1.4205,-1.3662,-1.3507,-1.3534,-1.358,-1.3453,-1.3347,-1.344,-1.3347,-1.3286,-1.3595,-1.4403,-1.5166,-1.5496,-1.659,-1.7253,-1.6803,-1.7014,-1.68,-1.5687,-1.6357,-1.6508,-1.5507,-1.5657,-1.5773,-1.573,-1.5428,-1.4957,-1.424,-1.4116,-1.3876,-1.3528,-1.3361,-1.3535,-1.4034,-1.557,-1.5801,-1.4707,0.0,0.0,0.0,0.0,0.0,0.0,0.0,0.0,0.0,0.0,0.0,0.0,0.0,0.0,0.0,0.0,0.0,0.0,0.0,0.0,0.0,0.0,0.0,-0.4234,-0.3655,-0.3127,-0.3329,-0.2859,-0.2984,-0.4104,-0.507,-0.5905,-0.6582,-0.7378,-0.7801,-0.7815,-0.8478,-0.8999,-0.9249,-0.9447,-0.9725,-1.0033,-0.9264,-0.8871,-0.8881,-0.8377,-0.8203,-0.8406,-0.8193,-0.8212,-0.8392,-0.8188,-0.8453,-0.9052,-0.9596,-1.0159,-1.0742,-1.0922,-1.1356,-1.2067,-1.3511,-1.3844,-1.3594,-1.3925,-1.3666,-1.3133,-1.2878,-1.2784,-1.273,-1.2418,-1.2338,-1.2472,-1.308,-1.3253,-1.338,-1.3955,-1.4102,-1.4021,-1.3686,-1.362,-1.354,-1.334,-1.328,-1.355,-1.4387,-1.5204,-1.5624,-1.525,-1.6637,-1.7372,-1.6061,-1.6636,0.0,-1.5001,-1.5964,-1.6254,-1.4764,-1.5278,-1.5419,-1.4657,-1.4318,-1.4271,-1.4542,-1.3595,-1.3176,-1.3484,-1.3127,-1.2965,-1.3015,-1.438,-1.5366,-1.5912,0.0,0.0,0.0,0.0,0.0,0.0,0.0,0.0,0.0,0.0,0.0,0.0,0.0,0.0,0.0,0.0,0.0,0.0,0.0,0.0,0.0,0.0,-0.2429,-0.3102,-0.2549,-0.2181,-0.2424,-0.2797,-0.3475,-0.4614,-0.5534,-0.6468,-0.7482,-0.7834,-0.8022,-0.8028,-0.8334,-0.8522,-0.842,-0.8768,-0.8931,-0.8878,-0.8631,-0.8607,-0.8752,-0.8456,-0.842,-0.8618,-0.8557,-0.8486,-0.8406,-0.8491,-0.8776,-0.9248,-0.9788,-1.0361,-1.0941,-1.1183,-1.1403,-1.1625,-1.2257,-1.2556,-1.2714,-1.3054,-1.2886,-1.2572,-1.2744,-1.2784,-1.2811,-1.2919,-1.3106,-1.336,-1.3953,-1.4162,-1.4195,-1.4362,-1.4402,-1.4329,-1.4035,-1.3968,-1.4108,-1.4667,-1.481,-1.5049,-1.5928,-1.6774,-1.7209,-1.6711,-1.7409,-1.7954,-1.7714,0.0,0.0,-1.6706,-1.5857,-1.5186,-1.5128,-1.4297,-1.3913,-1.4263,-1.3723,-1.3464,-1.3795,-1.3704,-1.3609,-1.3499,-1.3751,-1.4344,-1.5211,-1.5041,-1.5397,0.0,0.0,0.0,0.0,0.0,0.0,0.0,0.0,0.0,0.0,0.0,0.0,0.0,0.0,0.0,0.0,0.0,0.0,0.0,0.0,0.0,0.0,-0.2224,-0.2281,-0.2571,-0.2181,-0.2056,-0.2602,-0.329,-0.4179,-0.5455,-0.6425,-0.7263,-0.805,-0.8423,-0.8556,-0.8496,-0.8675,-0.8732,-0.8604,-0.8836,-0.8907,-0.8789,-0.8601,-0.8656,-0.8959,-0.8652,-0.8656,-0.8963,-0.8963,-0.8897,0.0,-0.8822,-0.9258,-0.9953,-1.0157,-1.0772,0.0,0.0,0.0,0.0,0.0,-1.2051,-1.2325,-1.2536,-1.2445,-1.2371,-1.2837,-1.2891,-1.2844,-1.312,-1.3327,-1.352,-1.3979,-1.4199,-1.4342,-1.4342,-1.4522,-1.4603,-1.4188,-1.4182,-1.439,-1.493,-1.5203,-1.5759,-1.6904,0.0,0.0,-1.7826,-1.8118,-1.8219,-1.7871,-1.7083,-1.6609,0.0,-1.5615,-1.478,-1.4715,-1.3821,-1.3248,-1.339,-1.2876,0.0,0.0,0.0,-1.3367,-1.3602,-1.3916,0.0,0.0,0.0,-1.4899,0.0,0.0,0.0,0.0,-1.6286,-1.6755,0.0,0.0,0.0,0.0,0.0,0.0,0.0,0.0,0.0,0.0,0.0,0.0,0.0,0.0,0.0,0.0,-0.2183,-0.2246,-0.2514,-0.2351,-0.2529,-0.3441,-0.413,-0.5082,-0.6463,-0.7533,-0.8246,-0.8502,-0.9013,-0.923,-0.9028,0.0,0.0,0.0,0.0,-0.92,-0.92,-0.8796,-0.8796,-0.92,-0.8837,-0.8878,-0.9282,-0.9282,-0.9282,-0.9272,-0.9098,-0.9665,-1.0667,-1.0492,-1.1154,-1.2277,-1.2274,-1.2164,-1.2007,-1.2007,-1.2187,0.0,0.0,0.0,0.0,-1.3073,-1.3073,-1.2938,-1.3173,-1.328,-1.3373,-1.362,-1.3955,-1.4188,-1.4188,-1.464,-1.4914,-1.4358,-1.4382,-1.4569,-1.47,-1.5198,-1.6079,-1.7561,-1.7987,-1.8237,-1.8588,-1.8625,-1.8226,-1.7118,-1.6735,0.0,-1.5802,-1.5229,-1.4606,-1.3924,0.0,0.0,-1.2372,-1.2064,-1.2208,-1.2797,-1.2552,-1.2824,-1.3775,-1.3815,-1.3907,-1.4247,-1.4213,-1.4324,-1.4458,-1.5068,-1.5559,-1.5961,-1.6084,-1.6903,0.0,0.0,0.0,0.0,0.0,0.0,0.0,0.0,0.0,0.0,0.0,0.0,0.0,0.0,0.0,-0.2533,-0.2565,-0.2628,-0.2731,-0.2738,-0.3032,-0.3739,-0.4793,-0.5928,-0.7182,-0.836,-0.915,-0.9331,-0.948,-0.9446,-0.9235,-0.9263,0.0,-0.9282,-0.8919,-0.8714,-0.8714,-0.8636,-0.8636,-0.8755,0.0,0.0,-0.9282,-0.9282,-0.9282,-0.9282,-0.9244,-0.9567,-1.0066,-1.0018,-1.0771,-1.1986,-1.2212,-1.2412,-1.2616,-1.2616,-1.2811,-1.3066,-1.326,-1.3194,-1.3093,-1.3407,-1.348,-1.344,-1.35,-1.3728,0.0,-1.4269,-1.4569,-1.4841,-1.4841,-1.505,-1.5224,-1.4921,-1.4881,-1.5092,-1.578,-1.6628,-1.7572,-1.8639,-1.8854,-1.8914,-1.8991,-1.8532,-1.7803,-1.6902,-1.5895,-1.5463,-1.596,-1.4587,-1.3575,-1.3572,-1.2951,-1.2482,-1.2298,-1.2251,-1.2478,-1.308,-1.3066,-1.334,-1.4013,-1.3763,-1.3884,-1.4421,-1.4435,-1.4576,-1.4878,-1.5422,-1.5742,-1.5761,-1.6232,-1.6721,0.0,0.0,0.0,0.0,0.0,0.0,0.0,0.0,0.0,0.0,0.0,-0.2704,0.0,0.0,-0.1953,-0.1944,-0.2431,-0.2794,-0.2824,-0.3164,-0.3674,-0.4385,-0.5179,-0.6328,-0.7885,-0.8815,-0.9435,-0.9762,-0.98,-0.9752,-0.9644,-0.9639,-0.9639,-0.9639,-0.9179,-0.8967,-0.8967,-0.8709,-0.8709,-0.8967,-0.9179,-0.9428,-0.9639,-0.9639,-0.9639,-0.9634,-0.9489,-0.9751,-1.0207,-1.0413,-1.1118,-1.2068,-1.2342,-1.27,-1.3018,-1.3018,-1.308,-1.3253,-1.35,-1.3413,-1.328,-1.3721,-1.3726,-1.3633,-1.378,-1.3968,-1.4115,-1.4262,-1.4623,-1.4975,-1.4776,-1.517,-1.5538,-1.5251,-1.5177,-1.5354,-1.5947,-1.6527,-1.7228,-1.8029,-1.8257,-1.8281,-1.8021,-1.7529,-1.713,-1.713,-1.613,-1.5511,-1.5884,-1.4457,-1.3426,-1.3543,-1.307,-1.2759,-1.2759,-1.3026,-1.3327,-1.3627,-1.3928,-1.4222,-1.4559,-1.4242,-1.4179,-1.4466,-1.4376,-1.4449,-1.4743,-1.5164,-1.5456,-1.5709,-1.5894,-1.6587,0.0,0.0,0.0,0.0,0.0,0.0,0.0,0.0,-0.4588,-0.3297,-0.2422,-0.1634,-0.079,-0.1033,-0.1298,-0.1165,-0.2093,-0.2907,-0.3043,-0.3557,-0.4249,-0.523,-0.5755,-0.677,-0.8548,-0.917,-0.9607,-0.9951,-0.9994,-0.9994,-0.9994,-0.9907,-0.9907,-0.9994,-0.9471,-0.9213,-0.9305,-0.8947,-0.8947,-0.9305,-0.9388,-0.965,-0.9994,-0.9994,-0.9951,-0.9854,-0.9563,-0.9723,-1.0245,-1.0719,-1.1272,-1.1864,-1.2251,-1.2594,-1.2934,-1.324,-1.33,-1.3206,-1.3566,-1.3452,-1.3252,-1.3893,-1.3928,-1.3733,-1.4015,-1.4088,-1.4088,-1.4088,-1.4549,-1.5035,-1.475,-1.5344,-1.5939,-1.5705,-1.5651,-1.5718,-1.5952,-1.6316,-1.6746,-1.7271,-1.7485,-1.7412,-1.7054,-1.653,-1.641,-1.702,-1.6256,-1.5641,-1.554,-1.4517,-1.3726,-1.3613,-1.3447,-1.3407,-1.346,-1.3901,-1.4195,-1.4255,-1.4747,-1.5008,-1.5008,-1.4676,-1.4543,-1.4603,-1.4365,-1.4401,-1.4653,-1.4915,-1.5267,-1.5662,-1.5603,-1.6396,-0.3054,-0.3698,-0.4425,-0.5099,-0.5217,-0.5211,0.0,0.0,-0.3112,-0.1957,-0.1336,-0.0649,0.0718,-0.0131,-0.0904,-0.0573,-0.1717,-0.2886,-0.3498,-0.3756,-0.4561,-0.6378,-0.7,-0.7797,-0.9082,-0.965,-0.9951,-0.9994,-0.9994,-0.9994,-0.9994,-0.9607,-0.9563,-0.9994,-0.9117,-0.8859,-0.9305,-0.9262,-0.9262,-0.9305,-0.9738,-0.9951,-0.9994,-0.9994,-0.9777,-0.9379,-0.9085,-0.9001,-0.9147,-0.9947,-1.0349,-1.0492,-1.1381,-1.1751,-1.1964,-1.3464,-1.3597,-1.3134,-1.3811,-1.3581,-1.314,-1.3851,-1.4062,-1.4041,-1.4075,-1.4088,-1.4088,-1.4088,-1.4696,-1.5344,-1.5304,-1.5952,-1.66,-1.6567,-1.656,-1.6567,-1.66,-1.7127,-1.7669,-1.7743,-1.7512,-1.7323,-1.7267,-1.6497,-1.5737,-1.5352,-1.5198,-1.4994,-1.468,-1.4506,-1.4179,-1.366,-1.3854,-1.4095,-1.4306,-1.4436,-1.4583,-1.4894,-1.4975,-1.5008,-1.5008,-1.4676,-1.4643,-1.4955,-1.4855,-1.4936,-1.5229,-1.5438,-1.5534,-1.5526,-1.5819,-1.6038,-0.2897,-0.3928,-0.4919,0.0,-0.5217,-0.5038,-0.4917,-0.3833,-0.2527,-0.1385,-0.0434,0.0536,0.1573,0.0887,0.0145,0.0,-0.1188,-0.2736,-0.3578,-0.4307,-0.5337,-0.6853,-0.7912,-0.8727,-0.9262,-0.9205,-0.9379,-0.9951,-0.9467,-0.9069,-0.8973,-0.9165,-0.9078,-0.8544,-0.8285,-0.8376,-0.8903,-0.8903,-0.9038,-0.9305,-0.9777,-0.9864,-0.9607,-0.9607,-0.9476,-0.9301,-0.9169,-0.9302,-0.9551,-0.9942,-1.0326,-1.071,-1.1102,-1.1479,-1.1914,-1.262,-1.2662,-1.2443,-1.279,-1.2918,-1.3045,-1.3349,-1.3743,-1.4088,-1.4088,-1.4088,-1.4088,-1.4088,-1.4723,-1.5398,-1.5398,-1.6046,-1.6747,-1.6921,-1.6834,-1.6754,-1.6927,-1.7077,-1.7162,-1.7162,-1.7058,-1.6912,-1.6738,-1.6375,-1.5945,-1.5531,-1.5324,-1.517,-1.5044,-1.4883,-1.4683,-1.4436,-1.4522,-1.4687,-1.477,-1.493,-1.5084,-1.5211,-1.5378,-1.5471,-1.5471,-1.5023,-1.4836,-1.5008,-1.4763,-1.4754,-1.5068,-1.5224,-1.5369,-1.5512,-1.5778,-1.5915,-0.3205,0.0,0.0,-0.5257,-0.517,-0.4882,-0.4266,-0.3287,-0.2192,-0.1146,0.0092,0.115,0.1815,0.1378,0.0912,0.0669,-0.0971,-0.2622,-0.3842,-0.4833,-0.5958,-0.7533,-0.8352,-0.8907,-0.9078,-0.8723,-0.8715,-0.9157,-0.8496,-0.7986,-0.7849,-0.8395,-0.8337,-0.7617,-0.7893,-0.8315,-0.8838,-0.8979,-0.913,-0.9305,-0.9705,-0.9613,-0.9126,-0.9126,-0.9126,-0.9126,-0.9257,-0.9476,-0.982,-0.9951,-1.0294,-1.0722,-1.0722,-1.1025,-1.1456,-1.1456,-1.1585,-1.18,-1.2143,-1.2485,-1.2784,-1.3173,-1.3652,-1.4088,-1.4088,-1.4142,-1.4188,-1.4108,-1.4836,-1.5618,-1.5538,-1.6233,-1.7001,-1.7266,-1.7108,-1.7007,-1.7273,-1.7034,-1.6827,-1.6827,-1.676,-1.664,-1.6426,-1.6326,-1.6199,-1.5985,-1.5705,-1.5484,-1.5404,-1.5189,-1.5042,-1.5122,-1.5055,-1.5075,-1.519,-1.5317,-1.5431,-1.5511,-1.5712,-1.5832,-1.5927,-1.5489,-1.5224,-1.5187,-1.4881,-1.4816,-1.4969,-1.512,-1.5288,-1.5469,-1.5785,-1.5915,0.0,0.0,-0.5314,-0.5364,-0.5148,-0.4668,-0.3641,-0.283,-0.2051,-0.1073,0.0,0.0891,0.118,0.1172,0.0872,0.0162,-0.1113,-0.2655,-0.4594,-0.5157,-0.6294,-0.8668,-0.8174,-0.7885,0.0,-0.85,-0.8141,-0.7258,-0.7027,-0.6924,-0.6924,-0.7068,-0.7379,-0.7794,-0.8436,-0.8989,-0.948,-0.9989,-0.9936,-0.9305,-0.9531,-0.9255,-0.8636,-0.8636,-0.8636,-0.8636,-0.9082,-0.9305,-0.9345,-0.982,-0.9994,-1.0038,-1.0038,-1.0038,-1.0081,-1.0081,-1.0467,-1.1198,-1.2528,-1.2571,-1.2272,-1.361,-1.4088,-1.4088,-1.4088,-1.4282,-1.4449,-1.4168,-1.513,-1.6179,-1.5892,-1.668,-1.7555,-1.7569,-1.7562,-1.7555,-1.7569,-1.7393,-1.7186,-1.7186,-1.6901,-1.67,-1.6693,-1.646,-1.6321,-1.6308,-1.6005,-1.5712,-1.5431,-1.5189,-1.5115,-1.5351,-1.5182,-1.519,-1.5752,-1.5551,-1.5518,-1.5751,-1.5778,-1.5927,-1.6177,-1.593,-1.5759,-1.5672,-1.5582,-1.5404,-1.5104,-1.5305,-1.5396,-1.5418,-1.5814,-1.6013,0.0,0.0,-0.6342,-0.6278,-0.5665,-0.4894,-0.4031,-0.3044,-0.2041,-0.1081,-0.0432,0.0188,0.0942,0.0622,0.0147,-0.0101,-0.1102,-0.2304,-0.3511,-0.4076,-0.4855,-0.63,-0.6655,0.0,0.0,0.0,0.0,-0.7071,-0.6361,-0.6073,-0.6487,-0.6895,-0.7067,-0.6923,-0.7633,-0.8206,-0.8586,-0.8842,-0.8935,-0.8815,-0.8524,-0.8476,-0.8592,-0.8241,-0.842,-0.9082,-0.9213,-0.9557,-0.9976,-1.0012,-1.0161,-1.0398,-1.026,-1.0293,-1.0393,-1.026,-1.0608,-1.1196,-1.1039,-1.1154,-1.1413,-1.1886,-1.2782,-1.3715,-1.3715,-1.4219,-1.4796,-1.474,-1.5491,-1.6253,-1.6152,-1.6847,-1.7582,-1.7582,-1.7582,-1.7582,-1.7582,-1.7508,-1.7494,-1.7494,-1.7355,-1.7228,-1.7085,-1.6971,-1.677,-1.6382,-1.6019,-1.5792,-1.5698,-1.5598,-1.5578,-1.5671,-1.5591,-1.5618,-1.5764,-1.5738,-1.5678,-1.5771,-1.5981,-1.6123,-1.6224,-1.6116,-1.5941,-1.5716,-1.5632,-1.5447,-1.509,-1.5298,-1.534,-1.5187,-1.5734,-1.5983,0.0,-0.6023,-0.6648,-0.6133,-0.5608,-0.4895,-0.3685,-0.2762,-0.2027,-0.1393,-0.0811,-0.0368,-0.0136,-0.0136,-0.0367,-0.0937,-0.1481,-0.221,-0.3227,-0.3678,-0.4286,-0.521,-0.5485,-0.538,0.0,0.0,0.0,-0.603,-0.5593,-0.5405,-0.5822,-0.659,-0.6879,-0.6639,-0.7461,-0.8005,-0.8223,-0.8511,-0.8645,-0.8609,-0.8189,-0.8204,-0.8518,-0.8563,-0.8844,-0.9403,-0.9584,-0.9883,-1.0308,-1.017,-1.0312,-1.0607,-1.0478,-1.0502,-1.0592,-1.0348,-1.0716,-1.1216,-1.0591,-1.0822,-1.1456,-1.1456,-1.2449,-1.3597,-1.3597,-1.4334,-1.5142,-1.5035,-1.5718,-1.64,-1.6299,-1.6978,-1.7582,-1.7582,-1.7582,-1.7582,-1.7582,-1.7582,-1.7582,-1.7582,-1.7582,-1.7522,-1.7387,-1.7266,-1.6879,-1.5991,-1.6015,-1.6017,-1.5804,-1.5919,-1.5945,-1.5791,-1.5784,-1.5784,-1.5784,-1.5879,-1.5927,-1.5927,-1.617,-1.6407,-1.6461,-1.65,-1.6327,-1.5938,-1.5914,-1.5641,-1.5215,-1.5372,-1.5388,-1.5268,-1.5678,-1.5885,-0.4994,-0.5843,-0.6266,-0.5135,-0.5001,-0.4683,-0.2746,-0.2204,-0.2164,-0.2127,-0.1247,-0.0778,0.0,0.0,-0.0802,-0.2251,-0.2224,-0.2419,-0.3607,-0.3886,-0.4321,0.0,0.0,0.0,0.0,0.0,0.0,-0.4276,0.0,-0.5011,-0.505,-0.6157,-0.683,-0.688,-0.7896,-0.8453,-0.8445,-0.896,-0.9012,-0.859,-0.847,-0.8434,-0.8528,-0.9465,-0.9828,-0.9687,-1.0106,-1.0341,-1.035,-1.0341,-1.046,-1.0649,-1.064,-1.064,-1.0626,-1.0376,-1.0751,-1.1297,-1.1058,-1.1554,-1.2226,-1.2243,-1.2939,-1.3779,-1.3779,-1.4526,-1.5357,-1.5129,-1.5825,-1.6647,-1.6386,-1.6961,-1.7609,-1.7622,-1.7615,-1.7609,-1.7609,-1.7595,-1.7582,-1.7582,-1.7582,-1.7582,-1.7582,-1.7407,-1.6754,-1.5334,-1.6023,-1.649,-1.585,-1.6071,-1.6179,-1.5838,-1.5852,-1.5798,-1.5784,-1.6028,-1.6224,-1.6224,-1.6447,-1.673,-1.6979,-1.7026,-1.6817,-1.6448,-1.6441,-1.6089,-1.544,-1.5476,-1.549,-1.5504,-1.5673,-1.5734,-0.5589,-0.6224,-0.6762,-0.6611,-0.6031,-0.535,-0.482,-0.456,-0.4185,-0.3569,-0.3051,-0.2715,0.0,0.0,0.0,-0.2326,-0.2054,0.0,-0.2279,-0.2339,0.0,-0.3037,0.0,-0.2926,-0.3296,-0.3134,0.0,0.0,-0.4673,-0.4856,-0.5644,-0.6402,-0.7083,-0.7686,-0.7951,-0.8073,-0.7959,-0.7991,-0.8233,-0.859,-0.847,-0.8808,-0.9507,-0.9791,-1.0038,-1.0356,-1.0448,-1.0589,-1.0726,-1.0611,-1.0712,-1.1019,-1.0872,-1.0905,-1.1014,-1.0811,-1.1157,-1.1631,-1.0943,-1.1071,-1.1502,-1.1172,-1.2113,-1.3327,-1.3327,-1.4447,-1.5705,-1.5631,-1.6139,-1.674,-1.6938,-1.7422,-1.7983,-1.8203,-1.809,-1.7876,-1.7876,-1.7749,-1.7582,-1.7582,-1.7582,-1.7582,-1.7582,-1.7522,-1.7316,-1.6716,-1.706,-1.6832,-1.5395,-1.6043,-1.6486,-1.6192,-1.6159,-1.6072,-1.5798,-1.6028,-1.6224,-1.6224,-1.665,-1.6932,-1.6979,-1.7153,-1.7096,-1.6785,-1.6778,-1.6491,-1.5835,-1.587,-1.5685,-1.5345,-1.5809,-1.6021,-0.5621,-0.6294,-0.6831,-0.7014,-0.6566,-0.5915,-0.5255,-0.497,-0.4651,-0.3898,-0.3707,0.0,-0.3036,0.0,0.0,0.0,0.0,0.0,-0.2817,-0.2749,-0.2575,0.0,-0.2072,0.0,-0.2486,-0.2526,-0.3165,0.0,-0.4951,-0.5523,-0.6584,-0.7238,-0.7661,-0.7992,-0.8106,-0.8065,-0.7913,-0.7899,-0.8192,-0.8691,-0.8843,-0.9324,-1.014,-1.0373,-1.0565,-1.0716,0.0,-1.0783,-1.0886,-1.0764,-1.0905,-1.1184,-1.1071,-1.1094,-1.117,-1.0972,-1.132,-1.1774,-1.0989,-1.1101,-1.1477,-1.0907,-1.1932,-1.3311,-1.3311,-1.4504,-1.5838,-1.6139,-1.6547,-1.7001,-1.7428,-1.7889,-1.8283,-1.845,-1.8263,-1.7995,-1.7995,-1.7856,-1.7789,-1.7789,-1.7789,-1.7742,-1.7609,-1.7582,-1.7364,-1.6723,-1.716,-1.7088,-1.5612,-1.6305,-1.6787,-1.6493,-1.6346,-1.6206,-1.6039,-1.615,-1.6224,-1.6224,-1.6697,-1.6989,-1.6975,-1.722,-1.7156,-1.6739,-1.6739,-1.6425,-1.5842,-1.5849,-1.5815,-1.5679,-1.6012,-1.632,-0.522,-0.5952,-0.6497,-0.6626,-0.6601,-0.6202,-0.5031,-0.48,-0.4641,-0.3954,0.0,-0.3867,-0.349,-0.4047,-0.4599,-0.4715,0.0,-0.522,-0.4039,-0.389,-0.344,-0.2005,-0.1877,-0.192,-0.1977,-0.199,-0.2736,-0.4581,-0.546,-0.6404,-0.7544,-0.8193,-0.8384,-0.8056,-0.8228,-0.8235,-0.8049,-0.8231,-0.8523,-0.8958,-0.9409,-0.9941,-1.0511,-1.0998,-1.1099,-1.0934,0.0,0.0,-1.0934,-1.0934,-1.1038,-1.1194,-1.1194,-1.1194,-1.1175,-1.1,-1.1316,-1.174,-1.1125,-1.1316,-1.1692,-1.1125,-1.2006,-1.3372,-1.3463,-1.4526,-1.5808,-1.649,-1.6921,-1.7347,-1.7943,-1.833,-1.8557,-1.8597,-1.8377,-1.8109,-1.8109,-1.8075,-1.8049,-1.8049,-1.8049,-1.7955,-1.7695,-1.7642,-1.7305,-1.6299,-1.6988,-1.7259,-1.624,-1.6775,-1.7146,-1.68,-1.654,-1.6409,-1.6328,-1.632,-1.6279,-1.6286,-1.6748,-1.7072,-1.7092,-1.7301,-1.7159,-1.6644,-1.6583,-1.6304,-1.5732,-1.5737,-1.5938,-1.6238,-1.6304,-1.6657,-0.4274,-0.482,-0.5577,-0.5513,-0.5553,-0.5709,-0.5943,-0.656,0.0,0.0,-0.5095,-0.4711,-0.423,-0.4038,-0.4121,-0.4682,0.0,0.0,0.0,0.0,-0.3246,0.0,0.0,0.0,0.0,0.0,0.0,0.0,0.0,0.0,-0.7642,-0.8288,-0.8587,-0.8411,-0.8431,-0.8431,-0.8404,-0.8431,-0.8832,-0.9633,-0.9734,-1.0212,-1.1047,-1.1145,-1.1175,-1.1142,0.0,0.0,-1.1142,-1.1142,-1.1161,-1.1194,-1.1194,-1.1194,-1.1189,-1.1156,-1.1239,-1.1288,-1.119,-1.1239,-1.1288,-1.119,-1.1799,-1.2705,-1.3323,-1.4148,-1.5137,-1.6341,-1.6921,-1.74,-1.819,-1.8631,-1.8911,-1.9158,-1.8991,-1.8715,-1.8715,-1.8584,-1.841,-1.841,-1.841,-1.8317,-1.7969,-1.7909,-1.7769,-1.7351,-1.7477,-1.7529,-1.7312,-1.743,-1.7395,-1.7152,-1.7079,-1.6851,-1.6362,-1.6699,-1.6861,-1.6614,-1.7114,-1.7415,-1.7421,-1.7471,-1.7429,-1.727,-1.7008,-1.6737,-1.642,-1.6209,-1.615,-1.6296,-1.6503,-1.6815,-0.4339,-0.4818,-0.5803,-0.6327,-0.6343,-0.6345,-0.6778,0.0,0.0,0.0,-0.5405,-0.5106,-0.4637,-0.4891,0.0,0.0,0.0,0.0,0.0,0.0,0.0,0.0,0.0,0.0,0.0,0.0,0.0,0.0,0.0,0.0,-0.8521,-0.858,-0.8594,-0.8601,-0.8601,-0.8564,-0.8482,-0.856,-0.8892,-0.9566,-0.9872,-1.0391,-1.1061,-1.1261,-1.1364,-1.1354,0.0,0.0,-1.1194,-1.1194,-1.1194,-1.1194,-1.1194,-1.1194,-1.1194,-1.1194,-1.1194,-1.1194,-1.1194,-1.1269,-1.1345,-1.1231,-1.1731,-1.2565,-1.3275,-1.4052,-1.5055,-1.6711,-1.7268,-1.7668,-1.8677,-1.9052,-1.9192,-1.9332,-1.9138,-1.8925,-1.8925,-1.8818,-1.8718,-1.8718,-1.8718,-1.8577,-1.8069,-1.7995,-1.7889,-1.7629,-1.7582,-1.7582,-1.7582,-1.7582,-1.7528,-1.744,-1.7293,-1.7085,-1.6804,-1.682,-1.6853,-1.6711,-1.7088,-1.7332,-1.7332,-1.7592,-1.763,-1.7284,-1.7427,-1.7274,-1.6877,-1.6738,-1.6749,-1.6991,-1.6991,-1.7221,-0.4524,-0.5056,-0.6092,-0.6686,-0.672,-0.6722,-0.6934,-0.6962,0.0,0.0,-0.5423,-0.5343,-0.5041,0.0,-0.6193,0.0,-0.668,0.0,0.0,0.0,0.0,0.0,0.0,0.0,0.0,0.0,0.0,0.0,0.0,0.0,-0.9404,-0.8889,-0.8635,-0.8757,-0.876,-0.8592,-0.8309,-0.8588,-0.8843,-0.9061,-0.9846,-1.0454,-1.0928,-1.1346,-1.1557,-1.151,0.0,0.0,0.0,-1.1194,-1.1194,-1.1194,-1.1194,-1.1194,-1.1194,-1.1194,-1.1227,-1.1255,-1.1208,-1.1335,-1.1491,-1.1321,-1.1707,-1.2384,-1.3244,-1.3956,-1.4862,-1.6989,-1.7582,-1.7856,-1.9115,-1.9424,-1.9424,-1.9424,-1.9192,-1.9018,-1.9018,-1.9018,-1.9018,-1.9018,-1.9018,-1.8831,-1.8189,-1.8089,-1.8016,-1.7642,-1.7582,-1.7582,-1.7582,-1.7582,-1.7582,-1.7582,-1.7427,-1.7266,-1.7206,-1.6994,-1.6867,-1.6807,-1.7069,-1.7211,-1.7286,-1.7757,-1.7781,-1.736,-1.7763,-1.7719,-1.717,-1.712,-1.7227,-1.7521,-1.7309,-1.7464,-0.4405,-0.4828,-0.5667,-0.4493,-0.4855,-0.552,-0.5711,0.0,0.0,-0.5614,-0.5504,-0.5569,-0.5534,-0.5708,-0.5996,0.0,0.0,-0.6649,0.0,0.0,0.0,0.0,0.0,0.0,0.0,0.0,0.0,0.0,0.0,0.0,0.0,-0.915,-0.8848,-0.8861,-0.8861,-0.8517,-0.7668,-0.8462,-0.8671,-0.83,-0.9693,-1.0571,-1.0932,-1.1484,-1.169,-1.152,0.0,0.0,0.0,-1.1194,-1.1194,-1.1194,-1.1194,-1.1194,-1.1194,-1.1194,-1.1321,-1.1463,-1.126,-1.1335,-1.1515,-1.1496,-1.1537,-1.1799,-1.3099,-1.3565,-1.4162,-1.6827,-1.7582,-1.7856,-1.9115,-1.9424,-1.9424,-1.9424,-1.9403,-1.9325,-1.9325,-1.9325,-1.9325,-1.9325,-1.9325,-1.9138,-1.8551,-1.845,-1.8257,-1.7669,-1.7582,-1.7582,-1.7582,-1.7582,-1.7582,-1.7582,-1.7555,-1.7435,-1.7226,-1.7361,-1.7388,-1.7179,-1.7407,-1.7568,-1.7542,-1.7864,-1.8002,-1.7923,-1.7967,-1.7813,-1.7456,-1.7213,-1.717,-1.7257,-1.7199,-1.736,-0.5606,-0.5986,-0.6945,-0.641,-0.6167,-0.6228,-0.6812,0.0,-0.6458,-0.5769,-0.5674,-0.5691,-0.5606,-0.5705,-0.583,0.0,0.0,0.0,0.0,0.0,0.0,0.0,0.0,0.0,0.0,0.0,0.0,0.0,0.0,0.0,0.0,-0.9171,-0.8885,-0.8885,-0.8377,-0.7928,-0.7593,-0.7928,-0.8014,-0.7847,-0.9326,-1.0112,-1.0258,-1.0674,-1.1015,-1.1354,0.0,0.0,0.0,-1.125,-1.1194,-1.1194,-1.1194,-1.1194,-1.1194,-1.1194,-1.1331,-1.1487,-1.1269,-1.1416,-1.1676,-1.1557,-1.152,-1.1752,-1.3237,-1.3696,-1.422,-1.6879,-1.7582,-1.7856,-1.9115,-1.9424,-1.9424,-1.9424,-1.9424,-1.9424,-1.9424,-1.9424,-1.9424,-1.9424,-1.9424,-1.9239,-1.8824,-1.8751,-1.8551,-1.7949,-1.7862,-1.7796,-1.7609,-1.7582,-1.7582,-1.7582,-1.7582,-1.7535,-1.7474,-1.7515,-1.7528,-1.7467,-1.7515,-1.7687,-1.7852,-1.8115,-1.8262,-1.8247,-1.8462,-1.8398,-1.8051,-1.7757,-1.7671,-1.7676,-1.7519,-1.7521,-0.6652,-0.6882,-0.7798,-0.7811,-0.7153,-0.6735,0.0,0.0,-0.6385,-0.5895,-0.5837,-0.5837,-0.5739,-0.5837,-0.5891,0.0,0.0,-0.6237,0.0,0.0,0.0,0.0,0.0,0.0,0.0,0.0,0.0,0.0,0.0,0.0,0.0,-0.8507,-0.8491,-0.8491,-0.7928,-0.7482,-0.7204,-0.7482,-0.7575,-0.7541,-0.9071,-0.979,-0.9734,-1.0141,-1.0678,0.0,0.0,0.0,0.0,-1.1354,-1.125,-1.1203,-1.1264,-1.125,-1.1203,-1.1269,-1.1425,-1.1576,-1.1364,-1.152,-1.1794,-1.1652,-1.1567,-1.1831,-1.344,-1.3958,-1.4521,-1.6996,-1.7909,-1.8303,-1.9209,-1.9424,-1.9424,-1.9424,-1.9424,-1.9424,-1.9424,-1.9424,-1.9424,-1.9424,-1.9424,-1.9272,-1.8978,-1.8925,-1.8724,-1.8082,-1.7995,-1.7882,-1.7622,-1.7662,-1.7716,-1.7716,-1.7802,-1.7776,-1.7595,-1.7582,-1.7582,-1.7582,-1.7582,-1.7687,-1.7852,-1.8115,-1.8272,-1.8272,-1.8593,-1.8593,-1.8272,-1.8069,-1.7964,-1.7859,-1.7694,-1.7582,-0.7273,-0.7125,-0.7537,-0.7654,-0.6984,-0.6515,0.0,0.0,0.0,-0.5895,-0.5922,-0.599,-0.599,-0.6152,-0.6245,-0.6013,0.0,0.0,0.0,0.0,0.0,0.0,0.0,0.0,0.0,0.0,0.0,0.0,0.0,0.0,0.0,0.0,-0.7593,-0.7593,-0.7593,-0.7204,-0.6318,-0.7149,-0.7532,-0.7416,-0.9027,-0.973,-0.9628,-1.0334,0.0,0.0,0.0,0.0,0.0,-1.1515,-1.1387,-1.1217,-1.143,-1.1383,-1.1222,-1.1435,-1.1642,-1.1784,-1.1586,-1.1647,-1.1817,-1.1813,-1.168,-1.1856,-1.3745,-1.4315,-1.4881,-1.7302,-1.8671,-1.9352,-1.9424,-1.9424,-1.9424,-1.9424,-1.9424,-1.9424,-1.9424,-1.9424,-1.9424,-1.9424,-1.9424,-1.9272,-1.8978,-1.8925,-1.8724,-1.8082,-1.7995,-1.7882,-1.7622,-1.7849,-1.7989,-1.7989,-1.8303,-1.8237,-1.7635,-1.7582,-1.7582,-1.7582,-1.7582,-1.7582,-1.7582,-1.7852,-1.8016,-1.8016,-1.8272,-1.8265,-1.8016,-1.8016,-1.7852,-1.7582,-1.7582,-1.7582,-0.7788,-0.7743,-0.7852,-0.7896,-0.7375,-0.6907,-0.7193,0.0,0.0,-0.6184,-0.6194,-0.6156,-0.6013,-0.6234,-0.6322,-0.6033,-0.624,0.0,0.0,0.0,0.0,0.0,0.0,0.0,0.0,0.0,0.0,0.0,0.0,0.0,0.0,0.0,-0.7593,-0.7593,-0.6374,-0.5929,-0.6318,-0.6596,-0.6964,-0.7535,-0.8634,-0.9185,-0.9136,-0.9294,0.0,0.0,0.0,0.0,0.0,-1.1416,-1.1345,-1.1411,-1.1331,-1.1009,-1.0712,-1.1121,-1.1175,-1.106,-1.1219,-1.1435,-1.1614,-1.1614,-1.1819,-1.2405,-1.3847,-1.4447,-1.5106,-1.7655,-1.8838,-1.9424,-1.9424,-1.9424,-1.9424,-1.9424,-1.9424,-1.9424,-1.9424,-1.9424,-1.9424,-1.9424,-1.9424,-1.9397,-1.9239,-1.9225,-1.9092,-1.8704,-1.8644,-1.8537,-1.8237,-1.829,-1.835,-1.835,-1.8437,-1.833,-1.7936,-1.7849,-1.7809,-1.7595,-1.7582,-1.7687,-1.7852,-1.7964,-1.8069,-1.8272,-1.8167,-1.8069,-1.8016,-1.7799,-1.7687,-1.7582,-1.7582,-1.7582,0.0,-0.7864,-0.7917,-0.7975,-0.75,0.0,0.0,0.0,0.0,0.0,0.0,-0.6334,-0.6146,-0.6312,-0.6433,-0.6156,-0.6366,0.0,0.0,0.0,0.0,0.0,0.0,0.0,0.0,0.0,0.0,0.0,0.0,0.0,0.0,0.0,-0.6927,-0.6594,-0.5485,-0.5375,-0.6318,-0.6318,-0.685,-0.8017,-0.8575,-0.8821,-0.8764,0.0,0.0,0.0,0.0,0.0,0.0,-1.1353,-1.135,-1.1397,-1.142,-1.1137,-1.077,-1.1274,-1.1309,-1.1143,-1.1372,-1.152,-1.1628,-1.1628,-1.2234,-1.3188,-1.4333,-1.5258,-1.6373,-1.8285,-1.9165,-1.9533,-1.9533,-1.9613,-1.9693,-1.9693,-1.9693,-1.9693,-1.9693,-1.9693,-1.9659,-1.9553,-1.9533,-1.9499,-1.9444,-1.9424,-1.9265,-1.8965,-1.8925,-1.8818,-1.8524,-1.8584,-1.8651,-1.8651,-1.8751,-1.8698,-1.8348,-1.8122,-1.7916,-1.7602,-1.7582,-1.7687,-1.7852,-1.7859,-1.7905,-1.8108,-1.7905,-1.7859,-1.7859,-1.7755,-1.7816,-1.7923,-1.7809,-1.7756,0.0,0.0,0.0,0.0,0.0,0.0,0.0,0.0,0.0,0.0,0.0,0.0,-0.6358,-0.645,-0.6497,-0.6354,-0.6532,0.0,0.0,0.0,0.0,0.0,0.0,0.0,0.0,0.0,0.0,0.0,0.0,0.0,0.0,0.0,0.0,-0.4817,-0.4873,-0.5371,-0.6251,-0.6362,-0.7133,-0.8696,-0.8696,-0.8618,-0.8482,0.0,0.0,0.0,0.0,0.0,0.0,-1.1272,-1.1333,-1.1304,-1.1642,-1.1557,-1.1314,-1.1666,-1.1766,-1.1761,-1.1751,-1.1794,-1.1794,-1.1878,-1.2861,-1.4186,-1.5171,-1.6677,-1.8237,-1.9145,-1.9606,-1.9833,-1.9833,-2.0034,-2.0173,-2.0173,-2.0173,-2.0173,-2.0173,-2.0173,-2.0154,-1.9887,-1.9833,-1.974,-1.9446,-1.9457,-1.9299,-1.8998,-1.8958,-1.8858,-1.8591,-1.8784,-1.8958,-1.8958,-1.9199,-1.9245,-1.8951,-1.8348,-1.7896,-1.7635,-1.7595,-1.7582,-1.7582,-1.7582,-1.7582,-1.7582,-1.7602,-1.7622,-1.7649,-1.7936,-1.8223,-1.8484,-1.8183,-1.8002,0.0,0.0,0.0,0.0,0.0,0.0,0.0,0.0,0.0,0.0,0.0,0.0,0.0,-0.6719,-0.6773,-0.662,0.0,0.0,0.0,0.0,0.0,0.0,0.0,0.0,0.0,0.0,0.0,0.0,0.0,0.0,0.0,0.0,0.0,-0.3923,-0.4538,-0.5285,-0.6084,-0.6798,-0.7606,-0.8537,-0.8537,-0.8516,-0.8482,0.0,0.0,0.0,0.0,0.0,-1.0136,-1.0508,-1.1083,-1.1734,-1.1594,-1.162,-1.1759,-1.1769,-1.1559,-1.1225,-1.149,-1.1586,-1.176,-1.2771,-1.3484,-1.438,-1.6423,-1.7687,-1.8564,-1.9446,-1.9907,-2.0134,-2.0134,-2.012,-2.0173,-2.0173,-2.0173,-2.0173,-2.0173,-2.0173,-2.0153,-2.014,-2.0134,-2.004,-1.9746,-1.97,-1.9599,-1.9305,-1.9265,-1.9239,-1.9229,-1.9219,-1.9265,-1.9265,-1.9325,-1.9245,-1.8951,-1.8591,-1.8257,-1.7902,-1.7716,-1.7582,-1.7582,-1.7582,-1.7582,-1.7582,-1.7816,-1.805,-1.8277,-1.835,-1.8424,-1.8484,-1.8183,-1.8115,0.0,0.0,0.0,0.0,0.0,0.0,0.0,0.0,0.0,0.0,0.0,0.0,0.0,0.0,0.0,0.0,0.0,0.0,0.0,0.0,0.0,0.0,0.0,0.0,0.0,0.0,0.0,0.0,0.0,0.0,0.0,0.0,0.0,0.0,-0.5367,-0.6055,-0.5995,-0.6921,-0.7776,-0.8482,-0.8418,-0.8384,-0.8384,-0.8313,0.0,0.0,0.0,0.0,-0.969,-1.0268,-1.1093,-1.1913,-1.1821,-1.1987,-1.2294,-1.2006,-1.1893,-1.1819,-1.2064,-1.235,-1.2689,-1.3488,-1.4074,-1.4834,-1.6681,-1.7815,-1.8612,-1.9358,-1.9872,-2.0196,-2.0196,-2.0295,-2.0387,-2.0573,-2.0635,-2.0635,-2.0635,-2.0635,-2.0595,-2.0461,-2.0434,-2.0301,-1.9873,-1.9913,-1.99,-1.9606,-1.9679,-1.972,-1.9586,-1.9566,-1.9512,-1.9379,-1.9424,-1.9299,-1.9138,-1.8858,-1.8504,-1.8015,-1.7756,-1.7582,-1.7582,-1.7582,-1.7649,-1.7796,-1.8096,-1.8397,-1.8691,-1.8691,-1.8758,-1.8885,-1.8591,-1.8531,0.0,0.0,0.0,0.0,0.0,0.0,0.0,0.0,0.0,0.0,0.0,0.0,0.0,-0.6705,0.0,0.0,0.0,0.0,0.0,0.0,0.0,0.0,0.0,0.0,0.0,0.0,0.0,0.0,0.0,0.0,0.0,0.0,0.0,0.0,-0.6443,-0.7021,-0.6187,-0.7093,-0.7821,-0.8414,-0.8292,-0.8235,-0.8231,-0.8123,0.0,0.0,0.0,0.0,-0.9328,-1.0272,-1.1239,-1.2124,-1.2039,-1.239,-1.2867,-1.224,-1.2252,-1.2632,-1.2848,-1.318,-1.3607,-1.3844,-1.4501,-1.5358,-1.649,-1.7629,-1.8641,-1.9126,-1.9717,-2.0188,-2.0188,-2.0363,-2.0672,-2.0982,-2.1046,-2.1109,-2.1109,-2.1109,-2.1036,-2.0795,-2.0742,-2.0568,-2.0027,-2.014,-2.0201,-1.9907,-2.0074,-2.014,-1.99,-1.9867,-1.9753,-1.9466,-1.9432,-1.9412,-1.943,-1.9092,-1.8655,-1.8155,-1.7889,-1.7722,-1.7722,-1.7762,-1.7929,-1.8189,-1.8497,-1.8764,-1.9058,-1.9011,-1.9118,-1.9417,-1.9058,-1.8951,-0.7095,-0.727,-0.7434,-0.7129,0.0,0.0,0.0,0.0,0.0,0.0,0.0,0.0,0.0,0.0,0.0,0.0,0.0,0.0,0.0,0.0,0.0,0.0,0.0,0.0,0.0,0.0,0.0,0.0,0.0,0.0,0.0,0.0,0.0,0.0,0.0,-0.7251,-0.7034,-0.7773,-0.816,-0.8056,-0.8035,-0.8025,-0.8029,-0.8187,-0.8258,0.0,0.0,-0.9067,-0.9207,-1.0087,-1.1281,-1.252,-1.1862,-1.2425,-1.3463,-1.1978,-1.1773,-1.2311,-1.2375,-1.245,-1.267,-1.3358,-1.443,-1.5639,-1.6716,-1.7979,-1.906,-1.9137,-1.9594,-2.0106,-2.0106,-2.0386,-2.0609,-2.0672,-2.0919,-2.1109,-2.1109,-2.1109,-2.1096,-2.1049,-2.1042,-2.0935,-2.0601,-2.0581,-2.0508,-2.0214,-2.014,-2.0221,-2.0113,-2.0167,-2.0054,-1.9766,-1.9733,-1.9633,-1.945,-1.9092,-1.8885,-1.8798,-1.8517,-1.835,-1.835,-1.8584,-1.8858,-1.9158,-1.9269,-1.9379,-1.9666,-1.9419,-1.9325,-1.9417,-1.9058,-1.9058,-0.7095,-0.7196,-0.7339,-0.7278,0.0,0.0,0.0,0.0,0.0,0.0,0.0,0.0,0.0,0.0,0.0,0.0,0.0,0.0,0.0,0.0,0.0,0.0,0.0,0.0,0.0,0.0,0.0,0.0,0.0,0.0,0.0,0.0,0.0,0.0,0.0,-0.7825,-0.7629,-0.7975,-0.8109,-0.7988,-0.7988,-0.7988,-0.7992,-0.8113,-0.8191,-0.8316,0.0,-0.8542,-0.8772,-0.9899,-1.0803,-1.1503,-1.1945,-1.2461,-1.3004,-1.2451,-1.2705,-1.3293,-1.3534,-1.3646,-1.383,-1.4366,-1.5282,-1.6282,-1.7061,-1.8068,-1.8969,-1.9085,-1.9421,-1.9845,-2.0043,-2.0234,-2.0418,-2.0799,-2.0982,-2.1109,-2.1109,-2.1109,-2.1109,-2.1109,-2.1109,-2.1015,-2.0728,-2.0808,-2.0808,-2.0514,-2.0608,-2.0648,-2.0494,-2.0474,-2.0361,-2.0067,-1.9893,-1.9746,-1.9613,-1.9332,-1.9032,-1.8711,-1.8711,-1.8724,-1.8724,-1.9158,-1.9459,-1.9599,-1.976,-1.982,-1.98,-1.9666,-1.9519,-1.9424,-1.9386,-1.9466,-0.7095,-0.7122,-0.7221,-0.7343,0.0,0.0,0.0,0.0,0.0,0.0,0.0,0.0,0.0,0.0,0.0,0.0,0.0,0.0,0.0,0.0,0.0,0.0,0.0,0.0,0.0,0.0,0.0,0.0,0.0,0.0,0.0,0.0,0.0,0.0,0.0,0.0,-0.8096,-0.8008,-0.7988,-0.7988,-0.7988,-0.7988,-0.7992,-0.8025,-0.816,-0.8316,-0.8294,-0.8362,-0.8572,-0.989,-1.0565,-1.0874,-1.201,-1.2385,-1.2339,-1.2822,-1.3355,-1.3865,-1.4296,-1.456,-1.4784,-1.5205,-1.5916,-1.6762,-1.739,-1.8161,-1.8858,-1.9021,-1.9264,-1.9584,-1.9909,-2.0106,-2.0361,-2.0862,-2.1046,-2.1109,-2.1109,-2.1109,-2.1109,-2.1109,-2.1109,-2.1036,-2.0815,-2.0962,-2.1036,-2.0808,-2.0969,-2.1029,-2.0808,-2.0775,-2.0661,-2.0368,-2.014,-1.998,-1.9907,-1.97,-1.9379,-1.8925,-1.9105,-1.9225,-1.9225,-1.9726,-2.0007,-2.0007,-2.0227,-2.0227,-2.0007,-1.9867,-1.972,-1.9573,-1.9726,-1.9833,-0.7095,-0.7244,-0.7402,-0.7412,-0.718,0.0,-0.7672,-0.7584,0.0,-0.7709,0.0,0.0,0.0,0.0,0.0,0.0,0.0,0.0,0.0,0.0,0.0,0.0,0.0,0.0,0.0,0.0,0.0,0.0,0.0,0.0,0.0,0.0,0.0,0.0,0.0,0.0,-0.8255,-0.8109,-0.7988,-0.7988,-0.7988,-0.7988,-0.7995,-0.8187,-0.831,-0.832,-0.8813,-0.9016,-0.9118,-1.0306,-1.1208,-1.1883,-1.2016,-1.1969,-1.1924,-1.251,-1.2674,-1.272,-1.338,-1.3702,-1.4026,-1.4755,-1.5739,-1.6796,-1.7633,-1.8408,-1.9088,-1.906,-1.9136,-1.92,-1.9577,-2.0094,-2.0609,-2.0609,-2.0856,-2.1109,-2.1109,-2.1109,-2.1109,-2.1109,-2.1109,-2.1102,-2.1082,-2.1096,-2.1102,-2.1082,-2.1096,-2.1102,-2.1082,-2.1076,-2.0969,-2.0675,-2.0628,-2.0501,-2.0227,-2.012,-2.0093,-2.0107,-2.0127,-2.014,-2.014,-2.0448,-2.0615,-2.0615,-2.0635,-2.0635,-2.0608,-2.0067,-1.9927,-2.0167,-1.9913,-1.9947,-0.7095,-0.7322,-0.7468,-0.7275,-0.7214,0.0,0.0,-0.7936,-0.7818,-0.788,-0.8221,0.0,0.0,0.0,0.0,0.0,0.0,0.0,0.0,0.0,0.0,0.0,0.0,0.0,0.0,0.0,0.0,0.0,0.0,0.0,0.0,0.0,0.0,0.0,0.0,0.0,0.0,-0.8019,-0.7988,-0.7988,-0.7988,-0.7988,-0.7992,-0.8099,-0.8126,-0.8126,-0.8327,-0.8721,-0.9214,-1.0192,-1.0752,-1.1051,-1.1677,-1.2319,-1.2895,-1.3113,-1.3325,-1.3586,-1.3672,-1.3852,-1.4186,-1.4988,-1.588,-1.6759,-1.7637,-1.8587,-1.9386,-1.9142,-1.9398,-1.9717,-1.9909,-2.01,-2.0418,-2.0799,-2.0982,-2.1109,-2.1109,-2.1109,-2.1109,-2.1109,-2.1109,-2.1109,-2.1109,-2.1109,-2.1109,-2.1109,-2.1109,-2.1109,-2.1109,-2.1109,-2.1069,-2.0955,-2.0782,-2.0555,-2.0261,-2.0401,-2.0508,-2.0508,-2.0508,-2.0508,-2.0508,-2.0788,-2.0949,-2.0949,-2.0949,-2.0855,-2.0675,-2.0454,-2.0307,-2.0173,-2.0307,-2.0408,-0.7214,-0.7333,-0.7428,-0.7267,0.0,0.0,-0.8177,-0.8184,-0.8069,-0.8404,-0.8635,0.0,0.0,0.0,0.0,0.0,0.0,0.0,0.0,0.0,0.0,0.0,0.0,0.0,0.0,0.0,0.0,0.0,0.0,0.0,0.0,0.0,0.0,0.0,0.0,0.0,0.0,-0.7988,-0.7988,-0.7988,-0.7988,-0.7988,-0.7988,-0.7988,-0.7988,-0.7992,-0.8283,-0.8676,-0.9266,-1.0359,-1.0949,-1.1217,-1.2014,-1.28,-1.3486,-1.3561,-1.3846,-1.4169,-1.3997,-1.4051,-1.4348,-1.5428,-1.6153,-1.6847,-1.8072,-1.8971,-1.9577,-1.9462,-1.9724,-2.0106,-2.0234,-2.0234,-2.0418,-2.0982,-2.1109,-2.1109,-2.1109,-2.1109,-2.1109,-2.1109,-2.1109,-2.1109,-2.1109,-2.1109,-2.1109,-2.1109,-2.1109,-2.1109,-2.1109,-2.1109,-2.1109,-2.1109,-2.0935,-2.0728,-2.0528,-2.0695,-2.0815,-2.0815,-2.0815,-2.0815,-2.0815,-2.1002,-2.1109,-2.1109,-2.1109,-2.1009,-2.0815,-2.0722,-2.0621,-2.0508,-2.0621,-2.0728,-0.7415,-0.7261,-0.7176,0.0,0.0,0.0,-0.8279,-0.8255,-0.8248,-0.9198,0.0,-0.8885,-0.8888,0.0,0.0,0.0,0.0,0.0,0.0,0.0,0.0,0.0,0.0,0.0,0.0,0.0,0.0,0.0,0.0,0.0,0.0,0.0,0.0,0.0,0.0,0.0,0.0,-0.7988,-0.7988,-0.7988,-0.7988,-0.7988,-0.7988,-0.7988,-0.7988,-0.8038,-0.8874,-0.9217,-0.9316,-1.0944,-1.2078,-1.2835,-1.3017,-1.326,-1.3513,-1.3739,-1.3981,-1.4196,-1.4196,-1.4196,-1.4462,-1.6107,-1.6602,-1.697,-1.8992,-1.9577,-1.9705,-2.0043,-2.0106,-2.017,-2.0482,-2.0609,-2.0672,-2.1046,-2.1109,-2.1109,-2.1109,-2.1109,-2.1116,-2.1116,-2.1116,-2.1109,-2.1109,-2.1109,-2.1109,-2.1109,-2.1109,-2.1109,-2.1109,-2.1109,-2.1109,-2.1109,-2.1109,-2.1109,-2.1109,-2.1109,-2.1109,-2.1109,-2.1109,-2.1109,-2.1109,-2.1109,-2.1109,-2.1109,-2.1109,-2.1109,-2.1109,-2.0822,-2.0828,-2.1102,-2.0815,-2.0835,-0.721,0.0,0.0,-0.7468,0.0,0.0,0.0,-0.8414,0.0,0.0,0.0,0.0,0.0,0.0,0.0,0.0,0.0,0.0,0.0,0.0,0.0,0.0,0.0,0.0,0.0,0.0,0.0,0.0,0.0,0.0,0.0,0.0,0.0,0.0,0.0,0.0,0.0,0.0,-0.7988,-0.7988,-0.7988,-0.7988,-0.7988,-0.7988,-0.7988,-0.8038,-0.8874,-0.9517,-1.0162,-1.178,-1.266,-1.3028,-1.327,-1.3513,-1.375,-1.3992,-1.4132,-1.4196,-1.4196,-1.4196,-1.4462,-1.6107,-1.6779,-1.7262,-1.9054,-1.9896,-2.0284,-2.017,-2.0297,-2.0482,-2.0545,-2.0609,-2.0672,-2.1046,-2.1109,-2.1169,-2.1376,-2.1423,-2.1483,-2.169,-2.1563,-2.1423,-2.1423,-2.1249,-2.1109,-2.1109,-2.1289,-2.1423,-2.1423,-2.1423,-2.1343,-2.1129,-2.1109,-2.1109,-2.1109,-2.1109,-2.1109,-2.1109,-2.1109,-2.1109,-2.1109,-2.1109,-2.1109,-2.1109,-2.1109,-2.1109,-2.1109,-2.1022,-2.1029,-2.1109,-2.1022,-2.1029,-0.7311,0.0,0.0,-0.7729,-0.8095,-0.8425,-0.8743,0.0,0.0,0.0,0.0,0.0,0.0,0.0,0.0,0.0,0.0,0.0,0.0,0.0,0.0,0.0,0.0,0.0,0.0,0.0,0.0,0.0,0.0,0.0,0.0,0.0,0.0,0.0,0.0,0.0,0.0,0.0,0.0,-0.7901,-0.7961,-0.7988,-0.7988,-0.7988,-0.7988,-0.8038,-0.9171,-1.0306,-1.1448,-1.2513,-1.298,-1.3136,-1.348,-1.3696,-1.3852,-1.4099,-1.4196,-1.4196,-1.4196,-1.4424,-1.4872,-1.617,-1.6977,-1.7714,-1.9185,-1.9903,-2.0221,-2.0291,-2.0418,-2.0609,-2.0729,-2.0884,-2.1034,-2.1226,-2.1289,-2.137,-2.1663,-2.1789,-2.1842,-2.1951,-2.175,-2.1655,-2.1769,-2.1483,-2.1323,-2.1443,-2.161,-2.1789,-2.1789,-2.1688,-2.1547,-2.1303,-2.1182,-2.1109,-2.1109,-2.1216,-2.1236,-2.1116,-2.1223,-2.1229,-2.1116,-2.1109,-2.1109,-2.1109,-2.1109,-2.1109,-2.1109,-2.1109,-2.1109,-2.1109,-2.1109,-2.1109,0.0,0.0,0.0,-0.8163,-0.8408,0.0,0.0,0.0,0.0,0.0,0.0,0.0,0.0,0.0,0.0,0.0,0.0,0.0,0.0,0.0,0.0,0.0,0.0,0.0,0.0,0.0,0.0,0.0,0.0,0.0,0.0,0.0,0.0,0.0,0.0,0.0,0.0,0.0,0.0,0.0,-0.7917,-0.7988,-0.7988,-0.7988,-0.8038,-0.8187,-0.9719,-1.1243,-1.2635,-1.2936,-1.3048,-1.3084,-1.3563,-1.3814,-1.3879,-1.411,-1.4196,-1.4202,-1.4299,-1.4817,-1.5551,-1.6434,-1.7288,-1.8137,-1.9283,-1.9641,-1.9769,-2.0412,-2.0628,-2.0711,-2.1086,-2.137,-2.1661,-2.1688,-2.1675,-2.1735,-2.1964,-2.2024,-2.2031,-2.2058,-2.183,-2.1782,-2.1977,-2.1784,-2.1755,-2.1984,-2.2024,-2.2017,-2.1991,-2.1822,-2.1648,-2.1621,-2.1309,-2.1162,-2.1189,-2.1436,-2.1476,-2.1203,-2.1416,-2.143,-2.1162,-2.1122,-2.1109,-2.1109,-2.1109,-2.1109,-2.1109,-2.1109,-2.1109,-2.1109,-2.1136,-2.1136,0.0,-0.7699,0.0,0.0,-0.8695,0.0,0.0,0.0,0.0,0.0,0.0,0.0,0.0,0.0,0.0,0.0,0.0,0.0,0.0,0.0,0.0,0.0,0.0,0.0,0.0,0.0,0.0,0.0,0.0,0.0,0.0,0.0,0.0,0.0,0.0,0.0,-0.76,-0.774,-0.7811,0.0,-0.7917,-0.7988,-0.7988,-0.7988,-0.8333,-0.9019,-0.9965,-1.0609,-1.1002,-1.2325,-1.2707,-1.2536,-1.3302,-1.3782,-1.4121,-1.4175,-1.4196,-1.4299,-1.4894,-1.526,-1.5664,-1.7146,-1.7946,-1.844,-1.9347,-1.9775,-2.01,-2.0482,-2.0765,-2.1006,-2.1392,-2.1677,-2.1951,-2.2178,-2.2058,-2.1971,-2.2265,-2.2325,-2.2392,-2.2625,-2.2432,-2.2251,-2.2311,-2.2084,-2.1991,-2.2278,-2.2325,-2.2245,-2.2017,-2.1931,-2.1804,-2.1641,-2.1561,-2.155,-2.1777,-2.1857,-2.1864,-2.1797,-2.1708,-2.1588,-2.1527,-2.1236,-2.1109,-2.1109,-2.1109,-2.1109,-2.1109,-2.1109,-2.1109,-2.1116,-2.1349,-2.1329,0.0,0.0,0.0,0.0,0.0,0.0,0.0,0.0,0.0,0.0,0.0,0.0,0.0,0.0,0.0,0.0,0.0,0.0,0.0,0.0,0.0,0.0,0.0,0.0,0.0,0.0,0.0,0.0,0.0,0.0,0.0,0.0,0.0,0.0,0.0,0.0,-0.7334,-0.7526,-0.76,-0.7604,-0.7824,-0.7921,-0.7988,-0.7988,-0.8432,-0.9217,-0.9665,-1.0256,-1.1056,-1.1993,-1.259,-1.292,-1.3444,-1.3868,-1.4196,-1.4196,-1.4196,-1.4315,-1.5127,-1.567,-1.617,-1.7477,-1.8388,-1.9018,-1.93,-1.9584,-1.9909,-2.0291,-2.0561,-2.0903,-2.1421,-2.1871,-2.2231,-2.2385,-2.2305,-2.2271,-2.2565,-2.2632,-2.2679,-2.2901,-2.2619,-2.2465,-2.2605,-2.2505,-2.2458,-2.2605,-2.2632,-2.2579,-2.2425,-2.2278,-2.2131,-2.1984,-2.1844,-2.1817,-2.1971,-2.2111,-2.2131,-2.1991,-2.1977,-2.1904,-2.1829,-2.161,-2.1396,-2.1116,-2.1109,-2.1182,-2.1323,-2.1323,-2.139,-2.1537,-2.169,-2.1677,0.0,0.0,0.0,0.0,0.0,0.0,0.0,0.0,0.0,0.0,0.0,0.0,0.0,0.0,0.0,0.0,0.0,0.0,0.0,0.0,0.0,0.0,0.0,0.0,0.0,0.0,0.0,0.0,0.0,0.0,0.0,0.0,0.0,0.0,0.0,-0.6523,-0.7095,-0.7292,-0.7415,-0.7419,-0.7645,-0.7841,-0.7914,-0.7938,-0.8358,-0.9019,-0.9118,-0.9957,-1.1203,-1.1671,-1.2405,-1.3342,-1.3633,-1.3938,-1.4196,-1.4196,-1.4196,-1.4326,-1.5328,-1.6137,-1.6877,-1.7848,-1.8898,-1.9647,-1.9264,-1.9392,-1.9788,-2.0164,-2.0444,-2.0863,-2.156,-2.2098,-2.2498,-2.2498,-2.2498,-2.2565,-2.2812,-2.2928,-2.2928,-2.2928,-2.2665,-2.2572,-2.2819,-2.2928,-2.2928,-2.2928,-2.2928,-2.2914,-2.2792,-2.2572,-2.2418,-2.2418,-2.2205,-2.2078,-2.2131,-2.2358,-2.2392,-2.2151,-2.2311,-2.2311,-2.2071,-2.2011,-2.173,-2.1196,-2.1189,-2.1283,-2.1541,-2.1541,-2.163,-2.1911,-2.1964,-2.1984,0.0,0.0,0.0,0.0,0.0,0.0,0.0,0.0,0.0,0.0,0.0,0.0,0.0,0.0,0.0,0.0,0.0,0.0,0.0,0.0,0.0,0.0,0.0,0.0,0.0,0.0,0.0,0.0,0.0,0.0,0.0,0.0,-0.5233,-0.6083,-0.6656,0.0,-0.7095,-0.7292,-0.7415,-0.7419,-0.7546,-0.7638,-0.7662,-0.7787,-0.7961,-0.8187,-0.8874,-0.9312,-0.9612,-1.107,-1.1969,-1.255,-1.3255,-1.3798,-1.4196,-1.4196,-1.4196,-1.4478,-1.623,-1.6944,-1.7286,-1.8888,-1.9655,-1.9979,-1.9641,-1.9775,-2.0151,-2.0715,-2.1117,-2.1529,-2.2105,-2.2552,-2.2806,-2.2806,-2.2806,-2.2881,-2.2921,-2.2928,-2.2928,-2.2928,-2.2826,-2.2881,-2.2921,-2.2928,-2.2928,-2.2928,-2.2928,-2.2772,-2.2512,-2.2445,-2.2418,-2.2418,-2.2385,-2.2465,-2.2794,-2.2779,-2.2854,-2.2746,-2.2539,-2.2398,-2.2358,-2.2118,-2.183,-2.1568,-2.1561,-2.139,-2.1169,-2.1169,-2.1316,-2.1681,-2.1871,-2.1984,0.0,0.0,0.0,0.0,0.0,0.0,0.0,0.0,0.0,0.0,0.0,0.0,0.0,0.0,0.0,0.0,0.0,0.0,0.0,0.0,0.0,0.0,0.0,0.0,0.0,0.0,0.0,0.0,0.0,0.0,-0.5099,-0.5455,-0.5947,-0.6656,-0.6962,0.0,-0.7095,-0.7207,-0.7285,-0.7415,-0.735,-0.7431,-0.76,-0.7665,-0.7773,-0.7916,-0.8343,-0.8775,-0.9266,-0.9957,-1.0966,-1.211,-1.2648,-1.332,-1.4003,-1.4143,-1.4407,-1.4864,-1.6304,-1.7185,-1.7825,-1.9155,-1.9966,-2.0297,-1.9973,-2.0208,-2.0683,-2.0935,-2.1352,-2.1864,-2.2251,-2.2512,-2.2652,-2.2887,-2.2739,-2.2612,-2.2612,-2.2746,-2.2928,-2.2928,-2.2928,-2.2928,-2.2928,-2.2928,-2.2928,-2.2928,-2.2928,-2.2881,-2.2686,-2.2665,-2.2665,-2.2665,-2.2665,-2.2719,-2.2921,-2.2928,-2.2928,-2.2928,-2.2739,-2.2665,-2.2665,-2.2385,-2.2091,-2.1804,-2.1702,-2.1554,-2.1356,-2.1516,-2.175,-2.2044,-2.2338,-2.2472,0.0,0.0,0.0,0.0,0.0,0.0,0.0,0.0,0.0,0.0,0.0,0.0,0.0,0.0,0.0,0.0,0.0,0.0,0.0,0.0,0.0,0.0,0.0,0.0,0.0,0.0,0.0,0.0,0.0,0.0,-0.6083,-0.6083,-0.639,-0.7095,-0.7095,-0.7095,-0.7095,-0.7095,-0.7156,-0.7312,-0.7149,-0.7216,-0.7485,-0.7522,-0.7621,-0.7767,-0.7907,-0.8581,-0.9513,-0.9513,-1.0663,-1.2425,-1.2705,-1.3402,-1.4215,-1.4522,-1.4959,-1.5629,-1.6703,-1.7628,-1.8546,-1.9519,-2.0221,-2.0672,-2.0361,-2.0682,-2.1162,-2.1162,-2.1523,-2.1996,-2.2331,-2.2418,-2.2492,-2.2792,-2.2692,-2.2532,-2.2532,-2.2645,-2.2752,-2.2752,-2.2812,-2.2839,-2.2766,-2.2812,-2.2928,-2.2928,-2.2928,-2.2928,-2.2928,-2.2928,-2.2928,-2.2928,-2.2928,-2.2928,-2.2928,-2.2928,-2.2928,-2.2928,-2.2928,-2.2826,-2.2752,-2.2539,-2.2278,-2.1991,-2.177,-2.1688,-2.1614,-2.1844,-2.2131,-2.2425,-2.2645,-2.2752,0.0,0.0,0.0,0.0,0.0,0.0,0.0,0.0,0.0,0.0,0.0,0.0,0.0,0.0,0.0,0.0,0.0,0.0,0.0,0.0,0.0,0.0,0.0,0.0,0.0,0.0,0.0,0.0,0.0,0.0,-0.6083,-0.6083,-0.639,-0.7095,-0.7095,-0.7095,-0.7095,-0.7095,-0.7098,-0.7109,-0.7098,-0.7105,-0.7125,-0.7316,-0.7465,-0.7628,-0.7867,-0.8878,-1.0364,-1.0364,-1.1707,-1.3834,-1.4083,-1.4642,-1.5367,-1.5683,-1.6211,-1.6893,-1.7993,-1.8837,-1.944,-2.0281,-2.0792,-2.0982,-2.0672,-2.1067,-2.155,-2.155,-2.177,-2.2071,-2.2345,-2.2418,-2.2492,-2.2792,-2.2921,-2.2839,-2.2839,-2.2632,-2.2438,-2.2438,-2.2672,-2.2772,-2.2492,-2.2672,-2.2928,-2.2928,-2.2928,-2.2928,-2.2928,-2.2928,-2.2928,-2.2928,-2.2928,-2.2928,-2.2928,-2.2928,-2.2928,-2.2928,-2.2928,-2.2739,-2.2452,-2.2425,-2.2278,-2.1991,-2.1971,-2.1824,-2.1614,-2.1844,-2.2131,-2.2418,-2.2432,-2.2438,0.0,0.0,0.0,0.0,0.0,0.0,0.0,0.0,0.0,0.0,0.0,0.0,0.0,0.0,0.0,0.0,0.0,0.0,0.0,0.0,0.0,0.0,0.0,0.0,0.0,0.0,0.0,0.0,0.0,0.0,-0.6745,-0.6745,-0.6833,-0.7095,-0.7095,-0.7095,-0.7095,-0.7095,-0.7095,-0.7095,-0.7408,-0.7408,-0.7102,-0.7611,-0.8042,-0.8402,-0.8579,-0.9026,-0.9665,-1.0015,-1.1231,-1.2959,-1.3252,-1.4077,-1.5267,-1.5916,-1.6643,-1.7279,-1.7185,-1.7775,-1.8723,-1.9138,-1.9495,-1.9915,-2.0945,-2.1405,-2.1695,-2.2004,-2.2184,-2.2331,-2.2625,-2.2565,-2.2398,-2.2318,-2.2298,-2.2298,-2.2298,-2.2071,-2.1977,-2.2345,-2.2358,-2.2265,-2.2158,-2.2385,-2.2579,-2.2579,-2.2739,-2.2928,-2.2928,-2.2928,-2.2928,-2.2928,-2.2928,-2.2928,-2.2928,-2.2928,-2.2928,-2.2928,-2.2928,-2.2881,-2.2706,-2.2519,-2.2365,-2.2265,-2.2265,-2.2118,-2.183,-2.2124,-2.2318,-2.2425,-2.2612,-2.2706,-0.7265,0.0,0.0,0.0,0.0,0.0,0.0,0.0,0.0,0.0,0.0,0.0,0.0,0.0,0.0,0.0,0.0,0.0,0.0,0.0,0.0,0.0,0.0,0.0,0.0,0.0,0.0,0.0,0.0,0.0,-0.7095,-0.7095,-0.7095,-0.7095,-0.7095,-0.7095,-0.7095,-0.7095,-0.7183,-0.7319,-0.7628,-0.7628,-0.7363,-0.7778,-0.8098,-0.8359,-0.8761,-0.9348,-1.0006,-1.031,-1.133,-1.2801,-1.2994,-1.3815,-1.5009,-1.5587,-1.6333,-1.6963,-1.6382,-1.7221,-1.8515,-1.8609,-1.917,-1.9928,-2.1199,-2.1688,-2.1777,-2.2164,-2.2345,-2.2465,-2.2659,-2.2639,-2.2519,-2.2325,-2.2131,-2.2011,-2.2111,-2.1824,-2.1735,-2.2051,-2.2051,-2.1951,-2.1857,-2.2078,-2.2305,-2.2405,-2.2585,-2.2746,-2.2921,-2.2928,-2.2928,-2.2928,-2.2928,-2.2928,-2.2928,-2.2928,-2.2928,-2.2928,-2.2928,-2.2819,-2.2719,-2.2525,-2.2418,-2.2418,-2.2418,-2.2372,-2.2278,-2.2472,-2.2565,-2.2572,-2.2772,-2.2812,0.0,0.0,0.0,0.0,0.0,0.0,0.0,0.0,0.0,0.0,0.0,0.0,0.0,0.0,0.0,0.0,0.0,0.0,0.0,0.0,0.0,0.0,0.0,0.0,0.0,0.0,0.0,0.0,0.0,-0.7109,-0.7102,-0.7098,-0.7095,-0.7095,-0.7095,-0.7095,-0.7095,-0.7095,-0.7319,-0.7808,-0.7808,-0.7808,-0.7808,-0.7808,-0.7678,-0.7478,-0.8409,-0.9858,-1.1536,-1.1292,-1.2058,-1.343,-1.3464,-1.3903,-1.4599,-1.4838,-1.537,-1.5968,-1.5838,-1.7128,-1.8908,-1.8908,-1.9877,-2.1099,-2.147,-2.1757,-2.1977,-2.2004,-2.2211,-2.2418,-2.2432,-2.2645,-2.2928,-2.2921,-2.2412,-2.2071,-2.2345,-2.1964,-2.1635,-2.1635,-2.179,-2.1884,-2.1661,-2.179,-2.2071,-2.2358,-2.2412,-2.2525,-2.2894,-2.2928,-2.2928,-2.2928,-2.2928,-2.2928,-2.2928,-2.2928,-2.2928,-2.2928,-2.2928,-2.2732,-2.2445,-2.2432,-2.2432,-2.2432,-2.2432,-2.2572,-2.2928,-2.2928,-2.2928,-2.2928,-2.2928,-2.2706,-0.7125,0.0,0.0,0.0,0.0,0.0,0.0,0.0,0.0,0.0,0.0,0.0,0.0,0.0,0.0,0.0,0.0,0.0,0.0,0.0,0.0,0.0,0.0,0.0,0.0,0.0,0.0,0.0,0.0,-0.7424,-0.7312,-0.72,-0.7095,-0.7095,-0.7095,-0.7095,-0.7095,-0.7095,-0.7319,-0.7808,-0.8201,-0.8157,-0.7808,-0.8201,-0.8405,-0.8413,-0.8691,-0.9525,-1.0703,-1.0462,-1.0965,-1.2013,-1.2434,-1.3174,-1.4026,-1.4856,-1.5514,-1.5872,-1.4931,-1.5893,-1.7361,-1.6392,-1.7619,-1.9703,-2.0176,-2.0973,-2.1869,-2.2438,-2.2525,-2.2465,-2.2686,-2.2799,-2.2806,-2.2592,-2.2418,-2.2265,-2.2131,-2.1977,-2.1864,-2.1864,-2.1764,-2.1715,-2.1635,-2.1681,-2.177,-2.2064,-2.2285,-2.2525,-2.2894,-2.2928,-2.2928,-2.2928,-2.2928,-2.2928,-2.2928,-2.2928,-2.2928,-2.2928,-2.2928,-2.2894,-2.2746,-2.2739,-2.2739,-2.2739,-2.2739,-2.2779,-2.2928,-2.2928,-2.2928,-2.2928,-2.2928,-2.2819,-0.7122,-0.7095,0.0,0.0,0.0,0.0,0.0,-0.7845,0.0,0.0,0.0,0.0,0.0,0.0,0.0,0.0,0.0,0.0,0.0,0.0,0.0,0.0,0.0,0.0,0.0,0.0,0.0,0.0,-0.7689,-0.7648,-0.756,-0.7414,-0.7302,-0.7238,-0.7129,-0.7095,-0.7095,-0.7095,-0.7319,-0.7808,-0.8113,-0.8113,-0.7808,-0.8113,-0.8259,-0.824,-0.8264,-0.868,-0.9323,-0.9275,-0.9941,-1.096,-1.1312,-1.193,-1.2744,-1.3451,-1.4084,-1.4524,-1.4274,-1.5332,-1.6726,-1.6338,-1.7759,-1.9774,-2.0204,-2.0954,-2.1775,-2.2465,-2.2639,-2.2645,-2.2819,-2.2928,-2.2819,-2.2645,-2.2505,-2.2372,-2.2205,-2.2164,-2.2091,-2.185,-2.1735,-2.1581,-2.139,-2.137,-2.151,-2.1924,-2.2131,-2.2385,-2.2806,-2.2928,-2.2928,-2.2928,-2.2928,-2.2928,-2.2928,-2.2928,-2.2928,-2.2928,-2.2928,-2.2928,-2.2928,-2.2928,-2.2928,-2.2928,-2.2928,-2.2928,-2.2928,-2.2928,-2.2928,-2.2928,-2.2928,-2.2928,-0.7109,-0.7095,-0.7095,0.0,0.0,0.0,-0.7645,-0.7651,-0.7723,0.0,0.0,0.0,0.0,0.0,0.0,0.0,0.0,0.0,0.0,0.0,0.0,0.0,0.0,0.0,0.0,0.0,-0.8197,-0.7909,-0.7872,-0.7855,-0.7838,-0.7699,-0.756,-0.747,-0.7288,-0.7152,-0.7122,-0.7139,-0.7354,-0.7808,-0.7808,-0.7808,-0.7808,-0.7823,-0.7699,-0.745,-0.7556,-0.7702,-0.7858,-0.815,-0.8987,-1.0081,-1.0119,-1.0515,-1.1168,-1.1401,-1.1887,-1.2572,-1.368,-1.5105,-1.6602,-1.7512,-1.906,-2.0597,-2.0812,-2.1182,-2.1789,-2.2305,-2.2659,-2.2928,-2.2928,-2.2928,-2.2928,-2.2928,-2.2659,-2.2465,-2.2465,-2.2465,-2.2305,-2.1822,-2.1688,-2.1574,-2.1209,-2.1156,-2.1349,-2.1904,-2.2017,-2.2231,-2.2861,-2.2928,-2.2928,-2.2928,-2.2928,-2.2928,-2.2928,-2.2961,-2.2899,-2.2934,-2.2961,-2.2899,-2.2928,-2.2928,-2.2928,-2.2928,-2.2899,-2.2913,-2.2913,-2.2913,-2.2961,-2.2928,-2.2928,-2.2928,0.0,0.0,0.0,0.0,0.0,0.0,-0.7206,-0.7346,-0.7494,0.0,0.0,0.0,0.0,0.0,0.0,0.0,0.0,0.0,0.0,0.0,0.0,0.0,0.0,0.0,0.0,0.0,-0.8547,-0.8364,-0.8245,-0.8126,-0.7951,-0.7851,-0.7756,-0.7726,-0.7695,-0.7567,-0.7329,-0.7448,-0.7615,-0.7808,-0.7808,-0.7808,-0.7812,-0.7983,-0.7861,-0.7563,-0.7706,-0.7855,-0.7961,-0.8194,-0.8543,-0.8922,-0.9504,-1.0097,-1.0707,-1.1126,-1.1593,-1.218,-1.3465,-1.4856,-1.6073,-1.6602,-1.8542,-2.0527,-1.9952,-2.0784,-2.2024,-2.2612,-2.2819,-2.2928,-2.2928,-2.2928,-2.2928,-2.2928,-2.2819,-2.2779,-2.2779,-2.2779,-2.2672,-2.2318,-2.2064,-2.181,-2.1581,-2.1534,-2.1648,-2.1937,-2.2184,-2.2458,-2.2819,-2.2928,-2.2928,-2.2928,-2.2928,-2.2928,-2.2928,-2.3093,-2.3133,-2.2879,-2.31,-2.3126,-2.2941,-2.2928,-2.2928,-2.2928,-2.3106,-2.324,-2.324,-2.324,-2.3106,-2.2928,-2.2928,-2.2928,0.0,0.0,0.0,-0.7095,0.0,0.0,0.0,-0.7316,-0.7439,0.0,0.0,0.0,0.0,0.0,0.0,0.0,0.0,0.0,0.0,0.0,0.0,0.0,0.0,0.0,0.0,0.0,-0.8489,-0.8482,-0.8486,-0.8455,-0.8377,-0.8228,-0.8113,-0.8041,-0.7967,-0.7851,-0.7706,-0.7634,-0.7616,-0.7689,-0.753,-0.7452,-0.7455,-0.766,-0.7682,-0.7607,-0.775,-0.7896,-0.8002,-0.8208,-0.8353,-0.8548,-0.8969,-0.9545,-1.0088,-1.0599,-1.1111,-1.1764,-1.3169,-1.4032,-1.4707,-1.5429,-1.7367,-1.92,-1.8876,-2.0244,-2.2078,-2.2519,-2.2746,-2.2928,-2.2928,-2.2928,-2.2928,-2.2928,-2.2928,-2.2928,-2.2928,-2.2746,-2.2599,-2.2445,-2.2184,-2.1937,-2.1797,-2.177,-2.1864,-2.2158,-2.2325,-2.2525,-2.2894,-2.2928,-2.2928,-2.2928,-2.2928,-2.2928,-2.2928,-2.3146,-2.326,-2.3106,-2.338,-2.348,-2.332,-2.3173,-2.2668,-2.1747,-2.2957,-2.3043,-2.1969,-2.2828,-2.3166,-2.2928,-2.2928,-2.2946,0.0,0.0,0.0,0.0,0.0,-0.7129,0.0,0.0,0.0,0.0,0.0,0.0,0.0,0.0,0.0,0.0,0.0,0.0,0.0,0.0,0.0,0.0,0.0,0.0,0.0,0.0,-0.837,-0.8516,-0.8587,-0.8662,-0.875,-0.8581,-0.8442,-0.836,-0.8235,-0.8093,-0.8032,-0.7875,-0.7712,-0.7597,-0.7346,-0.7169,-0.7146,-0.7343,-0.7499,-0.7648,-0.7794,-0.7877,-0.8002,-0.8208,-0.8388,-0.8455,-0.8608,-0.9047,-0.9695,-1.0136,-1.0707,-1.1397,-1.2787,-1.3246,-1.3407,-1.4581,-1.6392,-1.815,-1.8313,-2.0089,-2.2058,-2.2405,-2.2679,-2.2928,-2.2928,-2.2928,-2.2928,-2.2928,-2.2928,-2.2928,-2.2928,-2.2672,-2.2505,-2.2505,-2.2318,-2.2118,-2.2004,-2.2031,-2.2151,-2.2385,-2.2465,-2.2592,-2.2901,-2.2928,-2.2928,-2.2928,-2.2928,-2.2928,-2.2928,-2.32,-2.3387,-2.3327,-2.3661,-2.3828,-2.3774,-2.3487,-2.2669,-2.1211,-2.2943,-2.2982,-2.1284,-2.2729,-2.3307,-2.2953,-2.2953,-2.312,0.0,0.0,0.0,0.0,-0.7095,0.0,0.0,0.0,0.0,0.0,0.0,0.0,0.0,0.0,0.0,0.0,0.0,0.0,0.0,0.0,0.0,0.0,0.0,0.0,0.0,0.0,0.0,-0.8672,-0.8459,-0.8492,-0.8838,-0.8638,-0.8537,-0.8655,-0.8642,-0.8506,-0.8248,-0.8336,-0.8119,-0.76,-0.7563,-0.7475,-0.735,-0.7502,-0.7651,-0.7794,-0.7897,-0.7975,-0.8002,-0.8208,-0.833,-0.8361,-0.8452,-0.9074,-0.9881,-0.9935,-1.0333,-1.1064,-1.2575,-1.3007,-1.3144,-1.4833,-1.677,-1.8594,-1.946,-2.0784,-2.2104,-2.2659,-2.2839,-2.2928,-2.2928,-2.2928,-2.2928,-2.2928,-2.2928,-2.2928,-2.2928,-2.2839,-2.2812,-2.2812,-2.2854,-2.2666,-2.2078,-2.2198,-2.2378,-2.2412,-2.2645,-2.2894,-2.2928,-2.2928,-2.2928,-2.2928,-2.2928,-2.2928,-2.2928,-2.3387,-2.3607,-2.3347,-2.3848,-2.4035,-2.3781,-2.3487,-2.3363,-2.3441,-2.3663,-2.379,-2.376,-2.4016,-2.3814,-2.3273,-2.3273,-2.3434,0.0,0.0,0.0,0.0,0.0,0.0,-0.7352,0.0,-0.6991,0.0,0.0,0.0,0.0,0.0,0.0,0.0,0.0,0.0,0.0,0.0,0.0,0.0,0.0,0.0,0.0,0.0,0.0,0.0,0.0,-0.8608,-0.8798,-0.8767,-0.8777,-0.8842,-0.8842,-0.8784,-0.8659,-0.854,-0.8357,-0.8109,-0.7848,-0.7645,-0.7509,-0.7655,-0.7709,-0.7702,-0.7887,-0.7988,-0.7995,-0.8109,-0.8187,-0.8327,-0.8388,-0.8886,-0.9634,-0.9808,-1.0146,-1.0744,-1.1478,-1.1644,-1.1916,-1.3989,-1.5989,-1.7915,-1.9565,-2.1082,-2.2325,-2.2746,-2.2928,-2.2928,-2.2928,-2.2928,-2.2928,-2.2928,-2.2928,-2.2928,-2.2928,-2.2726,-2.2652,-2.2826,-2.2719,-2.2579,-2.2505,-2.2592,-2.2679,-2.2679,-2.2779,-2.2928,-2.2928,-2.2712,-2.2672,-2.2914,-2.2706,-2.2672,-2.2846,-2.342,-2.3721,-2.3594,-2.4135,-2.4249,-2.3788,-2.3975,-2.3464,-2.2286,-2.3405,-2.3471,-2.238,-2.3425,-2.3741,-2.3327,-2.3507,-2.3741,-0.6291,0.0,0.0,0.0,0.0,0.0,0.0,0.0,0.0,0.0,0.0,0.0,0.0,0.0,0.0,0.0,0.0,0.0,0.0,0.0,0.0,0.0,0.0,0.0,0.0,0.0,0.0,0.0,-0.8685,0.0,-0.913,-0.8937,-0.8797,-0.8881,-0.8844,-0.8841,-0.8885,-0.8716,-0.8564,-0.8479,-0.8153,-0.7899,-0.7726,-0.7828,-0.7818,-0.7736,-0.7991,-0.8102,-0.8102,-0.8102,-0.817,-0.8327,-0.8364,-0.876,-0.9412,-0.9669,-1.0135,-1.0637,-1.075,-1.0854,-1.1212,-1.294,-1.4739,-1.6681,-1.8914,-2.0644,-2.1932,-2.2711,-2.2928,-2.2928,-2.2928,-2.2928,-2.2928,-2.2928,-2.2928,-2.2928,-2.2928,-2.2692,-2.2605,-2.2819,-2.2686,-2.2605,-2.2894,-2.2928,-2.2928,-2.2928,-2.2928,-2.2901,-2.2752,-2.2619,-2.2592,-2.2726,-2.2619,-2.2632,-2.2914,-2.342,-2.3841,-2.3995,-2.4402,-2.4376,-2.3794,-2.4249,-2.3661,-2.187,-2.3353,-2.3517,-2.2082,-2.3308,-2.3781,-2.3574,-2.3788,-2.4001,0.0,0.0,0.0,-0.595,0.0,0.0,0.0,0.0,-0.678,0.0,0.0,0.0,0.0,0.0,-0.7415,-0.7409,0.0,0.0,0.0,0.0,0.0,0.0,0.0,0.0,0.0,0.0,0.0,0.0,-0.8838,0.0,-1.0178,-0.9149,-0.8632,-0.8875,-0.8794,-0.8791,-0.8881,-0.8871,-0.8774,-0.8482,-0.8469,-0.8306,-0.7975,-0.7982,-0.7978,-0.7985,-0.8194,-0.8313,-0.8313,-0.8313,-0.8316,-0.8337,-0.8421,-0.8845,-0.9401,-0.9557,-1.0173,-1.1009,-1.1016,-1.121,-1.1521,-1.1907,-1.3285,-1.5094,-1.7486,-1.9141,-2.0638,-2.2431,-2.2928,-2.2928,-2.2928,-2.2928,-2.2928,-2.2928,-2.2928,-2.2928,-2.2928,-2.2921,-2.2921,-2.2928,-2.2921,-2.2921,-2.2928,-2.2928,-2.2928,-2.2928,-2.2928,-2.2759,-2.2472,-2.2679,-2.2739,-2.2465,-2.2679,-2.2921,-2.2928,-2.342,-2.4008,-2.4569,-2.4623,-2.4376,-2.3794,-2.4062,-2.4068,-2.369,-2.4048,-2.4256,-2.4516,-2.4322,-2.4182,-2.4175,-2.4182,-2.4195,0.0,0.0,-0.4944,-0.5646,0.0,0.0,0.0,0.0,0.0,0.0,0.0,0.0,0.0,0.0,-0.7489,-0.7433,-0.7241,0.0,0.0,0.0,0.0,0.0,0.0,0.0,0.0,0.0,0.0,-0.8776,-0.8755,-0.8871,0.0,-0.8916,-0.8832,-0.8878,-0.8834,-0.8831,-0.8885,-0.8885,-0.8831,-0.8781,-0.8682,-0.8479,-0.8194,-0.8194,-0.8136,-0.7998,-0.8204,-0.8323,-0.8323,-0.8323,-0.8211,-0.8143,-0.8387,-0.9013,-0.9757,-1.0017,-1.0502,-1.1009,-1.1268,-1.1527,-1.1923,-1.2375,-1.3739,-1.5638,-1.7712,-1.9312,-2.079,-2.2415,-2.2928,-2.2928,-2.2928,-2.2928,-2.2928,-2.2928,-2.2928,-2.2928,-2.2928,-2.2928,-2.2928,-2.2928,-2.2928,-2.2928,-2.2928,-2.2928,-2.2928,-2.2928,-2.2928,-2.2894,-2.2726,-2.2632,-2.2605,-2.2706,-2.2625,-2.2645,-2.2914,-2.342,-2.4022,-2.4603,-2.4636,-2.4462,-2.4075,-2.4335,-2.4262,-2.3781,-2.4242,-2.4349,-2.4062,-2.4155,-2.4001,-2.3634,-2.4022,-2.4202,-0.324,-0.3557,0.0,0.0,-0.4768,0.0,-0.5616,0.0,0.0,0.0,0.0,0.0,0.0,0.0,-0.7519,-0.7526,-0.7309,-0.7095,0.0,0.0,0.0,0.0,0.0,0.0,0.0,0.0,-0.8346,-0.882,-0.8793,-0.8916,0.0,0.0,-0.8828,-0.8881,-0.8831,-0.8804,-0.8804,-0.8858,-0.8854,-0.8801,-0.8811,-0.8635,-0.8347,-0.8401,-0.8316,-0.813,-0.8282,-0.8347,-0.8391,-0.8344,-0.8241,-0.8214,-0.8668,-0.9267,-1.0017,-1.0151,-1.0875,-1.183,-1.2216,-1.2609,-1.2901,-1.2851,-1.4087,-1.6049,-1.7849,-1.9437,-2.0888,-2.2316,-2.2779,-2.2839,-2.2732,-2.2786,-2.2928,-2.2928,-2.2928,-2.2928,-2.2928,-2.2928,-2.2928,-2.2928,-2.2928,-2.2928,-2.2928,-2.2928,-2.2928,-2.2928,-2.2928,-2.2894,-2.2719,-2.2632,-2.2612,-2.2692,-2.2632,-2.2699,-2.2999,-2.3387,-2.3861,-2.4442,-2.4382,-2.4289,-2.4209,-2.4382,-2.4356,-2.4082,-2.4442,-2.4502,-2.4235,-2.4108,-2.3908,-2.3647,-2.3921,-2.4108]}]]